[[{"header":{"parameterUnit":"m.s-1","parameterCategory":1,"la1":31.0,"la2":29.5877,"lo1":-88.7671,"lo2":-86.6584,"dy":0.0162,"dx":0.0185,"nx":115,"ny":88,"refTime":"2024-05-11T06:00:00:Z","depth":0,"parameterNumber":2,"parameterNumberName":"U-component_of_WINDS"},"data":[0.0,0.0,0.0,0.0,0.0,0.0,0.0,0.0,0.0,0.0,0.0,0.0,0.0,0.0,0.0,0.0,0.0,0.0,0.0,0.0,0.0,0.0,0.0,0.0,0.0,0.0,0.0,0.0,0.0,0.0,0.0,0.0,0.0,0.0,0.0,0.0,0.0,0.0,0.0,0.0,0.0,0.0,0.0,0.0,0.0,0.0,0.0,0.0,0.0,0.0,0.0,0.0,0.0,0.0,0.0,0.0,0.0,0.0,0.0,0.0,0.0,0.0,0.0,0.0,0.0,0.0,0.0,0.0,0.0,0.0,0.0,0.0,0.0,0.0,0.0,0.0,0.0,0.0,0.0,0.0,0.0,0.0,0.0,0.0,0.0,0.0,0.0,0.0,0.0,0.0,0.0,0.0,0.0,0.0,0.0,0.0,0.0,0.0,0.0,0.0,0.0,0.0,0.0,0.0,0.0,0.0,0.0,0.0,0.0,0.0,0.0,0.0,0.0,0.0,0.0,0.0,0.0,0.0,0.0,0.0,0.0,0.0,0.0,0.0,0.0,0.0,0.0,0.0,0.0,0.0,0.0,0.0,0.0,0.0,0.0,0.0,0.0,0.0,0.0,0.0,0.0,0.0,0.0,0.0,0.0,0.0,0.0,0.0,0.0,0.0,0.0,0.0,0.0,0.0,0.0,0.0,0.0,0.0,0.0,0.0,0.0,0.0,0.0,0.0,0.0,0.0,0.0,0.0,0.0,0.0,0.0,0.0,0.0,0.0,0.0,0.0,0.0,0.0,0.0,0.0,0.0,0.0,0.0,0.0,0.0,0.0,0.0,0.0,0.0,0.0,0.0,0.0,0.0,0.0,0.0,0.0,0.0,0.0,0.0,0.0,0.0,0.0,0.0,0.0,0.0,0.0,0.0,0.0,0.0,0.0,0.0,0.0,0.0,0.0,0.0,0.0,0.0,0.0,0.0,0.0,0.0,0.0,0.0,0.0,0.0,0.0,0.0,0.0,0.0,0.0,0.0,0.0,0.0,0.0,0.0,0.0,0.0,0.0,0.0,0.0,0.0,0.0,0.0,0.0,0.0,0.0,0.0,0.0,0.0,0.0,0.0,0.0,0.0,0.0,0.0,0.0,0.0,0.0,0.0,0.0,0.0,0.0,0.0,0.0,0.0,0.0,0.0,0.0,0.0,0.0,0.0,0.0,0.0,0.0,0.0,0.0,0.0,0.0,0.0,0.0,0.0,0.0,0.0,0.0,0.0,0.0,0.0,0.0,0.0,0.0,0.0,0.0,0.0,0.0,0.0,0.0,0.0,0.0,0.0,0.0,0.0,0.0,0.0,0.0,0.0,0.0,0.0,0.0,0.0,0.0,0.0,0.0,0.0,0.0,0.0,0.0,0.0,0.0,0.0,0.0,0.0,0.0,0.0,0.0,0.0,0.0,0.0,0.0,0.0,0.0,0.0,0.0,0.0,0.0,0.0,0.0,0.0,0.0,0.0,0.0,0.0,0.0,0.0,0.0,0.0,0.0,0.0,0.0,0.0,0.0,0.0,0.0,0.0,0.0,0.0,0.0,0.0,0.0,0.0,0.0,0.0,0.0,0.0,0.0,0.0,0.0,0.0,0.0,0.0,0.0,0.0,0.0,0.0,0.0,0.0,0.0,0.0,0.0,0.0,0.0,0.0,0.0,0.0,0.0,0.0,0.0,0.0,0.0,0.0,0.0,0.0,0.0,0.0,0.0,0.0,0.0,0.0,0.0,0.0,0.0,0.0,0.0,0.0,0.0,0.0,0.0,0.0,0.0,0.0,0.0,0.0,0.0,0.0,0.0,0.0,0.0,0.0,0.0,0.0,0.0,0.0,0.0,0.0,0.0,0.0,0.0,0.0,0.0,0.0,0.0,0.0,0.0,0.0,0.0,0.0,0.0,0.0,0.0,0.0,0.0,0.0,0.0,0.0,0.0,0.0,0.0,0.0,0.0,0.0,0.0,0.0,0.0,0.0,0.0,0.0,0.0,0.0,0.0,0.0,0.0,0.0,0.0,0.0,0.0,0.0,0.0,0.0,0.0,0.0,0.0,0.0,0.0,0.0,0.0,0.0,0.0,0.0,0.0,0.0,0.0,0.0,0.0,0.0,0.0,0.0,0.0,0.0,0.0,0.0,0.0,0.0,0.0,0.0,0.0,0.0,0.0,0.0,0.0,0.0,0.0,0.0,0.0,0.0,0.0,0.0,0.0,0.0,0.0,0.0,0.0,0.0,0.0,0.0,0.0,0.0,0.0,0.0,0.0,0.0,0.0,0.0,0.0,0.0,0.0,0.0,0.0,0.0,0.0,0.0,0.0,0.0,0.0,0.0,0.0,0.0,0.0,0.0,0.0,0.0,0.0,0.0,0.0,0.0,0.0,0.0,0.0,0.0,0.0,0.0,0.0,0.0,0.0,0.0,0.0,0.0,0.0,0.0,0.0,0.0,0.0,0.0,0.0,0.0,0.0,0.0,0.0,0.0,0.0,0.0,0.0,0.0,0.0,0.0,0.0,0.0,0.0,0.0,0.0,0.0,0.0,0.0,0.0,0.0,0.0,0.0,0.0,0.0,0.0,0.0,0.0,0.0,0.0,0.0,0.0,0.0,0.0,0.0,0.0,0.0,0.0,0.0,0.0,0.0,0.0,0.0,0.0,0.0,0.0,0.0,0.0,0.0,0.0,0.0,0.0,0.0,0.0,0.0,0.0,0.0,0.0,0.0,0.0,0.0,0.0,0.0,0.0,0.0,0.0,0.0,0.0,0.0,0.0,0.0,0.0,0.0,0.0,0.0,0.0,0.0,0.0,0.0,0.0,0.0,0.0,0.0,0.0,0.0,0.0,0.0,0.0,0.0,0.0,0.0,0.0,0.0,0.0,0.0,0.0,0.0,0.0,0.0,0.0,0.0,0.0,0.0,0.0,0.0,0.0,0.0,0.0,0.0,0.0,0.0,0.0,0.0,0.0,0.0,0.0,0.0,0.0,0.0,0.0,0.0,0.0,0.0,0.0,0.0,0.0,0.0,0.0,0.0,0.0,0.0,0.0,0.0,0.0,0.0,0.0,0.0,0.0,0.0,0.0,0.0,0.0,0.0,0.0,0.0,0.0,0.0,0.0,0.0,0.0,0.0,0.0,0.0,0.0,0.0,0.0,0.0,0.0,0.0,0.0,0.0,0.0,0.0,0.0,0.0,0.0,0.0,0.0,0.0,0.0,0.0,0.0,0.0,0.0,0.0,0.0,0.0,0.0,0.0,0.0,0.0,0.0,0.0,0.0,0.0,0.0,0.0,0.0,0.0,0.0,0.0,0.0,0.0,0.0,0.0,0.0,0.0,0.0,0.0,0.0,0.0,0.0,0.0,0.0,0.0,0.0,0.0,0.0,0.0,0.0,0.0,0.0,0.0,0.0,0.0,0.0,0.0,0.0,0.0,0.0,0.0,0.0,0.0,0.0,0.0,0.0,0.0,0.0,0.0,0.0,0.0,0.0,0.0,0.0,0.0,0.0,0.0,0.0,0.0,0.0,0.0,0.0,0.0,0.0,0.0,0.0,0.0,0.0,0.0,0.0,0.0,0.0,0.0,0.0,0.0,0.0,0.0,0.0,0.0,0.0,0.0,0.0,0.0,0.0,0.0,0.0,0.0,0.0,0.0,0.0,0.0,0.0,0.0,0.0,0.0,0.0,0.0,0.0,0.0,0.0,0.0,0.0,0.0,0.0,0.0,0.0,0.0,0.0,0.0,0.0,0.0,0.0,0.0,0.0,0.0,0.0,0.0,0.0,0.0,0.0,0.0,0.0,0.0,0.0,0.0,0.0,0.0,0.0,0.0,0.0,0.0,0.0,0.0,0.0,0.0,0.0,0.0,0.0,0.0,0.0,0.0,0.0,0.0,0.0,0.0,0.0,0.0,0.0,0.0,0.0,0.0,0.0,0.0,0.0,0.0,0.0,0.0,0.0,0.0,0.0,0.0,0.0,0.0,0.0,0.0,0.0,0.0,0.0,0.0,0.0,0.0,0.0,0.0,0.0,0.0,0.0,0.0,0.0,0.0,0.0,0.0,0.0,0.0,0.0,0.0,0.0,0.0,0.0,0.0,0.0,0.0,0.0,0.0,0.0,0.0,0.0,0.0,0.0,0.0,0.0,0.0,0.0,0.0,0.0,0.0,0.0,0.0,0.0,0.0,0.0,0.0,0.0,0.0,0.0,0.0,0.0,0.0,0.0,0.0,0.0,0.0,0.0,0.0,0.0,1.8799,0.0,0.0,0.0,0.0,0.0,0.0,0.0,0.0,0.0,0.0,0.0,0.0,0.0,0.0,0.0,0.0,0.0,0.0,0.0,0.0,0.0,0.0,0.0,0.0,0.0,0.0,0.0,0.0,0.0,0.0,0.0,0.0,0.0,0.0,0.0,0.0,0.0,0.0,0.0,0.0,0.0,0.0,0.0,0.0,0.0,0.0,0.0,0.0,0.0,0.0,0.0,0.0,0.0,0.0,0.0,0.0,0.0,0.0,0.0,0.0,0.0,0.0,0.0,0.0,0.0,0.0,0.0,0.0,0.0,0.0,0.0,0.0,0.0,0.0,0.0,0.0,0.0,0.0,0.0,0.0,0.0,0.0,0.0,0.0,0.0,0.0,0.0,0.0,0.0,0.0,0.0,0.0,0.0,0.0,0.0,0.0,0.0,0.0,0.0,0.0,0.0,0.0,0.0,0.0,0.0,0.0,0.0,0.0,0.0,0.0,1.9261,1.8337,1.8761,1.9011,1.8992,0.0,0.0,0.0,0.0,0.0,0.0,0.0,0.0,0.0,0.0,0.0,0.0,0.0,0.0,0.0,0.0,0.0,0.0,0.0,0.0,0.0,0.0,0.0,0.0,0.0,0.0,0.0,0.0,0.0,0.0,0.0,0.0,0.0,0.0,0.0,0.0,0.0,0.0,0.0,0.0,0.0,0.0,0.0,0.0,0.0,0.0,0.0,0.0,0.0,0.0,0.0,0.0,0.0,0.0,0.0,0.0,0.0,0.0,0.0,0.0,0.0,0.0,0.0,0.0,0.0,0.0,0.0,0.0,0.0,0.0,0.0,0.0,0.0,0.0,0.0,0.0,0.0,0.0,0.0,0.0,0.0,0.0,0.0,0.0,0.0,0.0,0.0,0.0,0.0,0.0,0.0,0.0,0.0,0.0,0.0,0.0,0.0,0.0,0.0,0.0,0.0,0.0,0.0,0.0,0.0,0.0,0.0,0.0,0.0,0.0,0.0,0.0,1.9976,2.0427,2.0407,0.0,0.0,0.0,0.0,0.0,0.0,0.0,0.0,0.0,0.0,0.0,0.0,0.0,0.0,0.0,0.0,0.0,0.0,0.0,0.0,0.0,0.0,0.0,0.0,0.0,0.0,0.0,0.0,0.0,0.0,0.0,0.0,0.0,0.0,0.0,0.0,0.0,0.0,0.0,0.0,0.0,0.0,0.0,0.0,0.0,0.0,0.0,0.0,0.0,0.0,0.0,0.0,0.0,0.0,0.0,0.0,0.0,0.0,0.0,0.0,0.0,0.0,0.0,0.0,0.0,0.0,0.0,0.0,0.0,0.0,0.0,0.0,0.0,0.0,0.0,0.0,0.0,0.0,0.0,0.0,0.0,0.0,0.0,0.0,0.0,0.0,0.0,0.0,0.0,0.0,0.0,0.0,0.0,0.0,0.0,0.0,0.0,0.0,0.0,0.0,0.0,0.0,0.0,0.0,0.0,0.0,0.0,0.0,0.0,0.0,2.0392,2.3417,2.4284,0.0,2.4606,0.0,0.0,0.0,0.0,0.0,0.0,0.0,0.0,0.0,0.0,0.0,0.0,0.0,0.0,0.0,0.0,0.0,0.0,0.0,0.0,0.0,0.0,0.0,0.0,0.0,0.0,0.0,0.0,0.0,0.0,0.0,0.0,0.0,0.0,0.0,0.0,0.0,0.0,0.0,0.0,0.0,0.0,0.0,0.0,0.0,0.0,0.0,0.0,0.0,0.0,0.0,0.0,0.0,0.0,0.0,0.0,0.0,0.0,0.0,0.0,0.0,0.0,0.0,0.0,0.0,0.0,0.0,0.0,0.0,0.0,0.0,0.0,0.0,0.0,0.0,0.0,0.0,0.0,0.0,0.0,0.0,0.0,0.0,0.0,0.0,0.0,0.0,0.0,0.0,0.0,0.0,0.0,0.0,0.0,0.0,0.0,0.0,0.0,0.0,0.0,0.0,0.0,0.0,0.0,0.0,0.0,0.0,0.0,0.0,0.0,2.0544,2.0852,2.4369,2.529,0.0,0.0,0.0,0.0,0.0,0.0,0.0,0.0,0.0,0.0,0.0,0.0,0.0,0.0,0.0,0.0,0.0,0.0,0.0,0.0,0.0,0.0,0.0,0.0,0.0,0.0,0.0,0.0,0.0,0.0,0.0,0.0,0.0,0.0,0.0,0.0,0.0,0.0,0.0,0.0,0.0,0.0,0.0,0.0,0.0,0.0,0.0,0.0,0.0,0.0,0.0,0.0,0.0,0.0,0.0,0.0,0.0,0.0,0.0,0.0,0.0,0.0,0.0,0.0,0.0,0.0,0.0,0.0,0.0,0.0,0.0,0.0,0.0,0.0,0.0,0.0,0.0,0.0,0.0,0.0,0.0,0.0,0.0,0.0,0.0,0.0,0.0,0.0,0.0,0.0,0.0,0.0,0.0,0.0,0.0,0.0,0.0,0.0,0.0,0.0,0.0,0.0,0.0,0.0,0.0,0.0,0.0,0.0,0.0,0.0,2.1809,2.1942,2.1656,2.4438,2.4946,2.2626,0.0,0.0,0.0,0.0,0.0,0.0,0.0,0.0,0.0,0.0,0.0,0.0,0.0,0.0,0.0,0.0,0.0,0.0,0.0,0.0,0.0,0.0,0.0,0.0,0.0,0.0,0.0,0.0,0.0,0.0,0.0,0.0,0.0,0.0,0.0,0.0,0.0,0.0,0.0,0.0,0.0,0.0,0.0,0.0,0.0,0.0,0.0,0.0,0.0,0.0,0.0,0.0,0.0,0.0,0.0,0.0,0.0,0.0,0.0,0.0,0.0,0.0,0.0,0.0,0.0,0.0,0.0,0.0,0.0,0.0,0.0,0.0,0.0,0.0,0.0,0.0,0.0,0.0,0.0,0.0,0.0,0.0,0.0,0.0,0.0,0.0,0.0,0.0,0.0,0.0,0.0,0.0,0.0,0.0,0.0,0.0,0.0,0.0,0.0,0.0,0.0,0.0,0.0,0.0,0.0,0.0,0.0,0.0,2.6629,2.482,2.5258,2.8221,2.5447,2.4163,0.0,0.0,0.0,0.0,0.0,0.0,0.0,0.0,0.0,0.0,0.0,0.0,0.0,0.0,0.0,0.0,0.0,0.0,0.0,0.0,0.0,0.0,0.0,0.0,0.0,0.0,0.0,0.0,0.0,0.0,0.0,0.0,0.0,0.0,0.0,0.0,0.0,0.0,0.0,0.0,0.0,0.0,0.0,0.0,0.0,0.0,0.0,0.0,0.0,0.0,0.0,0.0,0.0,0.0,0.0,0.0,0.0,0.0,0.0,0.0,0.0,0.0,0.0,0.0,0.0,0.0,0.0,0.0,0.0,0.0,0.0,0.0,0.0,0.0,0.0,0.0,0.0,0.0,0.0,0.0,0.0,0.0,0.0,0.0,0.0,0.0,0.0,0.0,0.0,0.0,0.0,0.0,0.0,0.0,0.0,0.0,0.0,0.0,0.0,0.0,0.0,0.0,0.0,0.0,0.0,0.0,0.0,0.0,0.0,2.2464,2.3987,2.533,2.6496,2.3314,2.2441,0.0,0.0,0.0,0.0,0.0,0.0,0.0,0.0,0.0,0.0,0.0,0.0,0.0,0.0,0.0,0.0,0.0,0.0,0.0,0.0,0.0,0.0,0.0,0.0,0.0,0.0,0.0,0.0,0.0,0.0,0.0,0.0,0.0,0.0,0.0,0.0,0.0,0.0,0.0,0.0,0.0,0.0,0.0,0.0,0.0,0.0,0.0,0.0,0.0,0.0,0.0,0.0,0.0,0.0,0.0,0.0,0.0,0.0,0.0,0.0,0.0,0.0,0.0,0.0,0.0,0.0,0.0,0.0,0.0,0.0,0.0,0.0,0.0,0.0,0.0,0.0,0.0,0.0,0.0,0.0,0.0,0.0,0.0,0.0,0.0,0.0,0.0,0.0,0.0,0.0,0.0,0.0,0.0,0.0,0.0,0.0,0.0,0.0,0.0,0.0,0.0,0.0,0.0,0.0,0.0,0.0,0.0,0.0,0.0,2.157,0.0,2.5687,2.5245,2.2748,2.1856,0.0,0.0,0.0,0.0,0.0,0.0,0.0,0.0,0.0,0.0,0.0,0.0,0.0,0.0,0.0,0.0,0.0,0.0,0.0,0.0,0.0,0.0,0.0,0.0,0.0,0.0,0.0,0.0,0.0,0.0,0.0,0.0,0.0,0.0,0.0,0.0,0.0,0.0,0.0,0.0,0.0,0.0,0.0,0.0,0.0,0.0,0.0,0.0,0.0,0.0,0.0,0.0,0.0,0.0,0.0,0.0,0.0,0.0,0.0,0.0,0.0,0.0,0.0,0.0,0.0,0.0,0.0,0.0,0.0,0.0,0.0,0.0,0.0,0.0,0.0,0.0,0.0,0.0,0.0,0.0,0.0,0.0,0.0,0.0,0.0,0.0,0.0,0.0,0.0,0.0,0.0,0.0,0.0,0.0,0.0,0.0,0.0,0.0,0.0,0.0,0.0,0.0,0.0,0.0,0.0,0.0,0.0,0.0,2.0811,2.4985,2.6254,2.636,2.537,2.411,2.256,0.0,0.0,0.0,0.0,0.0,0.0,0.0,0.0,0.0,0.0,0.0,0.0,0.0,0.0,0.0,0.0,0.0,0.0,0.0,0.0,0.0,0.0,0.0,0.0,0.0,0.0,0.0,0.0,0.0,0.0,0.0,0.0,0.0,0.0,0.0,0.0,0.0,0.0,0.0,0.0,0.0,0.0,0.0,0.0,0.0,0.0,0.0,0.0,0.0,0.0,0.0,0.0,0.0,0.0,0.0,0.0,0.0,0.0,0.0,0.0,0.0,0.0,0.0,0.0,0.0,0.0,0.0,0.0,0.0,0.0,0.0,0.0,0.0,0.0,0.0,0.0,0.0,0.0,0.0,0.0,0.0,0.0,0.0,0.0,0.0,0.0,0.0,0.0,0.0,0.0,0.0,0.0,0.0,0.0,0.0,0.0,0.0,0.0,0.0,0.0,0.0,0.0,0.0,0.0,0.0,0.0,0.0,0.0,0.0,2.2707,2.4197,2.5948,2.7701,2.4167,2.3232,0.0,0.0,0.0,0.0,0.0,0.0,0.0,0.0,0.0,0.0,0.0,0.0,0.0,0.0,0.0,0.0,0.0,0.0,0.0,0.0,0.0,0.0,0.0,0.0,0.0,0.0,0.0,0.0,0.0,0.0,0.0,0.0,0.0,0.0,0.0,0.0,0.0,0.0,0.0,0.0,0.0,0.0,0.0,0.0,0.0,0.0,0.0,0.0,0.0,0.0,0.0,0.0,0.0,0.0,0.0,0.0,0.0,0.0,0.0,0.0,0.0,0.0,0.0,0.0,0.0,0.0,0.0,0.0,0.0,0.0,0.0,0.0,0.0,0.0,0.0,0.0,0.0,0.0,0.0,0.0,0.0,0.0,0.0,0.0,0.0,0.0,0.0,0.0,0.0,0.0,0.0,0.0,0.0,0.0,0.0,0.0,0.0,0.0,0.0,0.0,0.0,0.0,0.0,0.0,0.0,0.0,0.0,0.0,0.0,2.4005,2.5563,2.6987,2.8145,2.4735,2.3715,2.5348,0.0,0.0,0.0,0.0,0.0,0.0,0.0,0.0,0.0,0.0,0.0,0.0,0.0,0.0,0.0,0.0,0.0,0.0,0.0,0.0,0.0,0.0,0.0,0.0,0.0,0.0,0.0,0.0,0.0,0.0,0.0,0.0,0.0,0.0,0.0,0.0,0.0,0.0,0.0,0.0,0.0,0.0,0.0,0.0,0.0,0.0,0.0,0.0,0.0,0.0,0.0,0.0,0.0,0.0,0.0,0.0,0.0,0.0,0.0,0.0,0.0,0.0,0.0,0.0,0.0,0.0,0.0,0.0,0.0,0.0,0.0,0.0,0.0,0.0,0.0,0.0,0.0,0.0,0.0,0.0,0.0,0.0,0.0,0.0,0.0,0.0,0.0,0.0,0.0,0.0,0.0,0.0,0.0,0.0,0.0,0.0,0.0,0.0,0.0,0.0,0.0,0.0,0.0,0.0,0.0,0.0,0.0,0.0,2.7948,2.9794,2.9583,2.7208,2.5986,2.4274,0.0,0.0,0.0,0.0,0.0,0.0,0.0,0.0,0.0,0.0,0.0,0.0,0.0,0.0,0.0,0.0,0.0,0.0,0.0,0.0,0.0,0.0,0.0,0.0,0.0,0.0,0.0,0.0,0.0,0.0,0.0,0.0,0.0,0.0,0.0,0.0,0.0,0.0,0.0,0.0,0.0,0.0,0.0,0.0,0.0,0.0,0.0,0.0,0.0,0.0,0.0,0.0,0.0,0.0,0.0,0.0,0.0,0.0,0.0,0.0,0.0,0.0,0.0,0.0,0.0,0.0,0.0,0.0,0.0,0.0,0.0,0.0,0.0,0.0,0.0,0.0,0.0,0.0,0.0,0.0,0.0,0.0,0.0,0.0,0.0,0.0,0.0,0.0,0.0,0.0,0.0,0.0,0.0,0.0,0.0,0.0,0.0,0.0,0.0,0.0,0.0,0.0,0.0,0.0,0.0,0.0,0.0,0.0,0.0,2.8909,3.2872,3.4148,3.2212,2.8335,2.6266,0.0,0.0,0.0,0.0,0.0,0.0,0.0,0.0,0.0,0.0,0.0,0.0,0.0,0.0,0.0,0.0,0.0,0.0,0.0,0.0,0.0,0.0,0.0,0.0,0.0,0.0,0.0,0.0,0.0,0.0,0.0,0.0,0.0,0.0,0.0,0.0,0.0,0.0,0.0,0.0,0.0,0.0,0.0,0.0,0.0,0.0,0.0,0.0,0.0,0.0,0.0,0.0,0.0,0.0,0.0,0.0,0.0,0.0,0.0,0.0,0.0,0.0,0.0,0.0,0.0,0.0,0.0,0.0,0.0,0.0,0.0,0.0,0.0,0.0,0.0,0.0,0.0,0.0,0.0,0.0,0.0,0.0,0.0,0.0,0.0,0.0,0.0,0.0,0.0,0.0,0.0,0.0,0.0,0.0,0.0,0.0,0.0,0.0,0.0,0.0,0.0,0.0,0.0,0.0,0.0,0.0,0.0,0.0,2.9987,3.0737,3.5334,3.6964,3.529,3.1723,2.8835,0.0,0.0,0.0,0.0,0.0,0.0,0.0,0.0,0.0,0.0,0.0,0.0,0.0,0.0,0.0,0.0,0.0,0.0,0.0,0.0,0.0,0.0,0.0,0.0,0.0,0.0,0.0,0.0,0.0,0.0,0.0,0.0,0.0,0.0,0.0,0.0,0.0,0.0,0.0,0.0,0.0,0.0,0.0,0.0,0.0,0.0,0.0,0.0,0.0,0.0,0.0,0.0,0.0,0.0,0.0,0.0,0.0,0.0,0.0,0.0,0.0,0.0,0.0,0.0,0.0,0.0,0.0,0.0,0.0,0.0,0.0,0.0,0.0,0.0,0.0,0.0,0.0,0.0,0.0,0.0,0.0,0.0,0.0,0.0,0.0,0.0,0.0,0.0,0.0,0.0,0.0,0.0,0.0,0.0,0.0,0.0,0.0,0.0,0.0,0.0,0.0,0.0,0.0,0.0,0.0,0.0,0.0,0.0,3.1314,3.2891,3.7007,3.8334,3.6622,3.4853,3.1314,0.0,0.0,0.0,0.0,0.0,0.0,0.0,0.0,0.0,0.0,0.0,0.0,0.0,0.0,0.0,0.0,0.0,0.0,0.0,0.0,0.0,0.0,0.0,0.0,0.0,0.0,0.0,0.0,0.0,0.0,0.0,0.0,0.0,0.0,0.0,0.0,0.0,0.0,0.0,0.0,0.0,0.0,0.0,0.0,0.0,0.0,0.0,0.0,0.0,0.0,0.0,0.0,0.0,0.0,0.0,0.0,0.0,0.0,0.0,0.0,0.0,0.0,0.0,0.0,0.0,0.0,0.0,0.0,0.0,0.0,0.0,0.0,0.0,0.0,0.0,0.0,0.0,0.0,0.0,0.0,0.0,0.0,0.0,0.0,0.0,0.0,0.0,0.0,0.0,0.0,0.0,0.0,0.0,0.0,0.0,0.0,0.0,0.0,0.0,0.0,0.0,0.0,0.0,0.0,0.0,0.0,0.0,0.0,3.1891,3.2929,3.6411,3.7469,3.5782,3.3468,3.0698,0.0,0.0,0.0,0.0,0.0,0.0,0.0,0.0,0.0,0.0,0.0,0.0,0.0,0.0,0.0,0.0,0.0,0.0,0.0,0.0,0.0,0.0,0.0,0.0,0.0,0.0,0.0,0.0,0.0,0.0,0.0,0.0,0.0,0.0,0.0,0.0,0.0,0.0,0.0,0.0,0.0,0.0,0.0,0.0,0.0,0.0,0.0,0.0,2.5038,0.0,0.0,0.0,0.0,0.0,0.0,0.0,0.0,0.0,0.0,0.0,0.0,0.0,0.0,0.0,0.0,0.0,0.0,0.0,0.0,0.0,0.0,0.0,0.0,0.0,0.0,0.0,0.0,0.0,0.0,0.0,0.0,0.0,0.0,0.0,0.0,0.0,0.0,0.0,0.0,0.0,0.0,0.0,0.0,0.0,0.0,0.0,0.0,0.0,0.0,0.0,0.0,0.0,0.0,0.0,0.0,0.0,0.0,0.0,3.2102,3.2949,3.6257,3.7199,3.5507,3.3026,3.0314,0.0,0.0,0.0,0.0,0.0,0.0,0.0,0.0,0.0,0.0,0.0,0.0,0.0,0.0,0.0,0.0,0.0,0.0,0.0,0.0,0.0,0.0,0.0,0.0,0.0,0.0,0.0,0.0,0.0,0.0,0.0,0.0,0.0,0.0,0.0,0.0,0.0,0.0,0.0,0.0,0.0,0.0,0.0,0.0,0.0,0.0,0.0,0.0,0.0,0.0,0.0,0.0,0.0,0.0,0.0,0.0,0.0,0.0,0.0,0.0,0.0,0.0,0.0,0.0,0.0,0.0,0.0,0.0,0.0,0.0,0.0,0.0,0.0,0.0,0.0,0.0,0.0,0.0,0.0,0.0,0.0,0.0,0.0,0.0,0.0,0.0,0.0,0.0,0.0,0.0,0.0,0.0,0.0,0.0,0.0,0.0,0.0,0.0,0.0,0.0,0.0,0.0,0.0,0.0,0.0,0.0,0.0,2.941,3.1833,3.2949,3.5738,3.6526,3.5122,3.2622,2.9833,2.6755,0.0,0.0,0.0,0.0,0.0,0.0,0.0,0.0,0.0,0.0,0.0,0.0,0.0,0.0,0.0,0.0,0.0,0.0,0.0,0.0,0.0,0.0,0.0,0.0,0.0,0.0,0.0,0.0,0.0,0.0,0.0,0.0,0.0,0.0,0.0,0.0,0.0,0.0,2.4658,2.5,0.0,0.0,0.0,0.0,0.0,0.0,0.0,0.0,2.4839,0.0,0.0,0.0,0.0,0.0,0.0,0.0,0.0,0.0,0.0,0.0,0.0,0.0,0.0,0.0,0.0,0.0,0.0,0.0,0.0,0.0,0.0,0.0,0.0,0.0,0.0,0.0,0.0,0.0,0.0,0.0,0.0,0.0,0.0,0.0,0.0,0.0,0.0,0.0,0.0,0.0,0.0,0.0,0.0,0.0,0.0,0.0,0.0,0.0,0.0,0.0,0.0,0.0,0.0,0.0,0.0,2.7428,2.8832,3.0621,3.2833,3.3449,3.3603,3.3276,3.0852,2.8602,2.6659,0.0,0.0,0.0,0.0,0.0,0.0,0.0,0.0,0.0,0.0,0.0,0.0,0.0,0.0,0.0,0.0,0.0,0.0,0.0,0.0,0.0,0.0,0.0,0.0,0.0,0.0,0.0,0.0,0.0,0.0,0.0,0.0,0.0,0.0,0.0,0.0,0.0,0.0,0.0,2.4945,2.531,0.0,0.0,0.0,0.0,0.0,0.0,0.0,0.0,2.4223,0.0,0.0,0.0,0.0,0.0,0.0,0.0,0.0,0.0,0.0,0.0,0.0,0.0,0.0,0.0,0.0,0.0,0.0,0.0,0.0,0.0,0.0,0.0,0.0,0.0,0.0,0.0,0.0,0.0,0.0,0.0,0.0,0.0,0.0,0.0,0.0,0.0,0.0,0.0,0.0,0.0,0.0,0.0,0.0,0.0,0.0,0.0,0.0,0.0,0.0,0.0,0.0,0.0,0.0,0.0,2.6505,2.8217,2.989,3.1564,3.2449,3.2487,3.1602,2.914,2.7217,0.0,0.0,0.0,0.0,0.0,0.0,0.0,0.0,0.0,0.0,0.0,0.0,0.0,0.0,0.0,0.0,0.0,0.0,0.0,0.0,0.0,0.0,0.0,0.0,0.0,0.0,0.0,0.0,0.0,0.0,0.0,0.0,0.0,0.0,0.0,0.0,0.0,0.0,0.0,0.0,2.5164,2.5565,2.4351,0.0,0.0,0.0,0.0,0.0,0.0,2.4418,2.4282,0.0,0.0,0.0,0.0,0.0,0.0,0.0,0.0,0.0,0.0,0.0,0.0,0.0,0.0,0.0,0.0,0.0,0.0,0.0,0.0,0.0,0.0,0.0,0.0,0.0,0.0,0.0,0.0,0.0,0.0,0.0,0.0,0.0,0.0,0.0,0.0,0.0,0.0,0.0,0.0,0.0,0.0,0.0,0.0,0.0,0.0,0.0,0.0,0.0,0.0,0.0,0.0,0.0,0.0,0.0,2.5322,2.7497,2.9036,2.991,3.1198,3.1256,2.991,2.7428,2.5851,0.0,0.0,0.0,0.0,0.0,0.0,0.0,0.0,0.0,0.0,0.0,0.0,0.0,0.0,0.0,0.0,0.0,0.0,0.0,0.0,0.0,0.0,0.0,0.0,0.0,0.0,0.0,0.0,0.0,0.0,0.0,0.0,0.0,0.0,0.0,0.0,0.0,0.0,0.0,0.0,0.0,2.5855,2.4927,2.545,0.0,0.0,0.0,0.0,2.443,2.4561,0.0,0.0,0.0,0.0,0.0,0.0,0.0,0.0,0.0,0.0,0.0,0.0,0.0,0.0,0.0,0.0,0.0,0.0,0.0,0.0,0.0,0.0,0.0,0.0,0.0,0.0,0.0,0.0,0.0,0.0,0.0,0.0,0.0,0.0,0.0,0.0,0.0,0.0,0.0,0.0,0.0,0.0,0.0,0.0,0.0,0.0,0.0,0.0,0.0,0.0,0.0,0.0,0.0,0.0,0.0,0.0,2.5351,2.6429,2.7372,2.817,2.839,2.8371,2.814,2.5717,2.4678,0.0,0.0,0.0,0.0,0.0,0.0,0.0,0.0,0.0,0.0,0.0,0.0,0.0,0.0,0.0,0.0,0.0,0.0,0.0,0.0,0.0,0.0,0.0,0.0,0.0,0.0,0.0,0.0,0.0,0.0,0.0,0.0,0.0,0.0,0.0,0.0,0.0,0.0,0.0,0.0,0.0,2.6293,2.498,2.5317,2.5374,0.0,0.0,2.4467,2.5164,2.5144,0.0,0.0,0.0,0.0,0.0,0.0,0.0,0.0,0.0,0.0,0.0,0.0,0.0,0.0,0.0,0.0,0.0,0.0,0.0,0.0,0.0,0.0,0.0,0.0,0.0,0.0,0.0,0.0,0.0,0.0,0.0,0.0,0.0,0.0,0.0,0.0,0.0,0.0,0.0,0.0,0.0,0.0,0.0,0.0,0.0,0.0,0.0,0.0,0.0,0.0,0.0,0.0,0.0,0.0,0.0,2.2863,2.4032,2.5309,2.6391,2.7199,2.767,2.7428,2.6447,2.3947,2.2977,0.0,0.0,0.0,0.0,0.0,0.0,0.0,0.0,0.0,0.0,0.0,0.0,0.0,0.0,0.0,0.0,0.0,0.0,0.0,0.0,0.0,0.0,0.0,0.0,0.0,0.0,0.0,0.0,0.0,0.0,0.0,0.0,0.0,0.0,0.0,0.0,0.0,0.0,0.0,0.0,0.0,0.0,2.4984,2.5702,0.0,0.0,0.0,2.5077,2.4815,0.0,0.0,0.0,0.0,0.0,0.0,0.0,0.0,0.0,0.0,0.0,0.0,0.0,0.0,0.0,0.0,0.0,0.0,0.0,0.0,0.0,0.0,0.0,0.0,0.0,0.0,0.0,0.0,0.0,0.0,0.0,0.0,0.0,0.0,0.0,0.0,0.0,0.0,0.0,0.0,0.0,0.0,0.0,0.0,0.0,0.0,0.0,0.0,0.0,0.0,0.0,0.0,0.0,0.0,0.0,0.0,0.0,2.3046,2.44,2.5513,2.6343,2.6939,2.6524,2.5024,2.2543,0.0,0.0,0.0,0.0,0.0,0.0,0.0,0.0,0.0,0.0,0.0,0.0,0.0,0.0,0.0,0.0,0.0,0.0,0.0,0.0,0.0,0.0,0.0,0.0,0.0,0.0,0.0,2.4305,0.0,0.0,0.0,0.0,0.0,0.0,0.0,0.0,0.0,0.0,0.0,0.0,0.0,0.0,2.6394,2.5197,2.5999,2.6068,0.0,0.0,2.5042,2.402,2.4541,2.4629,0.0,0.0,0.0,0.0,0.0,0.0,0.0,0.0,0.0,0.0,0.0,0.0,0.0,0.0,0.0,0.0,0.0,0.0,0.0,0.0,0.0,0.0,0.0,0.0,0.0,0.0,0.0,0.0,0.0,0.0,0.0,0.0,0.0,0.0,0.0,0.0,0.0,0.0,0.0,0.0,0.0,0.0,0.0,0.0,0.0,0.0,0.0,0.0,0.0,0.0,0.0,0.0,0.0,0.0,0.0,2.3085,2.3871,2.4671,2.5457,2.5486,2.5063,2.4187,2.1696,2.0746,0.0,0.0,0.0,0.0,0.0,0.0,0.0,0.0,0.0,0.0,0.0,0.0,0.0,0.0,0.0,0.0,0.0,0.0,0.0,0.0,0.0,0.0,0.0,0.0,0.0,0.0,0.0,0.0,0.0,0.0,0.0,0.0,0.0,0.0,0.0,0.0,0.0,0.0,0.0,0.0,0.0,2.6384,2.5733,2.5927,2.5832,0.0,0.0,2.365,2.2833,2.3384,2.34,2.1883,0.0,0.0,0.0,0.0,0.0,0.0,0.0,0.0,0.0,0.0,0.0,0.0,0.0,0.0,0.0,0.0,0.0,0.0,0.0,0.0,0.0,0.0,0.0,0.0,0.0,0.0,0.0,0.0,0.0,0.0,0.0,0.0,0.0,0.0,0.0,0.0,0.0,0.0,0.0,0.0,0.0,0.0,0.0,0.0,0.0,0.0,0.0,0.0,0.0,0.0,0.0,0.0,0.0,2.1115,2.3047,2.2812,2.3567,2.5361,2.539,2.4697,2.3321,2.1364,2.0159,0.0,0.0,0.0,0.0,0.0,0.0,0.0,0.0,0.0,0.0,0.0,0.0,0.0,0.0,0.0,0.0,0.0,0.0,0.0,0.0,0.0,0.0,0.0,0.0,0.0,0.0,0.0,0.0,2.3139,2.3415,2.3362,0.0,0.0,0.0,0.0,0.0,0.0,0.0,0.0,0.0,0.0,2.5028,2.4449,2.4753,0.0,0.0,2.3708,2.3684,2.2485,2.2932,2.2876,2.1274,2.0817,0.0,0.0,0.0,0.0,0.0,0.0,0.0,0.0,0.0,0.0,0.0,0.0,0.0,0.0,0.0,0.0,0.0,0.0,0.0,0.0,0.0,0.0,0.0,0.0,0.0,0.0,0.0,0.0,0.0,0.0,0.0,0.0,0.0,0.0,0.0,0.0,0.0,0.0,0.0,0.0,0.0,0.0,0.0,0.0,0.0,0.0,0.0,0.0,0.0,0.0,0.0,0.0,2.0627,2.3072,2.2421,2.3178,2.544,2.5216,2.4312,2.2812,2.0933,1.9586,0.0,0.0,0.0,0.0,0.0,0.0,0.0,0.0,0.0,0.0,0.0,0.0,0.0,0.0,0.0,0.0,0.0,0.0,0.0,0.0,0.0,0.0,0.0,0.0,0.0,0.0,0.0,0.0,2.3191,2.3518,2.3839,0.0,0.0,0.0,0.0,0.0,0.0,0.0,0.0,0.0,0.0,2.4214,2.368,2.3876,2.3588,2.2212,2.2529,2.2492,2.129,2.1439,2.1289,2.0093,0.0,0.0,0.0,0.0,0.0,0.0,0.0,0.0,0.0,0.0,0.0,0.0,0.0,0.0,0.0,0.0,0.0,0.0,0.0,0.0,0.0,0.0,0.0,0.0,0.0,0.0,0.0,0.0,0.0,0.0,1.9519,0.0,0.0,0.0,0.0,0.0,0.0,0.0,0.0,0.0,0.0,0.0,0.0,0.0,0.0,0.0,0.0,0.0,0.0,0.0,0.0,0.0,0.0,2.1041,2.3054,2.2959,2.3769,2.5406,2.4672,2.3783,2.2754,2.0365,1.9004,1.895,0.0,0.0,0.0,0.0,0.0,0.0,0.0,0.0,0.0,0.0,0.0,0.0,0.0,0.0,0.0,0.0,0.0,0.0,0.0,0.0,0.0,0.0,0.0,0.0,0.0,0.0,2.4136,2.3582,2.3266,0.0,0.0,0.0,0.0,0.0,0.0,0.0,0.0,0.0,0.0,2.4037,2.4235,2.3806,2.3506,2.2908,2.194,2.0646,1.9528,1.897,1.8535,1.8198,0.0,0.0,0.0,0.0,0.0,0.0,0.0,0.0,0.0,0.0,0.0,0.0,0.0,0.0,0.0,0.0,0.0,0.0,0.0,0.0,0.0,0.0,0.0,0.0,0.0,0.0,0.0,0.8362,1.1136,0.0,0.0,0.0,0.0,0.0,0.0,0.0,0.0,0.0,0.0,0.0,1.8193,1.8203,0.0,0.0,0.0,0.0,0.0,0.0,0.0,0.0,0.0,0.0,0.0,0.0,2.0231,2.269,2.236,2.2949,2.4563,2.4406,2.3531,2.1966,2.0035,1.8482,1.7388,0.0,0.0,0.0,0.0,0.0,0.0,0.0,0.0,0.0,0.0,0.0,0.0,0.0,0.0,0.0,0.0,0.0,0.0,0.0,0.0,0.0,0.0,0.0,0.0,0.0,2.4266,0.0,0.0,0.0,0.0,0.0,0.0,0.0,0.0,0.0,0.0,0.0,2.3485,2.3034,2.2721,2.2362,2.1866,2.1485,2.076,0.0,0.0,0.0,0.0,0.0,0.0,0.0,0.0,0.0,0.0,0.0,0.0,0.0,0.0,2.0165,1.8256,1.802,1.8387,1.9164,0.0,0.0,0.0,0.0,0.0,0.0,0.0,0.0,0.0,0.0,0.0,0.0,0.0,0.0,0.5063,0.0,1.2647,0.0,0.0,0.0,0.0,0.0,0.0,0.0,0.0,1.8118,1.7882,1.7433,1.7407,1.7223,0.0,1.7229,1.7208,0.0,0.0,0.0,0.0,0.0,0.0,0.0,0.0,1.9688,2.1993,2.2094,2.263,2.3678,2.3799,2.3097,2.1523,1.9879,1.8363,1.6978,1.801,1.8919,0.0,0.0,0.0,0.0,0.0,0.0,0.0,0.0,0.0,0.0,0.0,0.0,0.0,0.0,0.0,0.0,0.0,0.0,0.0,0.0,0.0,0.0,0.0,2.4132,0.0,0.0,0.0,0.0,0.0,0.0,0.0,0.0,0.0,2.3617,2.3404,2.307,2.2638,2.2018,2.1357,2.0685,0.0,0.0,0.0,0.0,0.0,0.0,0.0,1.5624,1.5262,1.5324,1.5476,1.556,1.6672,1.765,1.7845,0.0,0.0,1.8104,1.808,1.85,1.9495,1.943,1.9661,2.1091,2.0842,2.0502,0.0,0.0,0.0,0.0,0.0,0.0,0.0,0.0,-0.2222,0.176,0.0,1.0991,0.0,0.0,0.0,0.0,0.0,0.0,0.0,0.0,1.6584,1.626,1.5434,1.6093,1.5645,1.4335,1.5887,1.6025,1.4887,1.5064,0.0,0.0,0.0,0.0,0.0,0.0,1.9462,2.1009,2.2186,2.2805,2.2912,2.2946,2.2477,2.1389,1.9877,1.8631,1.7802,1.9258,2.0246,2.0418,2.27,0.0,0.0,0.0,0.0,0.0,0.0,0.0,0.0,0.0,0.0,0.0,0.0,0.0,0.0,0.0,0.0,0.0,0.0,0.0,0.0,2.3538,0.0,0.0,0.0,0.0,0.0,0.0,0.0,0.0,0.0,0.0,2.2976,2.2803,2.2582,2.2332,0.0,0.0,0.0,0.0,1.7988,1.657,1.5855,1.5262,1.4744,1.4652,1.4663,1.4606,0.0,0.0,1.5846,1.5531,1.5426,1.595,1.6187,1.7051,2.0025,1.9876,1.9786,2.0351,2.0039,2.0026,2.0517,2.0345,2.0093,-1.7587,0.0,0.0,0.0,0.0,-1.4042,-1.1707,-0.8706,-0.494,-0.0967,0.3215,0.8794,0.0,0.0,0.0,0.0,0.0,0.0,1.6079,1.4187,1.5082,1.4965,1.4004,1.4667,1.4559,1.3762,1.4607,1.4242,1.2888,1.3054,1.3979,1.5538,0.0,0.0,0.0,0.0,1.9414,2.1204,2.2009,2.2522,2.2832,2.2333,2.1317,1.9761,1.9865,1.923,1.7764,1.8182,1.9064,2.0332,2.1085,0.0,0.0,0.0,0.0,0.0,0.0,0.0,0.0,0.0,0.0,0.0,0.0,0.0,0.0,0.0,0.0,0.0,0.0,0.0,2.3692,2.0431,1.9773,0.0,0.0,0.0,0.0,0.0,0.0,0.0,0.0,0.0,2.2068,2.2163,2.2235,0.0,0.0,2.0091,1.9859,1.8259,1.6599,1.5374,0.0,0.0,0.0,1.343,1.342,1.343,1.4002,1.4601,1.5057,1.5698,1.6158,1.636,1.6787,1.7458,1.8242,1.8187,1.8111,1.8561,1.8967,1.9572,2.0401,2.0514,2.0605,-1.6396,-1.6875,-1.6915,-1.636,-1.534,-1.4332,-1.2754,-1.0698,-0.7739,-0.4182,0.0031,0.6356,1.1452,1.5479,1.7742,0.0,0.0,0.0,1.3135,1.2047,1.285,1.312,1.2944,1.3364,1.3361,1.3103,1.3615,1.3192,1.1926,1.2244,1.2999,1.4126,0.0,0.0,1.5661,1.7298,1.8819,2.0228,2.1469,2.1977,2.1725,2.1336,2.0627,1.9577,2.0031,1.9807,1.8789,1.8727,1.9242,2.0323,2.1046,2.1768,0.0,0.0,0.0,0.0,0.0,0.0,0.0,0.0,0.0,0.0,0.0,2.4173,2.3919,0.0,0.0,0.0,2.323,2.1842,1.8981,1.8707,0.0,0.0,0.0,0.0,0.0,0.0,0.0,2.2678,2.2463,2.2051,2.145,2.152,2.1635,2.1606,2.0423,1.9455,1.9027,0.0,1.5652,1.4532,1.3831,1.3324,1.2968,1.2891,1.2978,1.3105,1.3665,1.4243,1.4753,1.5525,1.6016,1.6151,1.6415,1.6743,1.6743,1.6753,1.7156,1.7977,1.891,1.9851,2.0742,2.1313,2.1744,-1.5448,-1.5566,-1.6551,-1.6272,-1.5175,-1.4563,-1.3254,-1.1518,-1.0275,-0.7329,-0.2841,0.3724,0.9927,1.5544,1.6605,0.0,0.0,1.1246,0.9507,0.9773,1.0113,1.0863,1.1838,1.1884,1.1989,1.2176,1.273,1.2508,1.1734,1.2217,1.2407,1.2204,1.2281,1.3279,1.5186,1.6803,1.7892,1.8546,2.0643,2.1177,2.0143,2.0227,2.0292,2.0285,2.0292,2.0292,2.0292,2.0285,2.0292,2.035,2.1965,2.254,2.1842,0.0,0.0,0.0,0.0,0.0,0.0,0.0,0.0,0.0,0.0,0.0,0.0,0.0,0.0,0.0,2.3021,0.0,1.268,1.8487,0.0,0.0,0.0,2.2811,2.3105,2.2634,2.2415,2.2634,0.0,0.0,0.0,0.0,2.0846,2.0797,1.9958,1.9009,1.7949,1.6392,1.4971,1.4014,1.333,1.29,1.2949,1.292,1.3037,1.3467,1.3866,1.4294,1.4772,1.5137,1.54,1.5468,1.5352,1.5332,1.5361,1.5887,1.6711,1.782,1.916,2.0272,2.0783,2.1666,2.2402,-1.6626,-1.7087,-1.6705,-1.5762,-1.4484,-1.3786,-1.276,-1.1497,-0.999,-0.734,-0.3761,0.0876,0.8197,1.7014,1.2931,1.0035,0.8173,0.8024,0.7129,0.5883,0.7744,0.8751,0.8884,0.9322,0.9759,1.0186,1.069,1.0815,1.0718,1.153,1.1683,1.1294,1.195,1.3087,1.4675,1.5842,1.7197,1.8785,1.9646,2.0088,2.0106,2.0216,2.0292,2.0292,2.0292,2.0292,2.0292,2.0292,2.0292,2.0312,2.139,2.1948,2.181,2.3515,0.0,0.0,0.0,0.0,0.0,0.0,0.0,0.0,0.0,2.3987,2.3482,0.0,2.284,0.0,2.248,2.1729,2.0131,2.1695,0.0,0.0,2.2733,2.2654,2.2525,2.2377,2.2321,2.2388,2.2027,2.1579,2.1066,2.0374,1.9621,1.8855,1.8168,1.7703,1.746,1.5579,1.4215,1.4122,1.3431,1.3047,1.3192,1.3076,1.3075,1.3867,1.4001,1.4374,1.5098,1.5332,1.542,1.5362,1.4911,1.4681,1.4839,1.4879,1.4974,1.5659,1.7034,1.8544,1.9386,1.9878,2.0288,-1.7368,-1.7654,-1.6778,-1.5895,-1.5037,-1.4292,-1.335,-1.2149,-1.0409,-0.8317,-0.5831,-0.0502,0.5896,1.2277,0.8766,0.6642,0.5764,0.4692,0.3799,0.3304,0.5189,0.6548,0.7432,0.7784,0.8374,0.9159,0.951,0.9754,0.9799,1.0414,1.0832,1.1038,1.1557,1.2631,1.4194,1.5426,1.661,1.7649,1.9108,2.0308,2.1165,2.1143,2.1217,2.1424,2.0696,2.0458,2.0804,2.0504,2.0504,2.0924,2.183,2.2161,2.1851,2.3605,2.2773,0.0,0.0,0.0,0.0,0.0,0.0,0.0,0.0,0.0,0.0,0.0,2.2755,0.0,2.2327,0.0,2.25,2.2579,2.262,2.2517,2.2518,2.2474,2.2327,2.2327,2.2225,2.1986,2.1764,2.129,2.0485,1.9652,1.8684,1.7437,1.6316,1.5612,1.5578,1.4178,1.3027,1.2817,1.2466,1.2204,1.2286,1.225,1.2359,1.275,1.3115,1.3493,1.3962,1.4212,1.4335,1.4296,1.3992,1.364,1.3632,1.3688,1.3698,1.3794,1.4955,1.6519,1.8023,1.8949,1.9688,-1.8045,-1.8031,-1.7129,-1.6618,-1.6392,-1.5684,-1.4487,-1.2916,-1.1079,-0.9569,-0.7976,-0.1408,0.273,0.4743,0.4109,0.4115,0.4417,0.1394,0.0577,0.1635,0.3055,0.4803,0.6645,0.682,0.7453,0.848,0.8826,0.9039,0.9142,0.9436,1.0111,1.1039,1.1149,1.1902,1.3423,1.4988,1.5913,1.6231,1.8955,2.1003,2.2369,2.2151,2.2257,2.2639,2.1163,2.0631,2.1312,2.0688,2.067,2.1506,2.252,2.2732,2.2011,2.3982,2.4495,0.0,2.396,0.0,0.0,0.0,0.0,0.0,0.0,0.0,0.0,2.33,2.2875,2.2321,2.2327,2.2327,2.2327,2.2327,2.2327,2.2327,2.2327,2.2327,2.2327,2.2254,2.2061,2.1642,2.1444,2.0847,1.9667,1.8817,1.7746,1.6187,1.453,1.3424,1.3174,1.2553,1.187,1.098,1.1151,1.1375,1.1056,1.1137,1.1361,1.1469,1.2012,1.2333,1.2514,1.2848,1.3042,1.3014,1.2931,1.2679,1.221,1.2599,1.2716,1.2374,1.328,1.474,1.6595,1.8132,1.9362,-1.9234,-1.975,-1.8918,-1.8468,-1.8229,-1.7613,-1.5582,-1.262,-1.1376,-0.9646,-0.7451,-0.3978,-0.27,-0.2954,-0.1595,-0.1773,-0.2979,-0.0928,0.0133,0.0442,0.3196,0.4622,0.4947,0.5905,0.667,0.7349,0.8098,0.8699,0.909,0.978,1.0163,1.0389,1.0722,1.1048,1.1449,0.0,0.0,0.0,1.925,2.0834,2.1424,2.1526,2.1624,2.1812,2.0907,0.0,2.06,2.0465,2.0449,2.0687,2.2163,0.0,0.0,0.0,0.0,0.0,0.0,0.0,0.0,0.0,0.0,0.0,2.4265,2.3978,2.3346,2.2773,2.2415,2.231,2.2327,2.2327,2.2327,2.2327,2.2327,2.2327,2.2327,2.2327,2.2282,2.1957,2.1688,2.1612,2.0668,1.9688,1.8825,1.765,1.6132,1.4448,1.2946,1.1791,1.104,1.125,1.139,1.1361,1.1325,1.1218,1.0871,1.0785,1.1027,1.1605,1.1892,1.2091,1.2414,1.2676,1.2842,1.266,1.2295,1.2012,1.1945,1.198,1.1981,1.193,1.2655,1.3657,1.5078,1.6138,1.7028,-1.9926,0.0,-1.9426,-1.9049,0.0,-1.8021,-1.6503,-1.4518,-1.277,-1.0498,-0.7888,-0.6355,-0.5479,-0.5076,-0.3855,-0.3416,-0.349,-0.1692,0.0089,0.1825,0.3394,0.4284,0.4574,0.5157,0.5968,0.6898,0.7516,0.8132,0.8771,0.9286,0.9668,1.0011,1.0226,1.0466,1.0813,1.2377,1.4627,1.7563,1.9378,2.0941,2.2245,2.2953,2.3326,2.3311,0.0,0.0,0.0,0.0,0.0,0.0,0.0,0.0,0.0,0.0,0.0,2.3969,2.4191,2.4303,2.4209,2.419,2.419,2.419,2.3896,2.3548,2.3212,2.2781,2.2453,2.231,2.2327,2.2327,2.2327,2.2327,2.2327,2.2327,2.2327,2.2209,2.1974,2.1748,2.1321,2.0668,2.0028,1.9126,1.7704,1.6325,1.4913,1.3398,1.178,1.0463,0.979,1.0071,1.0531,1.0587,1.034,1.0053,0.9874,0.9978,1.0195,1.0681,1.0799,1.0923,1.1286,1.1468,1.149,1.1361,1.1261,1.1231,1.1255,1.1204,1.125,1.1338,1.1904,1.2552,1.3372,1.466,1.5933,-2.0287,-2.0241,-1.96,-1.923,-1.9049,-1.8222,-1.7432,-1.6609,0.0,0.0,0.0,-0.845,-0.7242,-0.5602,-0.481,-0.3672,-0.2313,-0.1738,0.0133,0.2957,0.3411,0.3934,0.4536,0.4629,0.5283,0.6455,0.6901,0.7443,0.8018,0.8293,0.8679,0.9183,0.9347,0.9755,1.0493,1.2184,1.4539,1.7383,1.9043,2.0795,2.2758,2.411,2.4783,2.478,2.3732,2.3398,2.3864,2.3324,2.3212,2.365,2.3877,2.3851,2.3568,2.419,2.421,2.3503,2.3897,2.419,2.419,2.419,2.419,2.419,2.3692,2.3323,2.3212,2.2865,2.2537,2.2338,2.2327,2.2327,2.2327,2.2327,2.2265,2.2192,2.2152,2.1991,2.1552,2.1321,2.0717,1.9667,1.9163,1.824,1.6163,1.4901,1.3636,1.2203,1.0598,0.9307,0.8679,0.8793,0.9108,0.9124,0.8796,0.8434,0.8619,0.8803,0.9098,0.9583,0.9667,0.9735,0.9938,1.0012,1.0032,1.0174,1.0335,1.0423,1.0396,1.0478,1.051,1.0483,1.0995,1.1527,1.1787,1.3351,1.4908,-2.0306,-2.028,-2.0176,-1.9775,-1.9199,-1.9506,-1.8655,-1.6857,-1.4178,-1.2291,-1.0998,-0.9874,-0.8916,-0.7966,-0.5697,-0.4504,-0.4113,-0.1507,0.0044,0.0,0.2635,0.3753,0.4037,0.4497,0.4867,0.5202,0.594,0.6396,0.6524,0.6797,0.6961,0.7122,0.7532,0.8215,0.9103,1.0444,1.2137,1.4249,1.7515,1.9638,2.0488,2.1994,2.3081,2.3602,2.3279,2.3049,2.3139,2.3088,2.292,2.2806,2.3505,2.3719,2.334,2.4053,2.4374,2.4081,2.4135,2.419,2.419,2.419,2.419,2.4208,2.4094,2.3816,2.3253,2.2686,2.2349,2.2327,2.231,2.2327,2.2327,2.2282,2.2106,2.1764,2.1694,2.1528,2.1086,2.0369,1.9602,1.8751,1.7598,1.6181,1.4473,1.3445,1.2057,0.9964,0.9022,0.8442,0.7555,0.7165,0.7202,0.7362,0.7157,0.7203,0.7729,0.7907,0.8354,0.9141,0.9266,0.9401,0.9694,0.9733,0.9764,0.9744,0.9986,0.9979,0.9619,0.9846,1.0067,1.0,1.0282,1.0527,1.0822,1.1978,1.3108,-2.0598,-2.0308,-2.0291,-2.0115,-1.9825,-1.9935,-1.9235,-1.7879,-1.6044,-1.4278,-1.2683,-1.1561,-1.0568,-0.9562,-0.733,-0.5513,-0.4022,-0.2592,-0.1241,0.0045,0.1138,0.2405,0.3691,0.4207,0.4521,0.4707,0.5474,0.5995,0.6385,0.6538,0.6588,0.6642,0.7252,0.7961,0.8824,0.9755,1.0679,1.1599,1.5393,1.8216,1.9846,2.17,2.3051,2.3862,2.4041,2.4168,2.4246,2.4282,2.4151,2.3801,2.4166,2.4178,2.3785,2.4136,2.4303,2.4209,2.419,2.419,2.419,2.419,2.419,2.419,2.4036,2.3714,2.3236,2.2958,2.2721,2.2527,2.2388,2.2327,2.2282,2.2077,2.1823,2.1628,2.1401,2.0991,2.0317,1.9551,1.8631,1.7531,1.6198,1.4812,1.3361,1.1941,1.0605,0.886,0.7862,0.6791,0.628,0.5813,0.5861,0.6815,0.6834,0.6771,0.7074,0.7456,0.7943,0.8577,0.8811,0.9098,0.9336,0.9453,0.9432,0.9462,0.9711,0.9845,0.9673,0.9913,1.008,1.0221,1.0241,1.0428,1.0681,1.1114,1.2055,-2.0755,-2.0188,-2.0215,-2.0266,-2.0292,-2.0124,-1.9594,-1.8786,-1.7843,-1.6402,-1.4564,-1.3124,-1.1955,-1.0919,-0.8832,-0.6689,-0.4749,-0.3949,-0.2663,-0.0961,-0.0331,0.0932,0.2702,0.3365,0.3943,0.4484,0.5054,0.5609,0.6105,0.6105,0.6159,0.6209,0.6853,0.7634,0.8463,0.9022,0.9547,1.0195,1.334,1.6316,1.8867,2.1309,2.3004,2.3939,2.4681,2.5118,2.5182,2.5271,2.513,2.476,2.4731,2.4559,2.4228,2.419,2.419,2.419,2.419,2.419,2.419,2.419,2.419,2.419,2.3896,2.3588,2.3346,2.3165,2.2947,2.2652,2.2398,2.2254,2.2106,2.1827,2.1538,2.1336,2.0958,2.0254,1.9368,1.8584,1.757,1.6145,1.4868,1.3621,1.2203,1.0555,0.912,0.7979,0.644,0.5336,0.5254,0.4805,0.5154,0.5975,0.6295,0.6164,0.6312,0.6794,0.7361,0.795,0.8352,0.8754,0.9121,0.9273,0.9312,0.9422,0.9653,0.9813,0.9987,1.0,1.0107,1.0287,1.0307,1.0354,1.0591,1.0631,1.1261,-2.0587,-1.9915,-1.9974,-2.0145,-2.0282,-2.0214,-1.975,-1.9106,-1.8767,-1.8074,-1.6814,-1.4245,-1.2805,-1.1872,-0.958,-0.8177,-0.7508,-0.5047,-0.3765,-0.3229,-0.134,-0.0102,0.0524,0.1535,0.2866,0.4236,0.4539,0.465,0.4695,0.475,0.4691,0.4791,0.5382,0.6376,0.7447,0.7794,0.881,1.0661,1.1594,1.3443,1.6278,1.9704,2.2013,2.3012,2.432,2.4962,2.4874,2.4968,2.4872,2.4559,2.4545,2.4426,2.4228,2.419,2.419,2.419,2.419,2.419,2.419,2.419,2.419,2.417,2.3896,2.3671,2.3588,2.3093,2.2652,2.2415,2.231,2.2106,2.1718,2.1587,2.1229,2.0523,1.9995,1.9291,1.8268,1.7231,1.6127,1.4936,1.3663,1.2241,1.0487,0.9275,0.8032,0.6426,0.5477,0.4739,0.4802,0.4688,0.4522,0.4772,0.4739,0.5011,0.5492,0.5647,0.6322,0.7387,0.7759,0.8232,0.8951,0.9262,0.9295,0.9595,0.9854,0.9893,0.9833,0.974,0.9866,1.0167,1.014,0.998,1.0456,1.0618,1.1067,-2.1164,-2.0476,-2.0047,-1.9964,-2.0062,-2.0076,-1.9902,-1.9636,-1.9726,-1.9324,-1.8508,-1.6959,-1.5595,-1.4239,-1.1833,-1.0418,-0.9609,-0.7001,-0.5148,-0.408,-0.3034,-0.1724,-0.0053,0.0487,0.1156,0.2006,0.3641,0.4036,0.3408,0.4027,0.4473,0.4574,0.5164,0.6159,0.7339,0.758,0.8554,1.0167,1.1173,1.2807,1.5152,1.8281,2.0916,2.2764,2.3879,2.4542,2.4771,2.4855,2.4752,2.4528,2.4512,2.441,2.4209,2.419,2.419,2.419,2.419,2.419,2.419,2.419,2.4113,2.3935,2.3795,2.3544,2.3141,2.2848,2.2616,2.2349,2.2032,2.1794,2.1598,2.1134,2.0571,1.9919,1.9163,1.8242,1.7175,1.604,1.4846,1.3674,1.2396,1.0981,0.9334,0.7894,0.6574,0.5305,0.4737,0.4591,0.4584,0.4519,0.4519,0.4463,0.4463,0.457,0.4893,0.5273,0.576,0.6293,0.6763,0.7481,0.8239,0.8427,0.8569,0.9426,0.9635,0.9767,0.9953,0.9947,1.002,1.0207,1.0334,1.0356,1.0584,1.0618,1.0766,-2.1677,-2.0723,-1.9879,-1.9668,-1.9878,-1.9892,-1.9954,-2.0072,-2.0502,-2.0399,-1.9858,-1.9351,-1.8248,-1.6493,-1.3956,-1.2219,-1.0992,-0.8746,-0.6774,-0.5112,-0.4529,-0.3156,-0.1278,-0.0,-0.0,-0.0,0.3084,0.3479,0.2065,0.3635,0.4477,0.4577,0.5003,0.5882,0.7052,0.7359,0.829,1.0005,1.104,1.2436,1.4541,1.6943,1.9518,2.2099,2.3279,2.4026,2.447,2.4636,2.4623,2.4426,2.4428,2.4357,2.4209,2.419,2.419,2.419,2.419,2.419,2.419,2.4132,2.3976,2.3732,2.3566,2.323,2.2797,2.2652,2.2429,2.2118,2.1705,2.143,2.1368,2.0634,1.9859,1.9204,1.8205,1.7137,1.6013,1.4858,1.3721,1.2619,1.1173,0.9622,0.8106,0.6534,0.5163,0.4106,0.407,0.4465,0.4508,0.4535,0.4463,0.4463,0.4463,0.4519,0.4515,0.4842,0.5214,0.5534,0.6067,0.6573,0.7415,0.7678,0.8086,0.9168,0.9336,0.9693,1.0087,1.0227,1.0154,1.0361,1.0544,1.0584,1.0618,1.0618,1.0694,-2.1899,-2.0209,-1.9251,-1.9199,-1.9794,-1.9715,-1.9838,-2.0108,-2.1055,-2.1216,-2.0929,-2.0781,-2.005,-1.8708,-1.5622,-1.3305,-1.1822,-0.9948,-0.8338,-0.6989,-0.5337,-0.4419,-0.4118,-0.0,-0.0,-0.0,0.3147,0.3035,0.0502,0.3077,0.449,0.4477,0.4632,0.5281,0.648,0.6756,0.8053,1.0399,1.0805,1.2046,1.437,1.5672,1.7713,2.0527,2.2412,2.3404,2.3785,2.4247,2.4392,2.4228,2.4209,2.419,2.419,2.4208,2.419,2.419,2.4208,2.419,2.4151,2.3896,2.3692,2.3606,2.3117,2.2746,2.2643,2.2419,2.2101,2.1688,2.1275,2.1023,2.0878,2.0147,1.9203,1.8129,1.7116,1.6013,1.4836,1.3645,1.2638,1.1738,1.0061,0.8271,0.6386,0.5191,0.3863,0.289,0.274,0.3514,0.4455,0.4578,0.4511,0.4522,0.4525,0.4522,0.4519,0.4625,0.4893,0.516,0.5496,0.5909,0.6905,0.7835,0.8358,0.9028,0.9519,0.9984,1.0319,1.0381,1.0227,1.0301,1.0468,1.0598,1.0618,1.0618,1.0624,-2.1381,-1.982,-1.902,-1.8806,-1.9022,-1.9281,-1.9793,-2.0604,-2.1769,-2.2395,-2.2553,-2.2636,-2.1776,-2.0154,-1.8227,-1.588,-1.3249,-1.0903,-0.9118,-0.7753,-0.6423,-0.54,-0.4423,-0.3287,-0.0614,0.2693,0.3946,0.2972,0.0613,0.3014,0.4484,0.4588,0.4956,0.5655,0.6529,0.7079,0.8488,1.0551,1.0813,1.1877,1.3903,1.4778,1.62,1.8355,2.077,2.2451,2.3302,2.3538,2.3741,2.3876,2.3876,2.3876,2.3896,2.4094,2.419,2.417,2.3996,2.3873,2.3847,2.358,2.33,2.3069,2.2848,2.2582,2.2436,2.2101,2.1764,2.1538,2.0943,2.0467,2.0043,1.9513,1.8544,1.7147,1.5894,1.4869,1.3999,1.2586,1.1408,1.0855,0.8985,0.7079,0.6128,0.4467,0.2473,0.1252,0.1746,0.3101,0.4179,0.4532,0.4463,0.448,0.4597,0.4632,0.4519,0.4519,0.4625,0.4736,0.5022,0.5421,0.621,0.6658,0.7155,0.855,0.9322,0.9985,1.025,1.0494,1.0341,1.0381,1.0598,1.0604,1.0618,1.0618,1.0618,-2.1259,-2.0197,-1.9381,-1.885,-1.8685,-1.938,-1.9923,-2.0569,-2.2167,-2.3077,-2.3396,-2.3818,-2.3075,-2.1422,-2.0085,-1.7856,-1.4803,-1.2222,-0.9966,-0.8151,-0.7233,-0.6013,-0.4652,-0.4477,-0.19,0.2579,0.411,0.3363,0.1895,0.3516,0.4421,0.4532,0.5171,0.5869,0.6583,0.7348,0.8705,1.0407,1.0813,1.1715,1.3341,1.4043,1.4924,1.6405,1.8651,2.0776,2.2401,2.2818,2.3171,2.3482,2.3544,2.3606,2.3714,2.4016,2.419,2.417,2.3896,2.3714,2.3636,2.3289,2.2947,2.2721,2.2459,2.2248,2.2061,2.1675,2.1368,2.1102,2.0518,1.9798,1.8898,1.8152,1.7217,1.5915,1.4676,1.3643,1.2859,1.1429,1.0261,0.9252,0.7694,0.6455,0.578,0.4241,0.2886,0.1575,0.2424,0.3462,0.4225,0.4484,0.4463,0.447,0.4591,0.4597,0.4543,0.4519,0.4519,0.4629,0.4684,0.5039,0.5425,0.5787,0.661,0.7963,0.8986,0.9636,1.0161,1.0508,1.0618,1.0618,1.0618,1.0611,1.0618,1.0618,1.0555,-2.1468,-2.111,-2.0348,-1.9327,-1.8761,-1.9926,-2.0132,-2.0079,-2.2205,-2.3193,-2.3281,-2.4219,-2.3844,-2.251,-2.0933,-1.8833,-1.6492,-1.3928,-1.1172,-0.8622,-0.7769,-0.6133,-0.3934,-0.3938,-0.2347,0.0947,0.3244,0.4438,0.4317,0.4477,0.4639,0.475,0.5386,0.614,0.6642,0.7498,0.8758,1.0297,1.0762,1.1475,1.2764,1.3457,1.41,1.4789,1.6363,1.8424,2.0994,2.1976,2.2599,2.2992,2.3124,2.3328,2.3649,2.3937,2.4152,2.4058,2.384,2.3692,2.3573,2.3023,2.2695,2.2512,2.2034,2.1702,2.1598,2.1181,2.0748,2.0366,1.9793,1.8962,1.7397,1.6263,1.5318,1.4518,1.3459,1.2276,1.1234,1.0246,0.8967,0.7272,0.6218,0.5529,0.4856,0.4352,0.4038,0.4086,0.4263,0.4428,0.4497,0.4467,0.4463,0.4522,0.457,0.4545,0.456,0.4522,0.4522,0.4522,0.4577,0.473,0.5163,0.5587,0.6593,0.7944,0.9482,1.0145,1.0296,1.0618,1.0618,1.0618,1.0618,1.0555,1.0485,1.0478,1.0548,-2.0661,-2.0279,-1.9512,-1.9021,-1.8833,-1.9715,-2.0089,-2.0384,-2.2045,-2.2996,-2.3523,-2.4064,-2.4141,-2.3573,-2.2058,-2.0226,-1.8287,-1.5586,-1.2612,-0.9883,-0.8626,-0.5653,-0.2085,-0.1386,0.0167,0.2788,0.3971,0.4871,0.5368,0.5297,0.5559,0.6396,0.6815,0.7122,0.7343,0.8103,0.9099,1.0012,1.0568,1.1275,1.2138,1.2842,1.3447,1.4054,1.4924,1.6145,1.7713,1.9793,2.1047,2.1462,2.2105,2.2737,2.3236,2.3477,2.3494,2.3484,2.3195,2.3012,2.2978,2.2634,2.2237,2.1977,2.1685,2.146,2.115,2.0452,1.9958,1.9702,1.8931,1.7699,1.6228,1.5157,1.4227,1.3401,1.2168,1.1239,1.0648,0.9658,0.8094,0.6347,0.5714,0.5003,0.3907,0.3629,0.4044,0.4621,0.4667,0.4591,0.4536,0.4463,0.4463,0.4519,0.4521,0.4551,0.456,0.4587,0.4592,0.4587,0.4598,0.4543,0.4965,0.5868,0.6848,0.8129,0.9618,1.0382,1.0541,1.0618,1.0618,1.0618,1.0618,1.0485,1.0338,1.0338,1.0478,-2.0442,-2.002,-1.9749,-1.9247,-1.892,-1.978,-2.0195,-2.0373,-2.1604,-2.2539,-2.3102,-2.3712,-2.3956,-2.3864,-2.3125,-2.1439,-1.918,-1.722,-1.4572,-1.0753,-0.6691,-0.3366,0.0111,0.1664,0.3272,0.5124,0.5352,0.5665,0.6285,0.6211,0.6493,0.7186,0.7749,0.7899,0.7818,0.8523,0.9238,0.9836,1.0466,1.1116,1.1774,1.251,1.3065,1.3494,1.4089,1.4665,1.5374,1.7036,1.857,1.9808,2.0969,2.1792,2.2243,2.2513,2.2709,2.2653,2.2443,2.2231,2.2215,2.193,2.1598,2.1164,2.0927,2.0652,2.0135,1.9309,1.8693,1.8349,1.7372,1.6166,1.4818,1.3755,1.2892,1.2106,1.1073,1.0187,0.9688,0.839,0.7121,0.5751,0.5281,0.4615,0.3901,0.3682,0.39,0.4614,0.466,0.4518,0.4546,0.4463,0.4463,0.447,0.4563,0.457,0.4549,0.4579,0.4711,0.468,0.4626,0.4626,0.4741,0.6091,0.73,0.8776,1.0268,1.0465,1.0618,1.0618,1.0618,1.0618,1.0618,1.0548,1.0478,1.0485,1.0555,-2.0682,-2.0348,-2.0715,-1.9995,-1.9057,-2.0255,-2.0321,-1.9814,-2.1089,-2.1864,-2.2229,-2.3014,-2.3361,-2.3379,-2.3508,-2.2103,-1.9601,-1.8675,-1.5157,-0.9904,-0.4291,0.0053,0.1867,0.4262,0.5937,0.7095,0.6707,0.6793,0.7205,0.714,0.7203,0.7475,0.8189,0.8393,0.8154,0.8764,0.9288,0.9643,1.0415,1.1116,1.1715,1.2501,1.2929,1.2968,1.36,1.3946,1.3971,1.4437,1.5752,1.8163,1.9642,2.0287,2.0607,2.1236,2.1433,2.1468,2.144,2.1246,2.1211,2.089,2.0473,1.9875,1.9521,1.92,1.848,1.7571,1.6806,1.643,1.5452,1.4419,1.3365,1.2439,1.1455,1.0665,0.9962,0.9136,0.7747,0.645,0.5784,0.5428,0.4923,0.4494,0.4399,0.4555,0.4559,0.4579,0.4663,0.4596,0.456,0.4463,0.4463,0.4539,0.457,0.4611,0.4562,0.4748,0.4917,0.5284,0.5148,0.505,0.5182,0.6533,0.8,0.9444,1.0358,1.0491,1.0618,1.0618,1.0618,1.0618,1.0618,1.0618,1.0555,1.0548,1.0548,-2.0227,-1.9859,-1.998,-1.9818,-1.9557,-2.0215,-2.0135,-1.9771,-2.0719,-2.1144,-2.1292,-2.1798,-2.2205,-2.2506,-2.2304,-2.1759,-2.0434,-1.895,-1.2099,-0.3544,-0.1252,0.3128,0.6187,0.6563,0.7106,0.8094,0.7427,0.7203,0.8183,0.8122,0.8217,0.8621,0.8883,0.897,0.8857,0.8903,0.8944,0.9225,1.0269,1.088,1.1292,1.2304,1.2881,1.2929,1.3162,1.32,1.319,1.3589,1.4913,1.7037,1.7639,1.8068,1.8462,1.8744,1.9051,1.9375,1.936,1.9277,1.9272,1.92,1.8731,1.7887,1.7685,1.721,1.6283,1.5622,1.4956,1.4387,1.3671,1.297,1.2032,1.1527,1.0726,0.9277,0.8851,0.8082,0.6763,0.6013,0.5534,0.5002,0.4744,0.468,0.4646,0.4653,0.4707,0.4674,0.4635,0.4633,0.4507,0.4463,0.4463,0.4563,0.4604,0.4606,0.4701,0.4897,0.5218,0.5787,0.5851,0.5818,0.6236,0.7186,0.8684,1.0129,1.0415,1.0555,1.0618,1.0618,1.0618,1.0618,1.0618,1.0555,1.0415,1.0338,1.0408,-1.9222,-1.9043,-1.9006,-1.9043,-1.908,-1.9543,-1.9579,-1.95,-1.9849,-2.0335,-2.049,-2.0236,-2.0477,-2.0939,-2.0605,-1.9427,-1.7932,-1.5391,-0.8543,0.0177,0.5144,0.8216,0.9731,0.858,0.8502,0.9372,0.8776,0.8811,0.9319,0.9452,0.9542,0.9462,0.9694,0.9701,0.9362,0.9279,0.9378,0.9792,1.0574,1.1147,1.1567,1.2389,1.2832,1.2891,1.2891,1.2891,1.2978,1.3238,1.4242,1.5647,1.622,1.6434,1.6712,1.6942,1.7209,1.7584,1.7564,1.7477,1.7221,1.7143,1.6634,1.5758,1.5524,1.5229,1.449,1.3852,1.329,1.2964,1.234,1.1639,1.1145,1.0984,1.0069,0.8543,0.8021,0.737,0.6023,0.5576,0.5242,0.4865,0.4735,0.4724,0.4765,0.4731,0.4691,0.4707,0.4596,0.4562,0.4536,0.4525,0.4522,0.4612,0.4688,0.4761,0.4924,0.5053,0.5677,0.6271,0.713,0.6958,0.7259,0.7958,0.9013,1.0129,1.0408,1.0618,1.0618,1.0618,1.0618,1.0618,1.0618,1.0555,1.0415,1.0338,1.0408,-1.8092,-1.8092,-1.8092,-1.8092,-1.821,-1.8535,-1.875,-1.8803,-1.875,-1.9207,-1.9602,-1.871,-1.8608,-1.8939,-1.8654,-1.6685,-1.3152,-0.9825,-0.3322,0.4349,1.078,1.4564,1.1728,1.0563,1.0479,1.0981,1.0956,1.0653,1.068,1.1072,1.0716,1.0263,1.0504,1.0386,1.0052,0.9896,1.0229,1.0652,1.1088,1.1593,1.2082,1.2613,1.29,1.2891,1.2891,1.2891,1.2891,1.3027,1.3457,1.4468,1.4959,1.5138,1.5248,1.5695,1.5942,1.5954,1.5936,1.5656,1.5175,1.5022,1.4474,1.3558,1.3511,1.3362,1.284,1.2362,1.2023,1.1769,1.1057,1.0798,1.0691,1.0604,0.9844,0.8522,0.7906,0.7269,0.617,0.5222,0.4725,0.4894,0.4769,0.4802,0.483,0.4823,0.4758,0.4838,0.4697,0.4622,0.4556,0.4522,0.4625,0.4794,0.4847,0.4919,0.5106,0.5254,0.61,0.6892,0.8182,0.8529,0.8391,0.8914,0.9532,1.0129,1.0478,1.0618,1.0618,1.0618,1.0618,1.0618,1.0618,1.0618,1.0555,1.0485,1.0485,-1.8092,-1.8092,-1.8092,-1.8092,-1.8052,-1.7733,-1.7813,-1.821,-1.7733,-1.7944,-1.8271,-1.7743,-1.7183,-1.6863,-1.6599,-1.5546,-1.1996,-0.564,0.278,1.2962,1.6873,1.7575,1.5069,1.3155,1.2493,1.2648,1.1499,1.1351,1.1926,1.1662,1.1231,1.1042,1.1012,1.112,1.0911,1.0632,1.0593,1.0941,1.1396,1.182,1.2131,1.2615,1.2891,1.2891,1.2891,1.2891,1.2891,1.2891,1.3017,1.3238,1.3467,1.3674,1.3721,1.3758,1.4007,1.4215,1.4063,1.3748,1.3351,1.2988,1.2454,1.1639,1.1669,1.1581,1.0977,1.106,1.076,1.0429,1.0203,1.0329,1.0544,1.0618,0.999,0.911,0.8762,0.8137,0.6612,0.5395,0.4913,0.4809,0.483,0.4884,0.4921,0.4914,0.4891,0.4958,0.4831,0.4663,0.464,0.4636,0.4901,0.5167,0.547,0.5628,0.593,0.6284,0.7063,0.7714,0.8788,0.9579,0.9427,0.9455,0.9858,1.0233,1.0548,1.0611,1.0528,1.0618,1.0618,1.0618,1.0618,1.0618,1.0618,1.0618,1.0618,-1.6481,-1.6494,-1.6481,-1.6481,-1.6481,-1.6456,-1.6583,-1.6793,-1.6583,-1.6738,-1.6905,-1.6145,-1.5377,-1.4852,-1.3643,-1.1914,-0.8045,-0.0354,0.8954,1.6875,1.9777,1.935,1.8375,1.6678,1.5781,1.4699,1.3052,1.2764,1.289,1.2702,1.2295,1.1721,1.161,1.1509,1.1461,1.1234,1.1347,1.1738,1.1937,1.2163,1.2626,1.2753,1.2891,1.2891,1.2891,1.2891,1.2891,1.2891,1.2988,1.3076,1.2998,1.2891,1.2891,1.2881,1.2949,1.2793,1.2695,1.2086,1.1586,1.1184,1.0756,1.0007,1.0173,1.0195,1.0072,1.0158,1.0231,1.0127,1.014,1.0234,1.0514,1.0618,1.0174,0.9518,0.9116,0.8323,0.7021,0.5981,0.5221,0.5016,0.4918,0.5009,0.505,0.514,0.4969,0.4952,0.4914,0.4805,0.5135,0.5187,0.5504,0.5808,0.6117,0.6471,0.6809,0.7399,0.8274,0.8794,0.9391,0.9816,0.9819,0.9879,0.9992,1.0212,1.0414,1.0488,1.0481,1.0514,1.0618,1.0618,1.0618,1.0618,1.0618,1.0618,1.0618,-1.4709,-1.4698,-1.4596,-1.4596,-1.4732,-1.498,-1.5136,-1.5227,-1.5239,-1.5381,-1.5453,-1.4207,-1.3596,-1.2588,-1.0705,-0.7731,-0.2381,0.4755,1.335,1.827,2.0238,2.0252,1.9792,1.9313,1.8535,1.6287,1.4767,1.4266,1.416,1.3852,1.3233,1.2613,1.2104,1.2121,1.2025,1.1778,1.1931,1.2588,1.2501,1.2605,1.307,1.3018,1.29,1.2891,1.2891,1.2891,1.2891,1.291,1.3027,1.3359,1.3066,1.2949,1.2959,1.2891,1.2666,1.208,1.2116,1.169,1.1029,1.0335,0.9829,0.9078,0.9213,0.9502,0.9737,0.9971,1.0214,1.0329,1.0388,1.0307,1.0521,1.0618,1.0238,0.9703,0.918,0.8488,0.7623,0.6914,0.6377,0.5703,0.577,0.5926,0.5687,0.5568,0.5251,0.5047,0.5005,0.5024,0.5414,0.587,0.6285,0.6644,0.7007,0.7567,0.7993,0.8062,0.9024,0.9578,1.0009,1.0024,1.014,1.0074,1.0074,1.014,1.0247,1.0361,1.0474,1.0528,1.0618,1.0618,1.0618,1.0618,1.0618,1.0618,1.0618,-1.4709,-1.4675,-1.408,-1.4169,-1.4505,-1.3712,-1.3537,-1.3964,-1.4007,-1.3778,-1.3309,-1.3012,-1.1862,-1.0382,-0.9344,-0.4983,0.1529,0.829,1.336,1.7163,1.9465,2.0876,2.0745,2.0753,2.0284,1.9443,1.7509,1.6056,1.5568,1.463,1.4186,1.3984,1.3258,1.2959,1.3126,1.2969,1.2691,1.2962,1.2897,1.2998,1.2968,1.2959,1.2891,1.2891,1.2891,1.291,1.291,1.29,1.292,1.2978,1.2959,1.3086,1.3281,1.3135,1.2851,1.2603,1.2351,1.205,1.1704,1.0867,1.0476,1.0338,0.9988,0.9771,0.9987,1.0227,1.0347,1.0454,1.0514,1.0494,1.0604,1.0618,1.0555,1.0351,1.011,0.9662,0.8681,0.816,0.7778,0.7106,0.7043,0.6897,0.6556,0.6245,0.6089,0.5935,0.5908,0.594,0.6217,0.6758,0.737,0.7648,0.797,0.8606,0.9227,0.9156,0.9506,1.0009,1.0319,1.0194,1.02,1.0114,1.0094,1.012,1.0261,1.0428,1.0571,1.0611,1.0618,1.0618,1.0618,1.0618,1.0618,1.0618,1.0618,-1.3752,-1.3684,-1.3017,-1.2885,-1.3032,-1.258,-1.2233,-1.225,-1.2589,-1.2366,-1.1751,-1.1297,-1.0245,-0.8559,-0.6912,-0.2532,0.3603,0.8184,1.2456,1.5816,1.8912,2.1281,2.1758,2.2074,2.2032,2.1457,1.9875,1.8344,1.7571,1.5985,1.5363,1.5207,1.4411,1.4025,1.4154,1.3988,1.3647,1.3467,1.3382,1.32,1.292,1.2929,1.2929,1.2939,1.2959,1.2988,1.3145,1.2949,1.3252,1.3613,1.3242,1.3437,1.3701,1.3572,1.308,1.2805,1.2742,1.2608,1.2484,1.1611,1.1193,1.0861,1.0523,1.0217,1.016,1.0227,1.0414,1.0521,1.0618,1.0618,1.0618,1.0618,1.0618,1.0555,1.0478,1.0079,0.9579,0.9395,0.8949,0.8428,0.7822,0.7491,0.7418,0.7164,0.6936,0.6852,0.6778,0.688,0.7041,0.7688,0.8356,0.8663,0.8868,0.9214,0.9807,0.9833,0.9843,1.0301,1.0534,1.0408,1.0389,1.0262,1.0188,1.0127,1.0294,1.0461,1.0584,1.0618,1.0618,1.0618,1.0618,1.0618,1.0618,1.0618,1.0618,-1.2618,-1.2412,-1.1693,-1.1495,-1.1557,-1.1443,-1.1082,-1.0813,-1.1358,-1.1048,-1.0195,-0.9644,-0.8619,-0.6622,-0.3788,-0.0054,0.4889,0.7936,1.182,1.5245,1.8045,2.0433,2.2342,2.3354,2.3157,2.2805,2.2168,2.1035,1.9002,1.733,1.6709,1.6194,1.5431,1.488,1.4835,1.4652,1.4376,1.4143,1.3956,1.3695,1.3372,1.3025,1.2997,1.3045,1.2987,1.3067,1.3369,1.3223,1.3574,1.3945,1.3838,1.3652,1.4443,1.4131,1.3556,1.3141,1.3218,1.3094,1.2949,1.244,1.2114,1.1922,1.1435,1.0975,1.0597,1.0472,1.0341,1.0501,1.0618,1.0618,1.0618,1.0618,1.0618,1.0555,1.0395,1.0177,1.0043,0.9946,0.9866,0.9234,0.8466,0.8105,0.809,0.8094,0.7857,0.7495,0.7414,0.7802,0.8066,0.871,0.9344,0.9586,0.9813,0.9873,1.0174,1.0281,1.0255,1.0428,1.0548,1.0481,1.0441,1.045,1.0321,1.0261,1.0287,1.0441,1.0501,1.0618,1.0618,1.0618,1.0618,1.0618,1.0618,1.0618,1.0618,-1.1566,-1.0998,-1.0344,-1.0376,-1.0805,-1.0311,-1.0,-0.9961,-1.0559,-0.9784,-0.8171,-0.8364,-0.7158,-0.4324,-0.0436,0.3103,0.6293,0.9256,1.194,1.4529,1.6926,1.9105,2.0788,2.1844,2.2975,2.3335,2.3378,2.2025,2.0239,1.8535,1.7531,1.7137,1.6255,1.5452,1.5576,1.5309,1.4709,1.4606,1.456,1.4514,1.4261,1.3523,1.3412,1.3433,1.329,1.3222,1.3519,1.3459,1.374,1.4131,1.4068,1.4238,1.4678,1.4727,1.4873,1.4714,1.4518,1.4155,1.4153,1.3608,1.3197,1.3151,1.2772,1.2198,1.1502,1.094,1.0662,1.0528,1.0618,1.0618,1.0618,1.0618,1.0618,1.0555,1.0541,1.0345,1.0247,1.0267,1.0199,1.0179,0.9352,0.9047,0.8871,0.8851,0.8768,0.8393,0.8164,0.8551,0.8989,0.9612,0.9933,1.0104,1.0186,1.0301,1.0321,1.0454,1.0564,1.0618,1.0611,1.0534,1.0508,1.0551,1.0571,1.0461,1.0454,1.0441,1.0514,1.0618,1.0618,1.0618,1.0618,1.0618,1.0618,1.0618,1.0618,-1.0712,-1.0754,-1.0113,-0.9984,-1.0108,-0.9487,-0.8962,-0.8712,-0.8829,-0.8022,-0.6592,-0.6264,-0.4671,-0.1597,0.1928,0.428,0.6362,0.9213,1.1824,1.3844,1.6065,1.8196,2.0305,2.1455,2.2496,2.3339,2.3712,2.3389,2.1665,2.0219,1.9019,1.846,1.7531,1.6831,1.6591,1.6318,1.5796,1.5353,1.4926,1.4709,1.4606,1.4411,1.4272,1.4283,1.382,1.3769,1.3861,1.3608,1.3867,1.4277,1.4307,1.4346,1.4668,1.4785,1.4883,1.4971,1.498,1.4932,1.4963,1.461,1.4401,1.3947,1.3364,1.249,1.1935,1.1531,1.1233,1.1288,1.0863,1.0618,1.0618,1.0618,1.0618,1.0618,1.0618,1.0501,1.0388,1.0436,1.0443,1.043,1.0334,0.9868,0.9564,0.9525,0.9592,0.9472,0.9334,0.956,0.9838,1.0153,1.0365,1.0408,1.0434,1.0481,1.0474,1.0514,1.0584,1.0618,1.0624,1.0611,1.0618,1.0611,1.064,1.0661,1.0584,1.0584,1.0618,1.0618,1.0618,1.0618,1.0618,1.0618,1.0618,1.0618,1.0628,-0.954,-0.9938,-0.9496,-0.919,-0.8967,-0.8429,-0.7913,-0.7444,-0.7186,-0.6416,-0.5054,-0.3739,-0.1542,0.0828,0.3416,0.5429,0.6744,0.8903,1.1477,1.3813,1.5581,1.746,1.9375,2.0763,2.189,2.3064,2.3888,2.3865,2.3271,2.2064,2.0763,1.998,1.914,1.8369,1.7826,1.7545,1.7151,1.6378,1.5443,1.5231,1.532,1.5062,1.4915,1.4755,1.4488,1.4254,1.4435,1.4053,1.421,1.4521,1.4502,1.4521,1.4746,1.4795,1.4893,1.499,1.5078,1.5166,1.5273,1.5187,1.5032,1.4468,1.3749,1.302,1.2251,1.202,1.1593,1.1351,1.0926,1.0624,1.0618,1.0618,1.0618,1.0618,1.0618,1.0618,1.0611,1.062,1.058,1.0497,1.0401,1.0341,1.0131,1.0186,1.0252,1.0388,1.0504,1.0494,1.0528,1.0618,1.0598,1.0551,1.0571,1.0604,1.0667,1.0667,1.0681,1.0807,1.0807,1.0863,1.0982,1.0968,1.0939,1.0864,1.085,1.0737,1.0737,1.0681,1.0618,1.0618,1.0618,1.0618,1.0618,1.0624,1.0728,-0.7877,-0.7931,-0.7895,-0.7461,-0.6902,-0.6761,-0.6707,-0.6411,-0.5887,-0.512,-0.375,-0.1043,0.1319,0.3075,0.4667,0.6775,0.9291,1.0245,1.2147,1.4003,1.5452,1.6658,1.83,1.969,2.1026,2.2349,2.3512,2.4194,2.4272,2.3541,2.2219,2.1048,2.0432,1.968,1.898,1.8489,1.8168,1.7369,1.6336,1.6145,1.6096,1.5604,1.4846,1.5241,1.4755,1.4387,1.4996,1.4509,1.4358,1.4745,1.4625,1.4482,1.4541,1.4727,1.4883,1.4971,1.5059,1.5176,1.5342,1.541,1.5342,1.5099,1.456,1.3786,1.3,1.2197,1.1593,1.1108,1.0933,1.0744,1.0681,1.0618,1.0618,1.0856,1.0912,1.0905,1.0912,1.0863,1.0766,1.062,1.058,1.0774,1.0901,1.0974,1.0527,1.054,1.0463,1.0454,1.0528,1.0618,1.0681,1.073,1.073,1.0744,1.0737,1.0926,1.1358,1.1476,1.1476,1.16,1.1655,1.1606,1.1524,1.1414,1.1406,1.1163,1.0982,1.1233,1.1233,1.0744,1.0681,1.1115,1.1283,1.1318,1.1258,-0.7176,-0.6357,-0.6367,-0.619,-0.5901,-0.5928,-0.5374,-0.4645,-0.4316,-0.3212,-0.155,0.116,0.2984,0.4191,0.5562,0.7441,0.957,1.046,1.2192,1.3679,1.4858,1.5804,1.7196,1.8658,2.0081,2.1515,2.293,2.4088,2.4451,2.43,2.3943,2.2923,2.1687,2.0544,1.9806,1.9134,1.8631,1.8064,1.7231,1.6967,1.687,1.6378,1.5772,1.5983,1.5463,1.5164,1.529,1.4709,1.4539,1.4511,1.4453,1.4282,1.4228,1.4512,1.4697,1.4795,1.4883,1.5195,1.5342,1.5352,1.5167,1.4805,1.4688,1.4569,1.3726,1.3,1.252,1.1973,1.1178,1.094,1.1288,1.0919,1.0737,1.1149,1.1322,1.1315,1.1329,1.1351,1.1476,1.1564,1.1549,1.1581,1.1738,1.1892,1.1177,1.0636,1.0492,1.0483,1.071,1.0933,1.1122,1.1303,1.1303,1.16,1.1663,1.1903,1.2151,1.2205,1.2205,1.232,1.2435,1.2504,1.2456,1.2258,1.2143,1.2143,1.2089,1.2089,1.1911,1.1476,1.1732,1.2174,1.2173,1.1984,1.1983,-0.647,-0.5483,-0.5046,-0.4871,-0.486,-0.4875,-0.4158,-0.3049,-0.25,-0.1111,0.1111,0.3051,0.4378,0.5307,0.6617,0.8212,0.9813,1.0738,1.2181,1.3548,1.4641,1.5398,1.6608,1.8004,1.9565,2.0784,2.215,2.3345,2.4395,2.4806,2.4542,2.3814,2.2824,2.179,2.0655,1.9637,1.8933,1.8669,1.7973,1.7706,1.7666,1.6883,1.6557,1.6416,1.566,1.5402,1.5383,1.5065,1.4537,1.4395,1.4287,1.3967,1.3929,1.4062,1.4336,1.4482,1.4727,1.5205,1.5226,1.5284,1.5108,1.4923,1.505,1.4874,1.4273,1.3674,1.3252,1.2834,1.1926,1.156,1.2135,1.1759,1.1658,1.2135,1.2166,1.2166,1.2189,1.2212,1.2397,1.2626,1.244,1.2216,1.2371,1.2454,1.2186,1.1487,1.12,1.1363,1.1718,1.1836,1.1864,1.205,1.2166,1.2466,1.2826,1.2757,1.2757,1.3045,1.3045,1.3036,1.3158,1.3295,1.3122,1.2757,1.2757,1.3122,1.3122,1.294,1.2634,1.2266,1.2581,1.2903,1.2696,1.2575,1.2883,-0.5538,-0.5324,-0.4003,-0.3398,-0.334,-0.3453,-0.2952,-0.1949,-0.0723,0.1056,0.3056,0.4641,0.5738,0.6627,0.7818,0.9176,1.0348,1.0855,1.2132,1.3982,1.4606,1.5421,1.6604,1.7903,1.9082,2.0125,2.1524,2.2911,2.4026,2.4678,2.4734,2.4536,2.3776,2.3111,2.1973,2.044,1.9904,1.9939,1.876,1.8521,1.8302,1.7354,1.705,1.6832,1.5792,1.5558,1.573,1.5292,1.4788,1.4499,1.4328,1.3972,1.37,1.3978,1.417,1.4155,1.4602,1.4873,1.4878,1.5177,1.5284,1.5225,1.5352,1.505,1.4451,1.4094,1.3855,1.3312,1.2805,1.2752,1.2943,1.287,1.2816,1.2901,1.2995,1.3011,1.2976,1.3,1.3243,1.3545,1.3059,1.2671,1.292,1.3003,1.294,1.2574,1.2073,1.2166,1.2523,1.2578,1.2498,1.285,1.3025,1.3312,1.3545,1.3304,1.3295,1.3708,1.3939,1.3939,1.4031,1.4141,1.3862,1.3356,1.3545,1.4025,1.3846,1.3666,1.3537,1.3416,1.3243,1.3364,1.3141,1.3295,1.3743,-0.4937,-0.4003,-0.3508,-0.2732,-0.2009,-0.2397,-0.1896,-0.0614,0.0836,0.2445,0.3935,0.514,0.6234,0.7326,0.8283,0.9481,1.0661,1.1416,1.2686,1.4003,1.4514,1.5141,1.6207,1.7531,1.8612,1.9497,2.0858,2.2139,2.2952,2.3967,2.4466,2.4354,2.4375,2.3795,2.2832,2.1728,2.1207,2.0539,1.9652,1.9037,1.8841,1.8066,1.762,1.7817,1.6647,1.6183,1.6326,1.5589,1.5017,1.465,1.4434,1.4003,1.3779,1.4032,1.4111,1.4263,1.4691,1.5183,1.5234,1.5342,1.541,1.542,1.5352,1.5235,1.4991,1.4451,1.4094,1.3786,1.3459,1.3459,1.3622,1.3184,1.3149,1.3665,1.3793,1.3775,1.3793,1.3828,1.3965,1.4323,1.4227,1.4123,1.4209,1.3974,1.3764,1.372,1.3279,1.289,1.3038,1.3046,1.3025,1.3519,1.3881,1.4163,1.4323,1.4145,1.4154,1.4501,1.4796,1.4914,1.4944,1.4847,1.4808,1.4392,1.4688,1.4923,1.4628,1.451,1.4688,1.4688,1.4332,1.4213,1.4305,1.4538,1.4934,-0.4055,-0.2952,-0.2621,-0.2009,-0.1228,-0.1619,-0.0838,0.0782,0.206,0.3385,0.4758,0.5806,0.6735,0.7711,0.8448,0.9474,1.0762,1.1216,1.2677,1.3899,1.4514,1.5242,1.6188,1.7149,1.7997,1.8861,1.9974,2.1201,2.2088,2.3004,2.3928,2.4625,2.4678,2.4369,2.3635,2.2876,2.1978,2.1278,2.0573,1.9982,1.9534,1.8936,1.8567,1.8206,1.7499,1.6845,1.6487,1.593,1.5231,1.488,1.4525,1.4143,1.4196,1.4305,1.4353,1.4506,1.4745,1.5203,1.5341,1.541,1.5498,1.582,1.5576,1.542,1.5352,1.4932,1.4746,1.4451,1.4034,1.4154,1.4332,1.3863,1.4081,1.4662,1.4671,1.4662,1.4582,1.456,1.4569,1.4991,1.5108,1.5167,1.5284,1.4991,1.47,1.4591,1.4501,1.4154,1.3803,1.3743,1.3743,1.4172,1.4547,1.4765,1.4991,1.505,1.5118,1.5352,1.541,1.541,1.5352,1.5196,1.5342,1.542,1.5294,1.5177,1.5294,1.5352,1.5235,1.5235,1.5177,1.5177,1.542,1.5478,1.5576,-0.2896,-0.2119,-0.1396,-0.1118,-0.1062,-0.0949,0.0223,0.2173,0.2938,0.4097,0.5538,0.6848,0.7503,0.783,0.8533,0.9658,1.0771,1.1023,1.2619,1.4018,1.4652,1.5478,1.6225,1.7063,1.7639,1.8218,1.9214,2.0459,2.1286,2.2529,2.3829,2.4974,2.5115,2.4877,2.4341,2.3727,2.2828,2.2159,2.1536,2.091,2.0338,1.9934,1.9487,1.8906,1.799,1.7391,1.685,1.6144,1.5635,1.5334,1.5176,1.4891,1.4868,1.4982,1.4803,1.4728,1.4932,1.5253,1.5648,1.5796,1.5954,1.6372,1.6002,1.5672,1.543,1.5381,1.5167,1.5167,1.4932,1.5118,1.5177,1.531,1.5432,1.5561,1.5581,1.5505,1.5283,1.5235,1.5235,1.5352,1.5352,1.541,1.5575,1.5459,1.5565,1.5776,1.5738,1.5673,1.5303,1.4824,1.4824,1.4874,1.5186,1.5245,1.542,1.542,1.542,1.542,1.542,1.541,1.542,1.542,1.542,1.542,1.542,1.542,1.542,1.542,1.541,1.542,1.542,1.542,1.542,1.542,1.5527,-0.212,-0.1396,-0.1174,-0.0783,-0.028,0.0223,0.1173,0.223,0.3005,0.411,0.5597,0.647,0.7289,0.7824,0.9444,1.0261,1.1023,1.1922,1.3178,1.419,1.4755,1.5522,1.6312,1.6993,1.734,1.7932,1.8792,1.9738,2.0544,2.1865,2.373,2.51,2.5222,2.5121,2.4911,2.4579,2.3787,2.3034,2.2384,2.1769,2.1271,2.0814,2.0404,1.9738,1.8997,1.8411,1.762,1.7024,1.6635,1.6589,1.619,1.5904,1.594,1.5928,1.5818,1.6131,1.6157,1.6254,1.6722,1.6472,1.6498,1.7048,1.6952,1.6665,1.6273,1.5886,1.5633,1.5584,1.57,1.5806,1.574,1.5792,1.5871,1.5841,1.5831,1.5615,1.5478,1.542,1.541,1.5584,1.5584,1.5864,1.6036,1.6197,1.6301,1.6754,1.692,1.6821,1.6623,1.607,1.5644,1.5634,1.5748,1.5806,1.5526,1.5478,1.542,1.542,1.542,1.5468,1.5526,1.5526,1.5468,1.5468,1.5526,1.5468,1.542,1.542,1.542,1.542,1.542,1.542,1.542,1.5478,1.5635,-0.134,-0.0727,-0.0672,-0.0224,0.056,0.1507,0.2286,0.2785,0.3445,0.4549,0.5928,0.6745,0.7456,0.8262,0.9406,1.0218,1.0864,1.1475,1.2783,1.4422,1.4709,1.5522,1.6312,1.6824,1.7063,1.7639,1.8338,1.9192,2.0084,2.1705,2.3603,2.4617,2.4951,2.5079,2.5017,2.4919,2.4668,2.397,2.3288,2.2611,2.2143,2.1757,2.1358,2.0811,2.0227,1.9398,1.8665,1.8125,1.7813,1.7813,1.7395,1.7119,1.7039,1.6848,1.6311,1.6562,1.683,1.6819,1.706,1.7048,1.7368,1.7745,1.7844,1.7534,1.7257,1.6935,1.6394,1.6083,1.6197,1.6265,1.6117,1.5994,1.5924,1.5911,1.578,1.5596,1.5518,1.543,1.5584,1.5806,1.6083,1.6368,1.6585,1.6821,1.6955,1.7211,1.7333,1.7329,1.717,1.6924,1.6409,1.6083,1.6212,1.6301,1.5979,1.572,1.5836,1.5778,1.5526,1.5526,1.5642,1.5633,1.5526,1.5584,1.57,1.57,1.5642,1.5468,1.542,1.542,1.542,1.542,1.5508,1.5674,1.5898,-0.0503,0.0112,0.0168,0.0671,0.1396,0.2676,0.3345,0.3564,0.4106,0.5144,0.6416,0.7283,0.7943,0.848,0.9256,1.0012,1.072,1.1425,1.2696,1.4606,1.4698,1.5332,1.6008,1.6497,1.6909,1.7353,1.7999,1.8919,2.0042,2.1518,2.2954,2.3878,2.4447,2.4789,2.5021,2.5097,2.4966,2.4783,2.4219,2.3638,2.3129,2.2737,2.2331,2.1611,2.083,2.0042,1.9609,1.9108,1.8602,1.882,1.8652,1.8234,1.7997,1.7857,1.7219,1.7117,1.7705,1.7802,1.7878,1.7844,1.8309,1.8468,1.8294,1.8619,1.8641,1.7718,1.6946,1.6754,1.6866,1.6866,1.6751,1.6743,1.6732,1.6597,1.6498,1.6372,1.6249,1.6197,1.6301,1.6528,1.6641,1.6978,1.7457,1.7688,1.7918,1.7899,1.8011,1.8046,1.7979,1.7801,1.7311,1.6789,1.6793,1.681,1.6467,1.6316,1.6498,1.6374,1.5999,1.6083,1.6472,1.613,1.5633,1.6026,1.6415,1.6083,1.5921,1.57,1.5468,1.542,1.542,1.542,1.5615,1.593,1.614,0.067,0.0895,0.1453,0.212,0.2785,0.3176,0.3735,0.4236,0.4401,0.4999,0.5923,0.7063,0.783,0.8209,0.9547,1.0415,1.0813,1.1625,1.2957,1.3956,1.4468,1.5096,1.582,1.6324,1.6782,1.7312,1.7985,1.895,2.028,2.1504,2.2596,2.3762,2.423,2.4536,2.4928,2.5017,2.5105,2.518,2.4914,2.4454,2.4002,2.349,2.3,2.2495,2.187,2.1351,2.0783,1.9965,1.9975,2.0205,1.9238,1.8877,1.8738,1.9007,1.8843,1.8597,1.9052,1.9171,1.9004,1.8963,1.9391,1.9889,2.0054,2.0437,2.0075,1.8543,1.772,1.7622,1.7523,1.7523,1.7501,1.7567,1.7533,1.7396,1.727,1.7119,1.6978,1.7024,1.7069,1.7191,1.7313,1.7688,1.8232,1.8555,1.8792,1.9016,1.9239,1.934,1.9194,1.9028,1.8307,1.7847,1.7501,1.7368,1.7032,1.7191,1.7516,1.7366,1.7022,1.7157,1.7291,1.709,1.6821,1.7024,1.7191,1.6856,1.6358,1.5806,1.5584,1.569,1.5768,1.5951,1.6098,1.6327,1.6537,0.1619,0.1675,0.2399,0.2954,0.3345,0.3735,0.4288,0.4893,0.5277,0.5823,0.6416,0.7015,0.7563,0.815,0.9747,1.061,1.0914,1.1882,1.2861,1.3721,1.4422,1.5005,1.5599,1.6194,1.6782,1.7353,1.8416,1.9531,2.0639,2.1384,2.2329,2.3323,2.3739,2.4182,2.4617,2.4839,2.5104,2.5233,2.5184,2.5033,2.4693,2.4282,2.384,2.3397,2.2894,2.2436,2.1948,2.123,2.1288,2.1144,2.0317,1.9532,1.9291,1.9224,1.9222,1.9353,1.9768,2.0422,2.0086,2.0048,2.0338,2.0678,2.0798,2.0799,2.126,1.9951,1.9584,1.9443,1.9297,1.931,1.898,1.8928,1.8566,1.8328,1.8064,1.7833,1.7545,1.7357,1.7622,1.8004,1.8178,1.8447,1.8874,1.9202,1.9384,1.9384,1.9747,1.9747,1.9798,1.9849,1.9238,1.8903,1.8625,1.7975,1.7457,1.8002,1.8771,1.8532,1.8123,1.7818,1.775,1.7961,1.8073,1.7929,1.7786,1.7677,1.7135,1.6574,1.6472,1.6687,1.6616,1.6545,1.6708,1.6951,1.7116,0.2397,0.2621,0.3234,0.3511,0.3624,0.4236,0.4787,0.5382,0.6091,0.6799,0.7283,0.6912,0.7616,0.8626,0.951,1.0167,1.0864,1.1625,1.2599,1.3532,1.4376,1.4869,1.5466,1.6151,1.674,1.7626,1.8646,1.9697,2.0733,2.1287,2.1864,2.2617,2.317,2.3637,2.4116,2.4633,2.5062,2.5169,2.523,2.5385,2.5218,2.5022,2.4572,2.4097,2.3669,2.3221,2.2873,2.2575,2.2498,2.2068,2.1349,2.0491,2.0047,1.9846,1.9637,1.9846,2.0598,2.0642,2.0302,2.042,2.0717,2.092,2.0873,2.1171,2.1707,2.1718,2.1315,2.1212,2.1121,2.072,2.0383,2.0118,1.9724,1.9419,1.9129,1.891,1.8543,1.8244,1.8614,1.904,1.9158,1.938,1.9488,1.9811,1.9811,1.9811,1.9798,1.9798,1.9823,1.9859,1.9629,1.9738,1.9756,1.9064,1.8228,1.8667,1.9666,1.9674,1.923,1.8635,1.8337,1.8673,1.8744,1.8417,1.8286,1.834,1.8112,1.7622,1.7622,1.7578,1.7268,1.7132,1.7625,1.783,1.7957,0.3456,0.407,0.4239,0.4291,0.4294,0.446,0.457,0.4787,0.5487,0.6145,0.6912,0.7503,0.8043,0.8864,0.951,1.0115,1.0669,1.1416,1.2187,1.3094,1.4107,1.4606,1.5197,1.6064,1.674,1.7572,1.8493,1.9447,2.0403,2.0927,2.1652,2.26,2.2979,2.348,2.4007,2.4512,2.4872,2.5023,2.5243,2.5379,2.5412,2.5227,2.5067,2.4718,2.4401,2.4062,2.3676,2.3111,2.2972,2.2738,2.2209,2.1342,2.0879,2.0731,2.067,2.0548,2.1273,2.1117,2.0931,2.0823,2.1069,2.1599,2.1729,2.2149,2.2557,2.2848,2.2639,2.2759,2.2472,2.1777,2.1424,2.138,2.1118,2.1019,2.0824,2.0752,2.0542,2.0424,2.0515,2.0476,2.0321,2.0232,1.9989,2.008,1.9939,1.9926,1.9965,1.994,1.9976,1.9978,2.0024,2.0288,2.0618,2.0273,1.9519,1.9562,2.0211,2.0346,2.0354,1.9813,1.9528,1.9571,1.9494,1.9016,1.9044,1.915,1.8874,1.8501,1.8232,1.807,1.7688,1.7656,1.8306,1.871,1.8812]},{"header":{"parameterUnit":"m.s-1","parameterCategory":1,"la1":31.0,"la2":29.5877,"lo1":-88.7671,"lo2":-86.6584,"dy":0.0162,"dx":0.0185,"nx":115,"ny":88,"refTime":"2024-05-11T06:00:00:Z","depth":0,"parameterNumber":3,"parameterNumberName":"V-component_of_WINDS"},"data":[0.0,0.0,0.0,0.0,0.0,0.0,0.0,0.0,0.0,0.0,0.0,0.0,0.0,0.0,0.0,0.0,0.0,0.0,0.0,0.0,0.0,0.0,0.0,0.0,0.0,0.0,0.0,0.0,0.0,0.0,0.0,0.0,0.0,0.0,0.0,0.0,0.0,0.0,0.0,0.0,0.0,0.0,0.0,0.0,0.0,0.0,0.0,0.0,0.0,0.0,0.0,0.0,0.0,0.0,0.0,0.0,0.0,0.0,0.0,0.0,0.0,0.0,0.0,0.0,0.0,0.0,0.0,0.0,0.0,0.0,0.0,0.0,0.0,0.0,0.0,0.0,0.0,0.0,0.0,0.0,0.0,0.0,0.0,0.0,0.0,0.0,0.0,0.0,0.0,0.0,0.0,0.0,0.0,0.0,0.0,0.0,0.0,0.0,0.0,0.0,0.0,0.0,0.0,0.0,0.0,0.0,0.0,0.0,0.0,0.0,0.0,0.0,0.0,0.0,0.0,0.0,0.0,0.0,0.0,0.0,0.0,0.0,0.0,0.0,0.0,0.0,0.0,0.0,0.0,0.0,0.0,0.0,0.0,0.0,0.0,0.0,0.0,0.0,0.0,0.0,0.0,0.0,0.0,0.0,0.0,0.0,0.0,0.0,0.0,0.0,0.0,0.0,0.0,0.0,0.0,0.0,0.0,0.0,0.0,0.0,0.0,0.0,0.0,0.0,0.0,0.0,0.0,0.0,0.0,0.0,0.0,0.0,0.0,0.0,0.0,0.0,0.0,0.0,0.0,0.0,0.0,0.0,0.0,0.0,0.0,0.0,0.0,0.0,0.0,0.0,0.0,0.0,0.0,0.0,0.0,0.0,0.0,0.0,0.0,0.0,0.0,0.0,0.0,0.0,0.0,0.0,0.0,0.0,0.0,0.0,0.0,0.0,0.0,0.0,0.0,0.0,0.0,0.0,0.0,0.0,0.0,0.0,0.0,0.0,0.0,0.0,0.0,0.0,0.0,0.0,0.0,0.0,0.0,0.0,0.0,0.0,0.0,0.0,0.0,0.0,0.0,0.0,0.0,0.0,0.0,0.0,0.0,0.0,0.0,0.0,0.0,0.0,0.0,0.0,0.0,0.0,0.0,0.0,0.0,0.0,0.0,0.0,0.0,0.0,0.0,0.0,0.0,0.0,0.0,0.0,0.0,0.0,0.0,0.0,0.0,0.0,0.0,0.0,0.0,0.0,0.0,0.0,0.0,0.0,0.0,0.0,0.0,0.0,0.0,0.0,0.0,0.0,0.0,0.0,0.0,0.0,0.0,0.0,0.0,0.0,0.0,0.0,0.0,0.0,0.0,0.0,0.0,0.0,0.0,0.0,0.0,0.0,0.0,0.0,0.0,0.0,0.0,0.0,0.0,0.0,0.0,0.0,0.0,0.0,0.0,0.0,0.0,0.0,0.0,0.0,0.0,0.0,0.0,0.0,0.0,0.0,0.0,0.0,0.0,0.0,0.0,0.0,0.0,0.0,0.0,0.0,0.0,0.0,0.0,0.0,0.0,0.0,0.0,0.0,0.0,0.0,0.0,0.0,0.0,0.0,0.0,0.0,0.0,0.0,0.0,0.0,0.0,0.0,0.0,0.0,0.0,0.0,0.0,0.0,0.0,0.0,0.0,0.0,0.0,0.0,0.0,0.0,0.0,0.0,0.0,0.0,0.0,0.0,0.0,0.0,0.0,0.0,0.0,0.0,0.0,0.0,0.0,0.0,0.0,0.0,0.0,0.0,0.0,0.0,0.0,0.0,0.0,0.0,0.0,0.0,0.0,0.0,0.0,0.0,0.0,0.0,0.0,0.0,0.0,0.0,0.0,0.0,0.0,0.0,0.0,0.0,0.0,0.0,0.0,0.0,0.0,0.0,0.0,0.0,0.0,0.0,0.0,0.0,0.0,0.0,0.0,0.0,0.0,0.0,0.0,0.0,0.0,0.0,0.0,0.0,0.0,0.0,0.0,0.0,0.0,0.0,0.0,0.0,0.0,0.0,0.0,0.0,0.0,0.0,0.0,0.0,0.0,0.0,0.0,0.0,0.0,0.0,0.0,0.0,0.0,0.0,0.0,0.0,0.0,0.0,0.0,0.0,0.0,0.0,0.0,0.0,0.0,0.0,0.0,0.0,0.0,0.0,0.0,0.0,0.0,0.0,0.0,0.0,0.0,0.0,0.0,0.0,0.0,0.0,0.0,0.0,0.0,0.0,0.0,0.0,0.0,0.0,0.0,0.0,0.0,0.0,0.0,0.0,0.0,0.0,0.0,0.0,0.0,0.0,0.0,0.0,0.0,0.0,0.0,0.0,0.0,0.0,0.0,0.0,0.0,0.0,0.0,0.0,0.0,0.0,0.0,0.0,0.0,0.0,0.0,0.0,0.0,0.0,0.0,0.0,0.0,0.0,0.0,0.0,0.0,0.0,0.0,0.0,0.0,0.0,0.0,0.0,0.0,0.0,0.0,0.0,0.0,0.0,0.0,0.0,0.0,0.0,0.0,0.0,0.0,0.0,0.0,0.0,0.0,0.0,0.0,0.0,0.0,0.0,0.0,0.0,0.0,0.0,0.0,0.0,0.0,0.0,0.0,0.0,0.0,0.0,0.0,0.0,0.0,0.0,0.0,0.0,0.0,0.0,0.0,0.0,0.0,0.0,0.0,0.0,0.0,0.0,0.0,0.0,0.0,0.0,0.0,0.0,0.0,0.0,0.0,0.0,0.0,0.0,0.0,0.0,0.0,0.0,0.0,0.0,0.0,0.0,0.0,0.0,0.0,0.0,0.0,0.0,0.0,0.0,0.0,0.0,0.0,0.0,0.0,0.0,0.0,0.0,0.0,0.0,0.0,0.0,0.0,0.0,0.0,0.0,0.0,0.0,0.0,0.0,0.0,0.0,0.0,0.0,0.0,0.0,0.0,0.0,0.0,0.0,0.0,0.0,0.0,0.0,0.0,0.0,0.0,0.0,0.0,0.0,0.0,0.0,0.0,0.0,0.0,0.0,0.0,0.0,0.0,0.0,0.0,0.0,0.0,0.0,0.0,0.0,0.0,0.0,0.0,0.0,0.0,0.0,0.0,0.0,0.0,0.0,0.0,0.0,0.0,0.0,0.0,0.0,0.0,0.0,0.0,0.0,0.0,0.0,0.0,0.0,0.0,0.0,0.0,0.0,0.0,0.0,0.0,0.0,0.0,0.0,0.0,0.0,0.0,0.0,0.0,0.0,0.0,0.0,0.0,0.0,0.0,0.0,0.0,0.0,0.0,0.0,0.0,0.0,0.0,0.0,0.0,0.0,0.0,0.0,0.0,0.0,0.0,0.0,0.0,0.0,0.0,0.0,0.0,0.0,0.0,0.0,0.0,0.0,0.0,0.0,0.0,0.0,0.0,0.0,0.0,0.0,0.0,0.0,0.0,0.0,0.0,0.0,0.0,0.0,0.0,0.0,0.0,0.0,0.0,0.0,0.0,0.0,0.0,0.0,0.0,0.0,0.0,0.0,0.0,0.0,0.0,0.0,0.0,0.0,0.0,0.0,0.0,0.0,0.0,0.0,0.0,0.0,0.0,0.0,0.0,0.0,0.0,0.0,0.0,0.0,0.0,0.0,0.0,0.0,0.0,0.0,0.0,0.0,0.0,0.0,0.0,0.0,0.0,0.0,0.0,0.0,0.0,0.0,0.0,0.0,0.0,0.0,0.0,0.0,0.0,0.0,0.0,0.0,0.0,0.0,0.0,0.0,0.0,0.0,0.0,0.0,0.0,0.0,0.0,0.0,0.0,0.0,0.0,0.0,0.0,0.0,0.0,0.0,0.0,0.0,0.0,0.0,0.0,0.0,0.0,0.0,0.0,0.0,0.0,0.0,0.0,0.0,0.0,0.0,0.0,0.0,0.0,0.0,0.0,0.0,0.0,0.0,0.0,0.0,0.0,0.0,0.0,0.0,0.0,0.0,0.0,0.0,0.0,0.0,0.0,0.0,0.0,0.0,0.0,0.0,0.0,0.0,0.0,0.0,0.0,0.0,0.0,0.0,0.0,0.0,0.0,0.0,0.0,0.0,0.0,0.0,0.0,0.0,0.0,0.0,0.0,0.0,0.0,0.0,0.0,0.0,0.0,0.0,0.0,0.0,0.0,0.0,0.0,0.0,0.0,0.0,0.0,0.0,0.0,0.0,0.0,0.0,0.0,0.0,0.0,0.0,0.0,0.0,0.0,0.0,0.0,0.0,0.0,0.0,0.0,0.0,0.3273,0.0,0.0,0.0,0.0,0.0,0.0,0.0,0.0,0.0,0.0,0.0,0.0,0.0,0.0,0.0,0.0,0.0,0.0,0.0,0.0,0.0,0.0,0.0,0.0,0.0,0.0,0.0,0.0,0.0,0.0,0.0,0.0,0.0,0.0,0.0,0.0,0.0,0.0,0.0,0.0,0.0,0.0,0.0,0.0,0.0,0.0,0.0,0.0,0.0,0.0,0.0,0.0,0.0,0.0,0.0,0.0,0.0,0.0,0.0,0.0,0.0,0.0,0.0,0.0,0.0,0.0,0.0,0.0,0.0,0.0,0.0,0.0,0.0,0.0,0.0,0.0,0.0,0.0,0.0,0.0,0.0,0.0,0.0,0.0,0.0,0.0,0.0,0.0,0.0,0.0,0.0,0.0,0.0,0.0,0.0,0.0,0.0,0.0,0.0,0.0,0.0,0.0,0.0,0.0,0.0,0.0,0.0,0.0,0.0,0.0,0.3353,0.3192,0.3266,0.3309,0.3306,0.0,0.0,0.0,0.0,0.0,0.0,0.0,0.0,0.0,0.0,0.0,0.0,0.0,0.0,0.0,0.0,0.0,0.0,0.0,0.0,0.0,0.0,0.0,0.0,0.0,0.0,0.0,0.0,0.0,0.0,0.0,0.0,0.0,0.0,0.0,0.0,0.0,0.0,0.0,0.0,0.0,0.0,0.0,0.0,0.0,0.0,0.0,0.0,0.0,0.0,0.0,0.0,0.0,0.0,0.0,0.0,0.0,0.0,0.0,0.0,0.0,0.0,0.0,0.0,0.0,0.0,0.0,0.0,0.0,0.0,0.0,0.0,0.0,0.0,0.0,0.0,0.0,0.0,0.0,0.0,0.0,0.0,0.0,0.0,0.0,0.0,0.0,0.0,0.0,0.0,0.0,0.0,0.0,0.0,0.0,0.0,0.0,0.0,0.0,0.0,0.0,0.0,0.0,0.0,0.0,0.0,0.0,0.0,0.0,0.0,0.0,0.0,0.3343,0.3372,0.3369,0.0,0.0,0.0,0.0,0.0,0.0,0.0,0.0,0.0,0.0,0.0,0.0,0.0,0.0,0.0,0.0,0.0,0.0,0.0,0.0,0.0,0.0,0.0,0.0,0.0,0.0,0.0,0.0,0.0,0.0,0.0,0.0,0.0,0.0,0.0,0.0,0.0,0.0,0.0,0.0,0.0,0.0,0.0,0.0,0.0,0.0,0.0,0.0,0.0,0.0,0.0,0.0,0.0,0.0,0.0,0.0,0.0,0.0,0.0,0.0,0.0,0.0,0.0,0.0,0.0,0.0,0.0,0.0,0.0,0.0,0.0,0.0,0.0,0.0,0.0,0.0,0.0,0.0,0.0,0.0,0.0,0.0,0.0,0.0,0.0,0.0,0.0,0.0,0.0,0.0,0.0,0.0,0.0,0.0,0.0,0.0,0.0,0.0,0.0,0.0,0.0,0.0,0.0,0.0,0.0,0.0,0.0,0.0,0.0,0.0,0.4103,0.4076,0.3738,0.0,0.3568,0.0,0.0,0.0,0.0,0.0,0.0,0.0,0.0,0.0,0.0,0.0,0.0,0.0,0.0,0.0,0.0,0.0,0.0,0.0,0.0,0.0,0.0,0.0,0.0,0.0,0.0,0.0,0.0,0.0,0.0,0.0,0.0,0.0,0.0,0.0,0.0,0.0,0.0,0.0,0.0,0.0,0.0,0.0,0.0,0.0,0.0,0.0,0.0,0.0,0.0,0.0,0.0,0.0,0.0,0.0,0.0,0.0,0.0,0.0,0.0,0.0,0.0,0.0,0.0,0.0,0.0,0.0,0.0,0.0,0.0,0.0,0.0,0.0,0.0,0.0,0.0,0.0,0.0,0.0,0.0,0.0,0.0,0.0,0.0,0.0,0.0,0.0,0.0,0.0,0.0,0.0,0.0,0.0,0.0,0.0,0.0,0.0,0.0,0.0,0.0,0.0,0.0,0.0,0.0,0.0,0.0,0.0,0.0,0.0,0.0,0.404,0.4195,0.4187,0.4006,0.0,0.0,0.0,0.0,0.0,0.0,0.0,0.0,0.0,0.0,0.0,0.0,0.0,0.0,0.0,0.0,0.0,0.0,0.0,0.0,0.0,0.0,0.0,0.0,0.0,0.0,0.0,0.0,0.0,0.0,0.0,0.0,0.0,0.0,0.0,0.0,0.0,0.0,0.0,0.0,0.0,0.0,0.0,0.0,0.0,0.0,0.0,0.0,0.0,0.0,0.0,0.0,0.0,0.0,0.0,0.0,0.0,0.0,0.0,0.0,0.0,0.0,0.0,0.0,0.0,0.0,0.0,0.0,0.0,0.0,0.0,0.0,0.0,0.0,0.0,0.0,0.0,0.0,0.0,0.0,0.0,0.0,0.0,0.0,0.0,0.0,0.0,0.0,0.0,0.0,0.0,0.0,0.0,0.0,0.0,0.0,0.0,0.0,0.0,0.0,0.0,0.0,0.0,0.0,0.0,0.0,0.0,0.0,0.0,0.0,0.4388,0.4216,0.4357,0.4364,0.4175,0.3837,0.0,0.0,0.0,0.0,0.0,0.0,0.0,0.0,0.0,0.0,0.0,0.0,0.0,0.0,0.0,0.0,0.0,0.0,0.0,0.0,0.0,0.0,0.0,0.0,0.0,0.0,0.0,0.0,0.0,0.0,0.0,0.0,0.0,0.0,0.0,0.0,0.0,0.0,0.0,0.0,0.0,0.0,0.0,0.0,0.0,0.0,0.0,0.0,0.0,0.0,0.0,0.0,0.0,0.0,0.0,0.0,0.0,0.0,0.0,0.0,0.0,0.0,0.0,0.0,0.0,0.0,0.0,0.0,0.0,0.0,0.0,0.0,0.0,0.0,0.0,0.0,0.0,0.0,0.0,0.0,0.0,0.0,0.0,0.0,0.0,0.0,0.0,0.0,0.0,0.0,0.0,0.0,0.0,0.0,0.0,0.0,0.0,0.0,0.0,0.0,0.0,0.0,0.0,0.0,0.0,0.0,0.0,0.0,0.6209,0.5446,0.4967,0.4723,0.4258,0.3881,0.0,0.0,0.0,0.0,0.0,0.0,0.0,0.0,0.0,0.0,0.0,0.0,0.0,0.0,0.0,0.0,0.0,0.0,0.0,0.0,0.0,0.0,0.0,0.0,0.0,0.0,0.0,0.0,0.0,0.0,0.0,0.0,0.0,0.0,0.0,0.0,0.0,0.0,0.0,0.0,0.0,0.0,0.0,0.0,0.0,0.0,0.0,0.0,0.0,0.0,0.0,0.0,0.0,0.0,0.0,0.0,0.0,0.0,0.0,0.0,0.0,0.0,0.0,0.0,0.0,0.0,0.0,0.0,0.0,0.0,0.0,0.0,0.0,0.0,0.0,0.0,0.0,0.0,0.0,0.0,0.0,0.0,0.0,0.0,0.0,0.0,0.0,0.0,0.0,0.0,0.0,0.0,0.0,0.0,0.0,0.0,0.0,0.0,0.0,0.0,0.0,0.0,0.0,0.0,0.0,0.0,0.0,0.0,0.0,0.5653,0.5044,0.4695,0.4612,0.4426,0.421,0.0,0.0,0.0,0.0,0.0,0.0,0.0,0.0,0.0,0.0,0.0,0.0,0.0,0.0,0.0,0.0,0.0,0.0,0.0,0.0,0.0,0.0,0.0,0.0,0.0,0.0,0.0,0.0,0.0,0.0,0.0,0.0,0.0,0.0,0.0,0.0,0.0,0.0,0.0,0.0,0.0,0.0,0.0,0.0,0.0,0.0,0.0,0.0,0.0,0.0,0.0,0.0,0.0,0.0,0.0,0.0,0.0,0.0,0.0,0.0,0.0,0.0,0.0,0.0,0.0,0.0,0.0,0.0,0.0,0.0,0.0,0.0,0.0,0.0,0.0,0.0,0.0,0.0,0.0,0.0,0.0,0.0,0.0,0.0,0.0,0.0,0.0,0.0,0.0,0.0,0.0,0.0,0.0,0.0,0.0,0.0,0.0,0.0,0.0,0.0,0.0,0.0,0.0,0.0,0.0,0.0,0.0,0.0,0.0,0.5029,0.0,0.4587,0.4508,0.437,0.4248,0.0,0.0,0.0,0.0,0.0,0.0,0.0,0.0,0.0,0.0,0.0,0.0,0.0,0.0,0.0,0.0,0.0,0.0,0.0,0.0,0.0,0.0,0.0,0.0,0.0,0.0,0.0,0.0,0.0,0.0,0.0,0.0,0.0,0.0,0.0,0.0,0.0,0.0,0.0,0.0,0.0,0.0,0.0,0.0,0.0,0.0,0.0,0.0,0.0,0.0,0.0,0.0,0.0,0.0,0.0,0.0,0.0,0.0,0.0,0.0,0.0,0.0,0.0,0.0,0.0,0.0,0.0,0.0,0.0,0.0,0.0,0.0,0.0,0.0,0.0,0.0,0.0,0.0,0.0,0.0,0.0,0.0,0.0,0.0,0.0,0.0,0.0,0.0,0.0,0.0,0.0,0.0,0.0,0.0,0.0,0.0,0.0,0.0,0.0,0.0,0.0,0.0,0.0,0.0,0.0,0.0,0.0,0.0,0.4757,0.4518,0.4747,0.4707,0.4473,0.4197,0.3877,0.0,0.0,0.0,0.0,0.0,0.0,0.0,0.0,0.0,0.0,0.0,0.0,0.0,0.0,0.0,0.0,0.0,0.0,0.0,0.0,0.0,0.0,0.0,0.0,0.0,0.0,0.0,0.0,0.0,0.0,0.0,0.0,0.0,0.0,0.0,0.0,0.0,0.0,0.0,0.0,0.0,0.0,0.0,0.0,0.0,0.0,0.0,0.0,0.0,0.0,0.0,0.0,0.0,0.0,0.0,0.0,0.0,0.0,0.0,0.0,0.0,0.0,0.0,0.0,0.0,0.0,0.0,0.0,0.0,0.0,0.0,0.0,0.0,0.0,0.0,0.0,0.0,0.0,0.0,0.0,0.0,0.0,0.0,0.0,0.0,0.0,0.0,0.0,0.0,0.0,0.0,0.0,0.0,0.0,0.0,0.0,0.0,0.0,0.0,0.0,0.0,0.0,0.0,0.0,0.0,0.0,0.0,0.0,0.0,0.4055,0.4267,0.4459,0.4511,0.4098,0.3888,0.0,0.0,0.0,0.0,0.0,0.0,0.0,0.0,0.0,0.0,0.0,0.0,0.0,0.0,0.0,0.0,0.0,0.0,0.0,0.0,0.0,0.0,0.0,0.0,0.0,0.0,0.0,0.0,0.0,0.0,0.0,0.0,0.0,0.0,0.0,0.0,0.0,0.0,0.0,0.0,0.0,0.0,0.0,0.0,0.0,0.0,0.0,0.0,0.0,0.0,0.0,0.0,0.0,0.0,0.0,0.0,0.0,0.0,0.0,0.0,0.0,0.0,0.0,0.0,0.0,0.0,0.0,0.0,0.0,0.0,0.0,0.0,0.0,0.0,0.0,0.0,0.0,0.0,0.0,0.0,0.0,0.0,0.0,0.0,0.0,0.0,0.0,0.0,0.0,0.0,0.0,0.0,0.0,0.0,0.0,0.0,0.0,0.0,0.0,0.0,0.0,0.0,0.0,0.0,0.0,0.0,0.0,0.0,0.0,0.4233,0.4507,0.4637,0.4584,0.425,0.4075,0.4015,0.0,0.0,0.0,0.0,0.0,0.0,0.0,0.0,0.0,0.0,0.0,0.0,0.0,0.0,0.0,0.0,0.0,0.0,0.0,0.0,0.0,0.0,0.0,0.0,0.0,0.0,0.0,0.0,0.0,0.0,0.0,0.0,0.0,0.0,0.0,0.0,0.0,0.0,0.0,0.0,0.0,0.0,0.0,0.0,0.0,0.0,0.0,0.0,0.0,0.0,0.0,0.0,0.0,0.0,0.0,0.0,0.0,0.0,0.0,0.0,0.0,0.0,0.0,0.0,0.0,0.0,0.0,0.0,0.0,0.0,0.0,0.0,0.0,0.0,0.0,0.0,0.0,0.0,0.0,0.0,0.0,0.0,0.0,0.0,0.0,0.0,0.0,0.0,0.0,0.0,0.0,0.0,0.0,0.0,0.0,0.0,0.0,0.0,0.0,0.0,0.0,0.0,0.0,0.0,0.0,0.0,0.0,0.0,0.4928,0.5254,0.5216,0.4736,0.4582,0.428,0.0,0.0,0.0,0.0,0.0,0.0,0.0,0.0,0.0,0.0,0.0,0.0,0.0,0.0,0.0,0.0,0.0,0.0,0.0,0.0,0.0,0.0,0.0,0.0,0.0,0.0,0.0,0.0,0.0,0.0,0.0,0.0,0.0,0.0,0.0,0.0,0.0,0.0,0.0,0.0,0.0,0.0,0.0,0.0,0.0,0.0,0.0,0.0,0.0,0.0,0.0,0.0,0.0,0.0,0.0,0.0,0.0,0.0,0.0,0.0,0.0,0.0,0.0,0.0,0.0,0.0,0.0,0.0,0.0,0.0,0.0,0.0,0.0,0.0,0.0,0.0,0.0,0.0,0.0,0.0,0.0,0.0,0.0,0.0,0.0,0.0,0.0,0.0,0.0,0.0,0.0,0.0,0.0,0.0,0.0,0.0,0.0,0.0,0.0,0.0,0.0,0.0,0.0,0.0,0.0,0.0,0.0,0.0,0.0,0.5098,0.5796,0.5868,0.5246,0.4869,0.4454,0.0,0.0,0.0,0.0,0.0,0.0,0.0,0.0,0.0,0.0,0.0,0.0,0.0,0.0,0.0,0.0,0.0,0.0,0.0,0.0,0.0,0.0,0.0,0.0,0.0,0.0,0.0,0.0,0.0,0.0,0.0,0.0,0.0,0.0,0.0,0.0,0.0,0.0,0.0,0.0,0.0,0.0,0.0,0.0,0.0,0.0,0.0,0.0,0.0,0.0,0.0,0.0,0.0,0.0,0.0,0.0,0.0,0.0,0.0,0.0,0.0,0.0,0.0,0.0,0.0,0.0,0.0,0.0,0.0,0.0,0.0,0.0,0.0,0.0,0.0,0.0,0.0,0.0,0.0,0.0,0.0,0.0,0.0,0.0,0.0,0.0,0.0,0.0,0.0,0.0,0.0,0.0,0.0,0.0,0.0,0.0,0.0,0.0,0.0,0.0,0.0,0.0,0.0,0.0,0.0,0.0,0.0,0.0,0.5287,0.542,0.623,0.6435,0.5906,0.5451,0.4955,0.0,0.0,0.0,0.0,0.0,0.0,0.0,0.0,0.0,0.0,0.0,0.0,0.0,0.0,0.0,0.0,0.0,0.0,0.0,0.0,0.0,0.0,0.0,0.0,0.0,0.0,0.0,0.0,0.0,0.0,0.0,0.0,0.0,0.0,0.0,0.0,0.0,0.0,0.0,0.0,0.0,0.0,0.0,0.0,0.0,0.0,0.0,0.0,0.0,0.0,0.0,0.0,0.0,0.0,0.0,0.0,0.0,0.0,0.0,0.0,0.0,0.0,0.0,0.0,0.0,0.0,0.0,0.0,0.0,0.0,0.0,0.0,0.0,0.0,0.0,0.0,0.0,0.0,0.0,0.0,0.0,0.0,0.0,0.0,0.0,0.0,0.0,0.0,0.0,0.0,0.0,0.0,0.0,0.0,0.0,0.0,0.0,0.0,0.0,0.0,0.0,0.0,0.0,0.0,0.0,0.0,0.0,0.0,0.5521,0.58,0.6525,0.6759,0.6458,0.6146,0.5521,0.0,0.0,0.0,0.0,0.0,0.0,0.0,0.0,0.0,0.0,0.0,0.0,0.0,0.0,0.0,0.0,0.0,0.0,0.0,0.0,0.0,0.0,0.0,0.0,0.0,0.0,0.0,0.0,0.0,0.0,0.0,0.0,0.0,0.0,0.0,0.0,0.0,0.0,0.0,0.0,0.0,0.0,0.0,0.0,0.0,0.0,0.0,0.0,0.0,0.0,0.0,0.0,0.0,0.0,0.0,0.0,0.0,0.0,0.0,0.0,0.0,0.0,0.0,0.0,0.0,0.0,0.0,0.0,0.0,0.0,0.0,0.0,0.0,0.0,0.0,0.0,0.0,0.0,0.0,0.0,0.0,0.0,0.0,0.0,0.0,0.0,0.0,0.0,0.0,0.0,0.0,0.0,0.0,0.0,0.0,0.0,0.0,0.0,0.0,0.0,0.0,0.0,0.0,0.0,0.0,0.0,0.0,0.0,0.5623,0.5806,0.642,0.6607,0.639,0.5901,0.5413,0.0,0.0,0.0,0.0,0.0,0.0,0.0,0.0,0.0,0.0,0.0,0.0,0.0,0.0,0.0,0.0,0.0,0.0,0.0,0.0,0.0,0.0,0.0,0.0,0.0,0.0,0.0,0.0,0.0,0.0,0.0,0.0,0.0,0.0,0.0,0.0,0.0,0.0,0.0,0.0,0.0,0.0,0.0,0.0,0.0,0.0,0.0,0.0,-0.5265,0.0,0.0,0.0,0.0,0.0,0.0,0.0,0.0,0.0,0.0,0.0,0.0,0.0,0.0,0.0,0.0,0.0,0.0,0.0,0.0,0.0,0.0,0.0,0.0,0.0,0.0,0.0,0.0,0.0,0.0,0.0,0.0,0.0,0.0,0.0,0.0,0.0,0.0,0.0,0.0,0.0,0.0,0.0,0.0,0.0,0.0,0.0,0.0,0.0,0.0,0.0,0.0,0.0,0.0,0.0,0.0,0.0,0.0,0.0,0.5661,0.581,0.6393,0.6559,0.6261,0.5823,0.5345,0.0,0.0,0.0,0.0,0.0,0.0,0.0,0.0,0.0,0.0,0.0,0.0,0.0,0.0,0.0,0.0,0.0,0.0,0.0,0.0,0.0,0.0,0.0,0.0,0.0,0.0,0.0,0.0,0.0,0.0,0.0,0.0,0.0,0.0,0.0,0.0,0.0,0.0,0.0,0.0,0.0,0.0,0.0,0.0,0.0,0.0,0.0,0.0,0.0,0.0,0.0,0.0,0.0,0.0,0.0,0.0,0.0,0.0,0.0,0.0,0.0,0.0,0.0,0.0,0.0,0.0,0.0,0.0,0.0,0.0,0.0,0.0,0.0,0.0,0.0,0.0,0.0,0.0,0.0,0.0,0.0,0.0,0.0,0.0,0.0,0.0,0.0,0.0,0.0,0.0,0.0,0.0,0.0,0.0,0.0,0.0,0.0,0.0,0.0,0.0,0.0,0.0,0.0,0.0,0.0,0.0,0.0,0.5186,0.5613,0.581,0.6302,0.6441,0.6193,0.5752,0.526,0.4718,0.0,0.0,0.0,0.0,0.0,0.0,0.0,0.0,0.0,0.0,0.0,0.0,0.0,0.0,0.0,0.0,0.0,0.0,0.0,0.0,0.0,0.0,0.0,0.0,0.0,0.0,0.0,0.0,0.0,0.0,0.0,0.0,0.0,0.0,0.0,0.0,0.0,0.0,-0.5806,-0.5714,0.0,0.0,0.0,0.0,0.0,0.0,0.0,0.0,-0.6136,0.0,0.0,0.0,0.0,0.0,0.0,0.0,0.0,0.0,0.0,0.0,0.0,0.0,0.0,0.0,0.0,0.0,0.0,0.0,0.0,0.0,0.0,0.0,0.0,0.0,0.0,0.0,0.0,0.0,0.0,0.0,0.0,0.0,0.0,0.0,0.0,0.0,0.0,0.0,0.0,0.0,0.0,0.0,0.0,0.0,0.0,0.0,0.0,0.0,0.0,0.0,0.0,0.0,0.0,0.0,0.0,0.4836,0.5084,0.5399,0.5789,0.5898,0.5925,0.5867,0.544,0.5043,0.4701,0.0,0.0,0.0,0.0,0.0,0.0,0.0,0.0,0.0,0.0,0.0,0.0,0.0,0.0,0.0,0.0,0.0,0.0,0.0,0.0,0.0,0.0,0.0,0.0,0.0,0.0,0.0,0.0,0.0,0.0,0.0,0.0,0.0,0.0,0.0,0.0,0.0,0.0,0.0,-0.6742,-0.696,0.0,0.0,0.0,0.0,0.0,0.0,0.0,0.0,-0.6264,0.0,0.0,0.0,0.0,0.0,0.0,0.0,0.0,0.0,0.0,0.0,0.0,0.0,0.0,0.0,0.0,0.0,0.0,0.0,0.0,0.0,0.0,0.0,0.0,0.0,0.0,0.0,0.0,0.0,0.0,0.0,0.0,0.0,0.0,0.0,0.0,0.0,0.0,0.0,0.0,0.0,0.0,0.0,0.0,0.0,0.0,0.0,0.0,0.0,0.0,0.0,0.0,0.0,0.0,0.0,0.4674,0.4975,0.527,0.5566,0.5722,0.5728,0.5572,0.5138,0.4799,0.0,0.0,0.0,0.0,0.0,0.0,0.0,0.0,0.0,0.0,0.0,0.0,0.0,0.0,0.0,0.0,0.0,0.0,0.0,0.0,0.0,0.0,0.0,0.0,0.0,0.0,0.0,0.0,0.0,0.0,0.0,0.0,0.0,0.0,0.0,0.0,0.0,0.0,0.0,0.0,-0.7335,-0.721,-0.7853,0.0,0.0,0.0,0.0,0.0,0.0,-0.7641,-0.7078,0.0,0.0,0.0,0.0,0.0,0.0,0.0,0.0,0.0,0.0,0.0,0.0,0.0,0.0,0.0,0.0,0.0,0.0,0.0,0.0,0.0,0.0,0.0,0.0,0.0,0.0,0.0,0.0,0.0,0.0,0.0,0.0,0.0,0.0,0.0,0.0,0.0,0.0,0.0,0.0,0.0,0.0,0.0,0.0,0.0,0.0,0.0,0.0,0.0,0.0,0.0,0.0,0.0,0.0,0.0,0.4522,0.4787,0.5055,0.5274,0.5501,0.5511,0.5274,0.4836,0.4558,0.0,0.0,0.0,0.0,0.0,0.0,0.0,0.0,0.0,0.0,0.0,0.0,0.0,0.0,0.0,0.0,0.0,0.0,0.0,0.0,0.0,0.0,0.0,0.0,0.0,0.0,0.0,0.0,0.0,0.0,0.0,0.0,0.0,0.0,0.0,0.0,0.0,0.0,0.0,0.0,0.0,-0.7475,-0.8039,-0.7539,0.0,0.0,0.0,0.0,-0.8771,-0.8397,0.0,0.0,0.0,0.0,0.0,0.0,0.0,0.0,0.0,0.0,0.0,0.0,0.0,0.0,0.0,0.0,0.0,0.0,0.0,0.0,0.0,0.0,0.0,0.0,0.0,0.0,0.0,0.0,0.0,0.0,0.0,0.0,0.0,0.0,0.0,0.0,0.0,0.0,0.0,0.0,0.0,0.0,0.0,0.0,0.0,0.0,0.0,0.0,0.0,0.0,0.0,0.0,0.0,0.0,0.0,0.0,0.447,0.4541,0.4703,0.4904,0.5006,0.5003,0.4962,0.4535,0.4351,0.0,0.0,0.0,0.0,0.0,0.0,0.0,0.0,0.0,0.0,0.0,0.0,0.0,0.0,0.0,0.0,0.0,0.0,0.0,0.0,0.0,0.0,0.0,0.0,0.0,0.0,0.0,0.0,0.0,0.0,0.0,0.0,0.0,0.0,0.0,0.0,0.0,0.0,0.0,0.0,0.0,-0.7788,-0.6055,-0.7081,-0.8244,0.0,0.0,-0.8784,-0.9097,-0.9152,0.0,0.0,0.0,0.0,0.0,0.0,0.0,0.0,0.0,0.0,0.0,0.0,0.0,0.0,0.0,0.0,0.0,0.0,0.0,0.0,0.0,0.0,0.0,0.0,0.0,0.0,0.0,0.0,0.0,0.0,0.0,0.0,0.0,0.0,0.0,0.0,0.0,0.0,0.0,0.0,0.0,0.0,0.0,0.0,0.0,0.0,0.0,0.0,0.0,0.0,0.0,0.0,0.0,0.0,0.0,0.2201,0.3004,0.4009,0.4535,0.4674,0.4817,0.4836,0.4663,0.4222,0.4207,0.0,0.0,0.0,0.0,0.0,0.0,0.0,0.0,0.0,0.0,0.0,0.0,0.0,0.0,0.0,0.0,0.0,0.0,0.0,0.0,0.0,0.0,0.0,0.0,0.0,0.0,0.0,0.0,0.0,0.0,0.0,0.0,0.0,0.0,0.0,0.0,0.0,0.0,0.0,0.0,0.0,0.0,-0.746,-0.7919,0.0,0.0,0.0,-1.0195,-1.047,0.0,0.0,0.0,0.0,0.0,0.0,0.0,0.0,0.0,0.0,0.0,0.0,0.0,0.0,0.0,0.0,0.0,0.0,0.0,0.0,0.0,0.0,0.0,0.0,0.0,0.0,0.0,0.0,0.0,0.0,0.0,0.0,0.0,0.0,0.0,0.0,0.0,0.0,0.0,0.0,0.0,0.0,0.0,0.0,0.0,0.0,0.0,0.0,0.0,0.0,0.0,0.0,0.0,0.0,0.0,0.0,0.0,0.1359,0.305,0.4098,0.4467,0.4689,0.4677,0.4412,0.3975,0.0,0.0,0.0,0.0,0.0,0.0,0.0,0.0,0.0,0.0,0.0,0.0,0.0,0.0,0.0,0.0,0.0,0.0,0.0,0.0,0.0,0.0,0.0,0.0,0.0,0.0,0.0,-0.5333,0.0,0.0,0.0,0.0,0.0,0.0,0.0,0.0,0.0,0.0,0.0,0.0,0.0,0.0,-0.8831,-0.9233,-0.9079,-0.9295,0.0,0.0,-1.1412,-1.1521,-1.2236,-1.2753,0.0,0.0,0.0,0.0,0.0,0.0,0.0,0.0,0.0,0.0,0.0,0.0,0.0,0.0,0.0,0.0,0.0,0.0,0.0,0.0,0.0,0.0,0.0,0.0,0.0,0.0,0.0,0.0,0.0,0.0,0.0,0.0,0.0,0.0,0.0,0.0,0.0,0.0,0.0,0.0,0.0,0.0,0.0,0.0,0.0,0.0,0.0,0.0,0.0,0.0,0.0,0.0,0.0,0.0,0.0,0.0151,0.1617,0.3084,0.4432,0.4494,0.4419,0.421,0.3826,0.3705,0.0,0.0,0.0,0.0,0.0,0.0,0.0,0.0,0.0,0.0,0.0,0.0,0.0,0.0,0.0,0.0,0.0,0.0,0.0,0.0,0.0,0.0,0.0,0.0,0.0,0.0,0.0,0.0,0.0,0.0,0.0,0.0,0.0,0.0,0.0,0.0,0.0,0.0,0.0,0.0,0.0,-0.9799,-1.0397,-1.0541,-1.0568,0.0,0.0,-1.205,-1.176,-1.3365,-1.441,-1.3741,0.0,0.0,0.0,0.0,0.0,0.0,0.0,0.0,0.0,0.0,0.0,0.0,0.0,0.0,0.0,0.0,0.0,0.0,0.0,0.0,0.0,0.0,0.0,0.0,0.0,0.0,0.0,0.0,0.0,0.0,0.0,0.0,0.0,0.0,0.0,0.0,0.0,0.0,0.0,0.0,0.0,0.0,0.0,0.0,0.0,0.0,0.0,0.0,0.0,0.0,0.0,0.0,0.0,-0.0876,-0.0,0.0946,0.2425,0.4415,0.4477,0.4355,0.406,0.3911,0.3873,0.0,0.0,0.0,0.0,0.0,0.0,0.0,0.0,0.0,0.0,0.0,0.0,0.0,0.0,0.0,0.0,0.0,0.0,0.0,0.0,0.0,0.0,0.0,0.0,0.0,0.0,0.0,0.0,-0.5769,-0.546,-0.534,0.0,0.0,0.0,0.0,0.0,0.0,0.0,0.0,0.0,0.0,-1.0818,-1.1206,-1.115,0.0,0.0,-1.2739,-1.3468,-1.3846,-1.4821,-1.5576,-1.5742,-1.583,0.0,0.0,0.0,0.0,0.0,0.0,0.0,0.0,0.0,0.0,0.0,0.0,0.0,0.0,0.0,0.0,0.0,0.0,0.0,0.0,0.0,0.0,0.0,0.0,0.0,0.0,0.0,0.0,0.0,0.0,0.0,0.0,0.0,0.0,0.0,0.0,0.0,0.0,0.0,0.0,0.0,0.0,0.0,0.0,0.0,0.0,0.0,0.0,0.0,0.0,0.0,0.0,-0.1986,-0.0806,0.0196,0.1722,0.3802,0.422,0.4287,0.4022,0.388,0.3851,0.0,0.0,0.0,0.0,0.0,0.0,0.0,0.0,0.0,0.0,0.0,0.0,0.0,0.0,0.0,0.0,0.0,0.0,0.0,0.0,0.0,0.0,0.0,0.0,0.0,0.0,0.0,0.0,-0.6268,-0.5701,-0.5176,0.0,0.0,0.0,0.0,0.0,0.0,0.0,0.0,0.0,0.0,-1.1614,-1.2459,-1.2165,-1.2214,-1.328,-1.4146,-1.4958,-1.5753,-1.6303,-1.6783,-1.7313,0.0,0.0,0.0,0.0,0.0,0.0,0.0,0.0,0.0,0.0,0.0,0.0,0.0,0.0,0.0,0.0,0.0,0.0,0.0,0.0,0.0,0.0,0.0,0.0,0.0,0.0,0.0,0.0,0.0,0.0,-0.3354,0.0,0.0,0.0,0.0,0.0,0.0,0.0,0.0,0.0,0.0,0.0,0.0,0.0,0.0,0.0,0.0,0.0,0.0,0.0,0.0,0.0,0.0,-0.3239,-0.2627,-0.0651,0.0986,0.2279,0.3522,0.414,0.4012,0.3728,0.3565,0.3427,0.0,0.0,0.0,0.0,0.0,0.0,0.0,0.0,0.0,0.0,0.0,0.0,0.0,0.0,0.0,0.0,0.0,0.0,0.0,0.0,0.0,0.0,0.0,0.0,0.0,0.0,-0.8666,-0.7435,-0.6726,0.0,0.0,0.0,0.0,0.0,0.0,0.0,0.0,0.0,0.0,-1.0203,-1.2149,-1.4304,-1.3777,-1.3561,-1.4729,-1.57,-1.6532,-1.7081,-1.7666,-1.804,0.0,0.0,0.0,0.0,0.0,0.0,0.0,0.0,0.0,0.0,0.0,0.0,0.0,0.0,0.0,0.0,0.0,0.0,0.0,0.0,0.0,0.0,0.0,0.0,0.0,0.0,0.0,-1.6235,-1.3752,0.0,0.0,0.0,0.0,0.0,0.0,0.0,0.0,0.0,0.0,0.0,-0.42,-0.5392,0.0,0.0,0.0,0.0,0.0,0.0,0.0,0.0,0.0,0.0,0.0,0.0,-0.4208,-0.3442,-0.1662,0.0,0.1502,0.3159,0.3991,0.3873,0.3894,0.3593,0.2949,0.0,0.0,0.0,0.0,0.0,0.0,0.0,0.0,0.0,0.0,0.0,0.0,0.0,0.0,0.0,0.0,0.0,0.0,0.0,0.0,0.0,0.0,0.0,0.0,0.0,-0.8593,0.0,0.0,0.0,0.0,0.0,0.0,0.0,0.0,0.0,0.0,0.0,-0.9548,-1.0015,-1.1765,-1.3636,-1.5525,-1.5184,-1.5222,0.0,0.0,0.0,0.0,0.0,0.0,0.0,0.0,0.0,0.0,0.0,0.0,0.0,0.0,-2.1064,-1.9749,-1.9409,-1.9546,-2.0372,0.0,0.0,0.0,0.0,0.0,0.0,0.0,0.0,0.0,0.0,0.0,0.0,0.0,0.0,-1.6057,0.0,-1.232,0.0,0.0,0.0,0.0,0.0,0.0,0.0,0.0,-0.4266,-0.5767,-0.7266,-0.7479,-0.8123,0.0,-1.061,-1.1228,0.0,0.0,0.0,0.0,0.0,0.0,0.0,0.0,-0.5229,-0.3829,-0.2762,-0.1087,0.1241,0.2975,0.3865,0.3795,0.3774,0.3486,0.2917,0.3135,0.3379,0.0,0.0,0.0,0.0,0.0,0.0,0.0,0.0,0.0,0.0,0.0,0.0,0.0,0.0,0.0,0.0,0.0,0.0,0.0,0.0,0.0,0.0,0.0,-0.8962,0.0,0.0,0.0,0.0,0.0,0.0,0.0,0.0,0.0,-0.9482,-0.9995,-1.0697,-1.1411,-1.284,-1.4406,-1.6161,0.0,0.0,0.0,0.0,0.0,0.0,0.0,-2.0088,-2.0438,-2.0709,-2.1203,-2.2223,-2.3158,-2.353,-2.284,0.0,0.0,-2.1011,-2.0617,-2.0819,-2.1843,-2.1297,-2.1084,-2.242,-2.2252,-2.1794,0.0,0.0,0.0,0.0,0.0,0.0,0.0,0.0,-1.5565,-1.5447,0.0,-1.2207,0.0,0.0,0.0,0.0,0.0,0.0,0.0,0.0,-0.924,-1.0062,-1.0509,-0.9622,-0.9681,-1.0704,-1.2468,-1.3506,-1.3762,-1.2308,0.0,0.0,0.0,0.0,0.0,0.0,-0.6465,-0.3894,-0.3862,-0.2196,0.1301,0.2868,0.3661,0.3771,0.346,0.3327,0.3299,0.3482,0.3388,0.3051,0.3748,0.0,0.0,0.0,0.0,0.0,0.0,0.0,0.0,0.0,0.0,0.0,0.0,0.0,0.0,0.0,0.0,0.0,0.0,0.0,0.0,-0.9931,0.0,0.0,0.0,0.0,0.0,0.0,0.0,0.0,0.0,0.0,-1.0898,-1.1431,-1.207,-1.2764,0.0,0.0,0.0,0.0,-1.7754,-1.9316,-1.9932,-2.0438,-2.0959,-2.1023,-2.1039,-2.1055,0.0,0.0,-2.3165,-2.3915,-2.4215,-2.3425,-2.3333,-2.3148,-2.2834,-2.3067,-2.358,-2.4253,-2.3775,-2.3761,-2.4343,-2.3926,-2.3422,-0.1037,0.0,0.0,0.0,0.0,-0.9741,-1.1354,-1.3279,-1.4659,-1.4753,-1.379,-1.2559,0.0,0.0,0.0,0.0,0.0,0.0,-1.0492,-1.0213,-1.0808,-1.1328,-1.1751,-1.193,-1.2545,-1.3583,-1.3861,-1.418,-1.444,-1.3999,-1.4412,-1.5674,0.0,0.0,0.0,0.0,-0.8593,-0.6331,-0.4578,-0.2467,0.01,0.2397,0.3615,0.3662,0.3413,0.3304,0.3292,0.3288,0.3233,0.322,0.334,0.0,0.0,0.0,0.0,0.0,0.0,0.0,0.0,0.0,0.0,0.0,0.0,0.0,0.0,0.0,0.0,0.0,0.0,0.0,-0.9814,-0.7537,-0.7002,0.0,0.0,0.0,0.0,0.0,0.0,0.0,0.0,0.0,-1.287,-1.2667,-1.258,0.0,0.0,-1.6125,-1.7493,-1.8339,-1.9265,-2.0403,0.0,0.0,0.0,-2.1915,-2.1899,-2.1915,-2.2962,-2.4061,-2.4812,-2.5244,-2.5485,-2.5193,-2.4887,-2.4589,-2.4429,-2.3489,-2.3078,-2.3544,-2.3319,-2.3325,-2.4313,-2.4448,-2.4448,-0.0573,-0.1402,-0.3557,-0.5395,-0.7031,-0.7985,-0.9524,-1.1522,-1.3009,-1.3896,-1.4199,-1.2959,-1.1911,-1.0991,-0.9483,0.0,0.0,0.0,-1.3078,-1.2639,-1.3249,-1.3586,-1.37,-1.4082,-1.4645,-1.5342,-1.5389,-1.5446,-1.5542,-1.5814,-1.6637,-1.7838,0.0,0.0,-1.4992,-1.251,-1.0324,-0.843,-0.5602,-0.3187,-0.1186,0.196,0.3591,0.3584,0.3487,0.3404,0.344,0.3344,0.335,0.3401,0.3333,0.2528,0.0,0.0,0.0,0.0,0.0,0.0,0.0,0.0,0.0,0.0,0.0,-0.8324,-0.9302,0.0,0.0,0.0,-1.0771,-1.0418,-0.865,-0.7558,0.0,0.0,0.0,0.0,0.0,0.0,0.0,-1.1805,-1.2452,-1.3054,-1.3403,-1.3512,-1.3585,-1.3632,-1.525,-1.7213,-1.9447,0.0,-2.0215,-2.1343,-2.1711,-2.1957,-2.2237,-2.2327,-2.2367,-2.2699,-2.3549,-2.4546,-2.5424,-2.5967,-2.6264,-2.6227,-2.6016,-2.5783,-2.5783,-2.4721,-2.3941,-2.4406,-2.4313,-2.4513,-2.55,-2.574,-2.5914,-0.0169,-0.0782,-0.2363,-0.4246,-0.6286,-0.734,-0.8566,-0.9881,-1.1115,-1.302,-1.5146,-1.3317,-1.3233,-1.4432,-1.3447,0.0,0.0,-1.4856,-1.598,-1.5565,-1.6343,-1.649,-1.6145,-1.6134,-1.6203,-1.638,-1.6893,-1.7058,-1.6914,-1.753,-1.8394,-1.9343,-1.6521,-1.5756,-1.6866,-1.4037,-1.1787,-1.0333,-0.7058,-0.426,-0.2117,0.1636,0.3578,0.3622,0.3578,0.3578,0.3578,0.3622,0.3578,0.3588,0.3528,0.2967,0.2007,0.0,0.0,0.0,0.0,0.0,0.0,0.0,0.0,0.0,0.0,0.0,0.0,0.0,0.0,0.0,-1.1166,0.0,-0.7137,-0.9318,0.0,0.0,0.0,-1.2386,-1.1082,-1.2098,-1.2618,-1.1972,0.0,0.0,0.0,0.0,-1.4869,-1.4971,-1.5947,-1.7961,-2.1678,-2.1075,-2.0797,-2.2104,-2.2295,-2.2344,-2.2429,-2.2378,-2.2581,-2.3325,-2.3658,-2.4267,-2.5458,-2.6218,-2.6674,-2.6657,-2.6725,-2.6691,-2.6607,-2.6182,-2.6105,-2.605,-2.6131,-2.6419,-2.7086,-2.7238,-2.7297,0.069,-0.0298,-0.1756,-0.353,-0.5596,-0.7681,-0.9018,-0.9906,-1.1242,-1.2586,-1.3793,-1.337,-1.3118,-1.3055,-1.3686,-1.4265,-1.4897,-1.673,-1.7869,-1.8378,-1.8355,-1.8244,-1.8114,-1.8003,-1.7881,-1.7732,-1.7616,-1.7562,-1.7576,-1.8012,-1.8517,-1.8984,-1.8578,-1.8518,-1.8699,-1.6333,-1.3926,-1.1511,-0.9213,-0.5618,-0.0658,0.2169,0.3578,0.3578,0.3578,0.3578,0.3578,0.3578,0.3578,0.3581,0.2721,0.2501,0.3114,0.0103,0.0,0.0,0.0,0.0,0.0,0.0,0.0,0.0,0.0,-0.879,-1.021,0.0,-1.1575,0.0,-1.2461,-1.2044,-1.0648,-1.1657,0.0,0.0,-1.2407,-1.2752,-1.2421,-1.2725,-1.2822,-1.2666,-1.317,-1.3747,-1.4209,-1.5283,-1.6391,-1.7353,-1.7932,-1.8984,-2.0993,-2.1345,-2.1578,-2.2382,-2.2463,-2.2485,-2.2965,-2.2649,-2.2762,-2.4019,-2.4008,-2.4402,-2.615,-2.6556,-2.6708,-2.6742,-2.704,-2.6899,-2.6095,-2.6432,-2.6602,-2.5932,-2.5615,-2.5878,-2.7052,-2.6863,-2.6923,0.1367,0.027,-0.1394,-0.2982,-0.4526,-0.7009,-0.867,-0.9794,-1.1017,-1.2389,-1.382,-1.4366,-1.4322,-1.3938,-1.5259,-1.6338,-1.7225,-1.8476,-1.9317,-1.9745,-1.9537,-1.929,-1.8988,-1.891,-1.8699,-1.8371,-1.8565,-1.8637,-1.8724,-1.9281,-1.9743,-2.012,-2.0323,-2.0412,-2.0271,-1.7981,-1.5694,-1.3543,-0.9736,-0.5632,-0.1387,0.1108,0.284,0.3681,0.3649,0.3653,0.3715,0.3615,0.3615,0.3595,0.2971,0.1939,0.0429,-0.3108,-0.5784,0.0,0.0,0.0,0.0,0.0,0.0,0.0,0.0,0.0,0.0,0.0,-1.1783,0.0,-1.2891,0.0,-1.2344,-1.2645,-1.2733,-1.2353,-1.2675,-1.291,-1.2891,-1.2891,-1.3027,-1.3276,-1.36,-1.4226,-1.5297,-1.62,-1.7423,-1.9281,-1.9531,-2.0073,-2.1539,-2.2254,-2.2677,-2.2886,-2.3079,-2.3196,-2.3352,-2.3283,-2.349,-2.4233,-2.4282,-2.4722,-2.6398,-2.673,-2.6819,-2.7172,-2.7461,-2.7507,-2.6899,-2.7156,-2.7325,-2.6926,-2.6434,-2.6435,-2.6974,-2.6812,-2.7099,0.1897,0.0748,-0.116,-0.2446,-0.3484,-0.5903,-0.7866,-0.947,-1.0514,-1.2303,-1.4538,-1.5699,-1.6098,-1.6012,-1.7452,-1.8373,-1.8945,-1.9932,-2.0343,-2.0207,-2.0141,-1.9817,-1.9298,-1.9258,-1.9043,-1.8715,-1.948,-1.9834,-1.983,-2.0705,-2.1317,-2.1666,-2.1764,-2.1807,-2.1691,-1.9445,-1.7366,-1.547,-0.9606,-0.553,-0.3343,-0.087,0.1459,0.3383,0.3589,0.3684,0.3758,0.3694,0.3459,0.3166,0.3115,0.0993,-0.3486,-0.6707,-0.7723,0.0,-0.6927,0.0,0.0,0.0,0.0,0.0,0.0,0.0,0.0,-1.0618,-1.1592,-1.2822,-1.2891,-1.2891,-1.2891,-1.2891,-1.2891,-1.2891,-1.2891,-1.2891,-1.2891,-1.2978,-1.319,-1.3721,-1.3993,-1.4733,-1.6213,-1.7018,-1.8377,-2.0441,-2.0751,-2.1275,-2.2818,-2.3608,-2.3807,-2.3413,-2.3914,-2.3982,-2.3442,-2.3749,-2.4226,-2.4456,-2.4629,-2.5146,-2.6533,-2.6936,-2.719,-2.7593,-2.789,-2.7984,-2.7915,-2.7806,-2.7903,-2.7629,-2.7379,-2.7289,-2.7214,-2.7136,-2.7524,0.1979,0.0776,-0.0537,-0.1982,-0.3461,-0.5385,-0.7019,-0.8393,-0.9716,-1.2018,-1.4945,-1.6259,-1.729,-1.814,-1.9192,-1.9764,-1.9935,-2.0252,-2.0351,-2.0269,-2.0178,-2.002,-1.9842,-1.9619,-1.9372,-1.9146,-1.9794,-2.0007,-1.9832,-2.1214,-2.1919,-2.2028,-2.2606,-2.2904,-2.2838,0.0,0.0,0.0,-1.0836,-0.7686,-0.5541,-0.3169,-0.085,0.1382,0.3078,0.0,0.3632,0.3609,0.2692,0.0813,0.0484,0.0,0.0,0.0,0.0,0.0,0.0,0.0,0.0,0.0,0.0,0.0,-0.8652,-0.9204,-1.0517,-1.1792,-1.2618,-1.2881,-1.2891,-1.2891,-1.2891,-1.2891,-1.2891,-1.2891,-1.2891,-1.2891,-1.2929,-1.3324,-1.3684,-1.3768,-1.5016,-1.6157,-1.695,-1.8198,-1.9657,-2.1022,-2.1546,-2.2531,-2.4224,-2.4686,-2.4708,-2.4226,-2.4286,-2.4056,-2.3313,-2.3395,-2.4058,-2.4888,-2.5358,-2.5782,-2.6623,-2.7814,-2.8017,-2.7305,-2.7942,-2.8128,-2.6516,-2.7227,-2.7887,-2.633,-2.6985,-2.7847,-2.8061,-2.7397,-2.7383,0.2623,0.0,0.0551,-0.0707,0.0,-0.4078,-0.5642,-0.7081,-0.9666,-1.2455,-1.5315,-1.6556,-1.7645,-1.8617,-1.9605,-2.0142,-2.0308,-2.0359,-2.039,-2.0348,-2.0284,-2.0375,-2.0632,-2.0494,-2.0476,-2.0615,-2.1373,-2.1606,-2.1439,-2.2558,-2.3055,-2.2887,-2.324,-2.3369,-2.3189,-2.2214,-1.9767,-1.5813,-1.2584,-0.9765,-0.7443,-0.4931,-0.2658,-0.0661,0.0,0.0,0.0,0.0,0.0,0.0,0.0,0.0,0.0,0.0,0.0,-0.8136,-0.8212,-0.8427,-0.8752,-0.8804,-0.8804,-0.8804,-0.9413,-1.0056,-1.0762,-1.1733,-1.251,-1.2881,-1.2891,-1.2891,-1.2891,-1.2891,-1.2891,-1.2891,-1.2891,-1.3017,-1.3334,-1.3589,-1.4179,-1.5016,-1.586,-1.6847,-1.8173,-1.937,-2.0526,-2.1545,-2.2272,-2.3092,-2.423,-2.5085,-2.5425,-2.5402,-2.4658,-2.4122,-2.3837,-2.4089,-2.4613,-2.5786,-2.6729,-2.7206,-2.7247,-2.8207,-2.8619,-2.7597,-2.8227,-2.8512,-2.7682,-2.8082,-2.8379,-2.7543,-2.7707,-2.8191,-2.8352,-2.7863,-2.7877,0.3258,0.262,0.1629,0.0546,-0.0707,-0.2683,-0.4671,-0.6753,0.0,0.0,0.0,-1.6585,-1.7591,-1.8466,-1.9473,-2.0057,-2.0298,-2.0375,-2.039,-2.0392,-2.0381,-2.0724,-2.134,-2.132,-2.159,-2.2145,-2.2929,-2.3252,-2.3122,-2.3915,-2.4173,-2.3923,-2.3881,-2.3696,-2.3293,-2.2209,-2.0289,-1.7612,-1.4678,-1.2067,-0.9719,-0.6686,-0.4314,-0.2659,-0.0932,-0.0153,-0.0364,-0.0865,-0.1521,-0.2381,-0.4804,-0.6447,-0.7149,-0.8094,-0.8336,-0.7807,-0.8404,-0.8804,-0.8804,-0.8804,-0.8804,-0.8804,-0.9814,-1.0568,-1.0762,-1.1525,-1.2236,-1.2832,-1.2891,-1.2891,-1.2891,-1.2891,-1.292,-1.3007,-1.3113,-1.3344,-1.3862,-1.4179,-1.4914,-1.6213,-1.6806,-1.7691,-1.9607,-2.051,-2.1302,-2.2243,-2.2858,-2.3476,-2.4173,-2.5003,-2.572,-2.6128,-2.5188,-2.4321,-2.4339,-2.4688,-2.5516,-2.6151,-2.749,-2.8273,-2.7871,-2.7886,-2.7941,-2.7578,-2.8205,-2.8443,-2.837,-2.8402,-2.8682,-2.8608,-2.8458,-2.8352,-2.8456,-2.847,-2.8637,0.3262,0.2625,0.1987,0.108,-0.0084,-0.2007,-0.5305,-0.9392,-1.0879,-1.2839,-1.5137,-1.6192,-1.7311,-1.843,-1.9233,-1.9707,-1.9991,-2.0276,-2.0391,0.0,-2.0357,-2.0757,-2.1519,-2.1388,-2.1727,-2.2532,-2.3177,-2.346,-2.3526,-2.4302,-2.4682,-2.4636,-2.4636,-2.4375,-2.387,-2.3186,-2.2124,-2.0636,-1.7287,-1.4799,-1.3242,-0.9167,-0.6077,-0.4268,-0.3843,-0.3137,-0.1974,-0.3142,-0.43,-0.5056,-0.5589,-0.6411,-0.7359,-0.7757,-0.8096,-0.8587,-0.8725,-0.8804,-0.8804,-0.8804,-0.8804,-0.8811,-0.9008,-0.9562,-1.072,-1.1999,-1.2774,-1.2891,-1.2881,-1.2891,-1.2891,-1.2929,-1.3152,-1.36,-1.3821,-1.4114,-1.456,-1.5419,-1.623,-1.7032,-1.8303,-1.9542,-2.0766,-2.1516,-2.2323,-2.3332,-2.3504,-2.3676,-2.4711,-2.4989,-2.5324,-2.5888,-2.5377,-2.4714,-2.4513,-2.4518,-2.4968,-2.5459,-2.6348,-2.6921,-2.6817,-2.6033,-2.5771,-2.6591,-2.7251,-2.7233,-2.6429,-2.7053,-2.7658,-2.7475,-2.7684,-2.8155,-2.8753,-2.9096,-2.9269,0.3864,0.3126,0.2536,0.1804,0.0866,-0.1613,-0.4796,-0.829,-0.9928,-1.2303,-1.4981,-1.5912,-1.6749,-1.7611,-1.8608,-1.9225,-1.9551,-2.0028,-2.0294,-2.043,-2.0848,-2.1526,-2.2354,-2.2699,-2.3256,-2.3936,-2.4193,-2.427,-2.4252,-2.4615,-2.4804,-2.479,-2.4679,-2.4501,-2.4245,-2.3696,-2.3165,-2.2521,-1.9351,-1.6692,-1.4618,-1.1357,-0.8219,-0.5345,-0.4782,-0.4207,-0.3462,-0.4118,-0.5023,-0.61,-0.625,-0.6876,-0.8132,-0.8252,-0.8427,-0.8752,-0.8804,-0.8804,-0.8804,-0.8804,-0.8804,-0.8804,-0.9106,-0.9762,-1.0712,-1.1384,-1.1891,-1.2295,-1.2666,-1.2891,-1.2929,-1.32,-1.3505,-1.3779,-1.4165,-1.4766,-1.552,-1.6261,-1.7222,-1.8313,-1.9476,-2.0575,-2.1591,-2.2341,-2.3005,-2.3857,-2.4019,-2.4486,-2.5186,-2.5178,-2.5387,-2.6118,-2.5506,-2.4836,-2.467,-2.4578,-2.4814,-2.5449,-2.541,-2.5516,-2.5825,-2.5283,-2.5395,-2.5821,-2.6499,-2.6866,-2.6576,-2.7236,-2.7695,-2.8081,-2.8136,-2.865,-2.8952,-2.9144,-2.9465,0.4649,0.3924,0.3337,0.2578,0.1552,-0.1143,-0.3809,-0.6331,-0.832,-1.0959,-1.3821,-1.5298,-1.6156,-1.6733,-1.8009,-1.889,-1.9408,-2.0084,-2.0571,-2.0955,-2.1658,-2.2461,-2.3262,-2.3944,-2.4549,-2.5111,-2.5122,-2.5043,-2.4947,-2.4947,-2.4934,-2.4902,-2.4712,-2.4584,-2.458,-2.413,-2.378,-2.3446,-2.1143,-1.8605,-1.6043,-1.3186,-1.0182,-0.7205,-0.5528,-0.4769,-0.4952,-0.4798,-0.5399,-0.675,-0.6858,-0.745,-0.8699,-0.8804,-0.8804,-0.8804,-0.8804,-0.8804,-0.8804,-0.8804,-0.8804,-0.8804,-0.9413,-1.0012,-1.0517,-1.0864,-1.1316,-1.1981,-1.2608,-1.2978,-1.3152,-1.3573,-1.392,-1.4122,-1.488,-1.5824,-1.6689,-1.733,-1.8194,-1.9672,-2.0558,-2.1381,-2.2243,-2.3028,-2.3759,-2.4557,-2.4903,-2.5103,-2.526,-2.531,-2.5619,-2.5882,-2.5484,-2.4953,-2.4855,-2.4708,-2.4851,-2.5406,-2.4783,-2.4892,-2.5404,-2.5827,-2.5937,-2.6064,-2.6521,-2.6961,-2.7438,-2.7475,-2.7769,-2.8264,-2.8319,-2.8448,-2.8902,-2.9012,-2.9527,0.542,0.5058,0.4474,0.3281,0.1685,-0.0221,-0.2294,-0.4499,-0.6325,-0.838,-1.0867,-1.4122,-1.5743,-1.6265,-1.7645,-1.8807,-1.9817,-2.0823,-2.1628,-2.2267,-2.2714,-2.3301,-2.4018,-2.4229,-2.4678,-2.5312,-2.5418,-2.5398,-2.533,-2.532,-2.5311,-2.5233,-2.5053,-2.4879,-2.4743,-2.4534,-2.4042,-2.3259,-2.2633,-2.1101,-1.8561,-1.4514,-1.1643,-1.0306,-0.7089,-0.5706,-0.6317,-0.5764,-0.6086,-0.745,-0.7563,-0.7937,-0.8699,-0.8804,-0.8804,-0.8804,-0.8804,-0.8804,-0.8804,-0.8804,-0.8804,-0.8857,-0.9413,-0.9865,-1.0012,-1.1015,-1.1981,-1.2618,-1.2881,-1.3152,-1.3637,-1.3952,-1.4387,-1.5048,-1.6337,-1.76,-1.8109,-1.8887,-1.9738,-2.0557,-2.1447,-2.2312,-2.3145,-2.3699,-2.4539,-2.5773,-2.5492,-2.5262,-2.529,-2.5292,-2.5322,-2.5435,-2.5262,-2.519,-2.503,-2.4955,-2.4893,-2.4741,-2.4422,-2.4782,-2.563,-2.5976,-2.6068,-2.6542,-2.7258,-2.7181,-2.7016,-2.6759,-2.7108,-2.7934,-2.786,-2.742,-2.8535,-2.8975,-2.96,0.6119,0.5534,0.5091,0.4335,0.3178,0.1801,0.013,-0.1891,-0.4328,-0.6748,-0.9278,-1.2378,-1.429,-1.527,-1.6438,-1.7687,-1.9063,-2.0188,-2.1039,-2.1749,-2.3043,-2.3903,-2.4277,-2.48,-2.5208,-2.5488,-2.5503,-2.5483,-2.5456,-2.5425,-2.537,-2.5293,-2.5099,-2.4934,-2.4776,-2.4601,-2.4155,-2.3522,-2.2909,-2.1743,-1.9836,-1.6388,-1.3261,-1.0797,-0.8573,-0.7095,-0.6637,-0.6312,-0.6632,-0.7616,-0.767,-0.8049,-0.8752,-0.8804,-0.8804,-0.8804,-0.8804,-0.8804,-0.8804,-0.8804,-0.8956,-0.9368,-0.9614,-1.0115,-1.0914,-1.1516,-1.2089,-1.2774,-1.3238,-1.3552,-1.3826,-1.4525,-1.5083,-1.5492,-1.6806,-1.8163,-1.8991,-1.9808,-2.0622,-2.1464,-2.2248,-2.3023,-2.3697,-2.4296,-2.4969,-2.5788,-2.5561,-2.5389,-2.5351,-2.5303,-2.5303,-2.5313,-2.5313,-2.5274,-2.5173,-2.5077,-2.4949,-2.478,-2.4595,-2.4856,-2.517,-2.5746,-2.5987,-2.6436,-2.6652,-2.7019,-2.7346,-2.7328,-2.753,-2.8044,-2.8393,-2.826,-2.8883,-2.8975,-2.9379,0.7043,0.6435,0.6125,0.5454,0.4544,0.3597,0.2229,0.0482,-0.2245,-0.4803,-0.7228,-1.0074,-1.2483,-1.44,-1.5843,-1.729,-1.8754,-2.0114,-2.1005,-2.1711,-2.3573,-2.4386,-2.4381,-2.5137,-2.5547,-2.5566,-2.5576,-2.5565,-2.5522,-2.5464,-2.539,-2.5312,-2.5152,-2.4981,-2.4798,-2.4647,-2.4247,-2.357,-2.3017,-2.2092,-2.0575,-1.817,-1.5181,-1.1937,-0.9941,-0.8449,-0.754,-0.7122,-0.7235,-0.7937,-0.7996,-0.8209,-0.8752,-0.8804,-0.8804,-0.8804,-0.8804,-0.8804,-0.8804,-0.8962,-0.9263,-0.9769,-1.0064,-1.0771,-1.1616,-1.1981,-1.2433,-1.3094,-1.3695,-1.405,-1.4143,-1.5129,-1.5726,-1.5761,-1.7276,-1.8867,-2.0131,-2.083,-2.1434,-2.219,-2.2909,-2.3666,-2.4227,-2.4818,-2.5378,-2.5927,-2.5695,-2.5986,-2.6237,-2.6053,-2.5313,-2.5313,-2.5313,-2.5303,-2.5284,-2.5203,-2.5069,-2.496,-2.4796,-2.4747,-2.4834,-2.551,-2.6243,-2.6816,-2.6364,-2.6631,-2.7714,-2.8099,-2.7897,-2.8466,-2.8773,-2.8883,-2.8975,-2.8975,-2.8989,0.8297,0.8114,0.7827,0.6752,0.5211,0.4642,0.3677,0.2424,-0.0046,-0.2183,-0.4306,-0.7257,-1.0382,-1.3593,-1.6247,-1.8313,-1.9579,-2.1092,-2.2155,-2.2862,-2.4324,-2.4745,-2.4282,-2.5156,-2.5566,-2.5547,-2.5628,-2.5641,-2.5581,-2.5518,-2.5466,-2.539,-2.5302,-2.5115,-2.4832,-2.4779,-2.4244,-2.3356,-2.3171,-2.2418,-2.0909,-1.9703,-1.7559,-1.444,-1.1296,-0.9694,-0.9429,-0.8349,-0.8043,-0.8699,-0.8752,-0.8804,-0.8804,-0.8811,-0.8804,-0.8804,-0.8811,-0.8804,-0.891,-0.9413,-0.9814,-1.002,-1.0965,-1.1715,-1.1913,-1.2491,-1.3084,-1.3684,-1.4283,-1.4652,-1.4824,-1.574,-1.6401,-1.6613,-1.8275,-2.0131,-2.1892,-2.1943,-2.2224,-2.2669,-2.3418,-2.4192,-2.4917,-2.5233,-2.5846,-2.6385,-2.6067,-2.625,-2.8126,-2.6997,-2.5582,-2.5322,-2.5341,-2.5322,-2.5303,-2.5264,-2.5173,-2.508,-2.5049,-2.5095,-2.5548,-2.6034,-2.6711,-2.7378,-2.7645,-2.8,-2.8544,-2.8521,-2.8099,-2.8301,-2.876,-2.892,-2.8975,-2.8975,-2.8994,0.9408,0.8928,0.8518,0.8031,0.7397,0.6451,0.5443,0.4239,0.1713,-0.0586,-0.3019,-0.6224,-0.9131,-1.1694,-1.5226,-1.787,-1.9735,-2.0614,-2.1612,-2.2841,-2.4181,-2.487,-2.5082,-2.5394,-2.5579,-2.5621,-2.5636,-2.559,-2.5539,-2.5467,-2.5428,-2.537,-2.5201,-2.4993,-2.4799,-2.4689,-2.4137,-2.3287,-2.3189,-2.2574,-2.1409,-2.0623,-1.9221,-1.7117,-1.3878,-1.1563,-1.0375,-0.9931,-0.9592,-0.9465,-0.9465,-0.9465,-0.9413,-0.9008,-0.8804,-0.8857,-0.9211,-0.9524,-0.9695,-1.0131,-1.0618,-1.1065,-1.1516,-1.207,-1.2501,-1.3084,-1.36,-1.392,-1.4732,-1.5353,-1.5872,-1.6519,-1.7142,-1.7679,-1.9196,-2.0846,-2.1974,-2.259,-2.288,-2.3147,-2.3873,-2.4689,-2.5042,-2.5332,-2.5682,-2.6064,-2.5781,-2.6204,-2.6765,-2.6034,-2.5313,-2.5409,-2.5745,-2.5937,-2.5303,-2.5303,-2.5264,-2.5243,-2.5248,-2.5504,-2.5866,-2.5977,-2.6472,-2.7326,-2.8063,-2.8393,-2.8548,-2.8833,-2.8411,-2.8521,-2.892,-2.8938,-2.8975,-2.8975,-2.8975,1.0368,0.996,0.9716,0.9553,0.9316,0.8377,0.7449,0.6338,0.3859,0.1766,-0.0306,-0.3932,-0.689,-0.9315,-1.2857,-1.6362,-1.9291,-2.0341,-2.1493,-2.2702,-2.4033,-2.4809,-2.51,-2.539,-2.5574,-2.5613,-2.559,-2.5541,-2.5496,-2.5422,-2.5399,-2.538,-2.5138,-2.4924,-2.4785,-2.461,-2.408,-2.3374,-2.3189,-2.2746,-2.1878,-2.1318,-2.0541,-1.9123,-1.6647,-1.408,-1.1786,-1.1314,-1.0805,-1.021,-1.0115,-1.002,-0.9762,-0.9159,-0.8804,-0.8857,-0.9413,-1.0066,-1.0585,-1.0922,-1.1316,-1.1765,-1.2258,-1.2716,-1.319,-1.3742,-1.4143,-1.4503,-1.5252,-1.6176,-1.7016,-1.7529,-1.7829,-1.8308,-1.9924,-2.1622,-2.2728,-2.3175,-2.3459,-2.3792,-2.4402,-2.496,-2.5285,-2.5687,-2.5835,-2.5753,-2.5765,-2.5863,-2.5591,-2.5428,-2.5313,-2.5351,-2.5707,-2.5745,-2.5437,-2.5303,-2.5303,-2.5283,-2.5273,-2.5623,-2.6082,-2.6104,-2.6513,-2.732,-2.7864,-2.8183,-2.8496,-2.887,-2.8975,-2.8975,-2.8975,-2.8957,-2.8975,-2.8975,-2.8998,1.1295,1.1343,1.1512,1.1328,1.0941,1.0153,0.9602,0.873,0.6315,0.493,0.3948,0.0,-0.351,-0.6243,-0.9595,-1.362,-1.7763,-2.036,-2.1927,-2.2757,-2.4091,-2.4598,-2.4491,-2.5222,-2.5537,-2.5529,-2.5498,-2.5495,-2.5457,-2.539,-2.534,-2.532,-2.5072,-2.4858,-2.479,-2.4524,-2.4061,-2.3401,-2.3212,-2.289,-2.2332,-2.1853,-2.1303,-2.0639,-1.9159,-1.6956,-1.3895,-1.256,-1.1702,-1.109,-1.0906,-1.0509,-0.9917,-0.9309,-0.885,-0.8935,-0.9451,-1.0363,-1.137,-1.1731,-1.1814,-1.2159,-1.3044,-1.3627,-1.3826,-1.4422,-1.5005,-1.5487,-1.6244,-1.7149,-1.8413,-1.8626,-1.8582,-1.8499,-2.0626,-2.2493,-2.3552,-2.3849,-2.3984,-2.4551,-2.494,-2.5201,-2.5578,-2.6006,-2.6234,-2.6167,-2.6178,-2.6111,-2.5505,-2.5332,-2.5313,-2.5322,-2.5591,-2.5774,-2.5534,-2.5322,-2.5322,-2.5322,-2.5312,-2.5522,-2.6255,-2.6567,-2.7201,-2.7935,-2.8339,-2.8647,-2.8676,-2.8975,-2.8975,-2.8975,-2.8975,-2.8998,-2.9003,-2.8984,-2.898,1.2785,1.3169,1.2914,1.277,1.2524,1.1555,1.1135,1.0838,0.8352,0.7085,0.6083,0.3061,0.0053,-0.3051,-0.7008,-1.1211,-1.5277,-1.874,-2.1518,-2.3282,-2.4192,-2.4733,-2.5089,-2.5392,-2.5488,-2.5453,-2.5434,-2.5357,-2.5256,-2.5191,-2.5075,-2.4955,-2.4783,-2.4636,-2.4591,-2.4393,-2.4018,-2.3588,-2.3323,-2.2989,-2.259,-2.2243,-2.1836,-2.1334,-2.0541,-1.9241,-1.7559,-1.5464,-1.4063,-1.3346,-1.257,-1.1648,-1.0712,-1.0269,-0.9731,-0.9073,-1.0327,-1.1536,-1.2282,-1.2546,-1.2774,-1.314,-1.3616,-1.4003,-1.4468,-1.5342,-1.5947,-1.6386,-1.7731,-1.9147,-1.9426,-1.9313,-1.9672,-2.0734,-2.1839,-2.279,-2.3501,-2.3756,-2.419,-2.4766,-2.5,-2.5152,-2.5385,-2.582,-2.6273,-2.6891,-2.6467,-2.5707,-2.5399,-2.5313,-2.5313,-2.5303,-2.564,-2.5813,-2.5534,-2.5687,-2.6043,-2.5687,-2.5427,-2.5437,-2.6154,-2.7026,-2.7721,-2.835,-2.8746,-2.8915,-2.8962,-2.8975,-2.8975,-2.8975,-2.8975,-2.9003,-2.8993,-2.8993,-2.8984,1.4049,1.4612,1.4087,1.4048,1.4128,1.3216,1.2866,1.273,1.0771,0.9684,0.8868,0.6132,0.3687,0.1042,-0.3301,-0.7909,-1.2278,-1.6413,-2.0242,-2.3324,-2.4128,-2.4733,-2.539,-2.5395,-2.5277,-2.5187,-2.518,-2.5291,-2.5446,-2.5384,-2.5333,-2.5268,-2.5346,-2.5054,-2.4608,-2.458,-2.4383,-2.3747,-2.3369,-2.3045,-2.2738,-2.2453,-2.218,-2.1807,-2.1287,-2.0751,-2.0035,-1.851,-1.6942,-1.5476,-1.4144,-1.303,-1.2203,-1.1782,-1.1137,-1.0805,-1.1621,-1.29,-1.3614,-1.3703,-1.3826,-1.4343,-1.4653,-1.5005,-1.566,-1.6638,-1.7356,-1.811,-1.9549,-2.0879,-2.136,-2.0782,-2.1351,-2.338,-2.3347,-2.3428,-2.3681,-2.4026,-2.4432,-2.4911,-2.5115,-2.5206,-2.5346,-2.5793,-2.6097,-2.6852,-2.6428,-2.562,-2.5457,-2.5313,-2.5313,-2.5351,-2.5553,-2.5591,-2.5476,-2.5967,-2.6717,-2.6206,-2.5581,-2.5581,-2.5898,-2.6917,-2.7727,-2.8483,-2.8997,-2.8948,-2.8975,-2.8975,-2.8975,-2.8975,-2.8975,-2.898,-2.8984,-2.9003,-2.8998,1.5096,1.5543,1.505,1.5136,1.557,1.4919,1.4696,1.4595,1.3242,1.256,1.1944,0.9357,0.7422,0.5613,0.1489,-0.3402,-0.8985,-1.3506,-1.7825,-2.1608,-2.3438,-2.4492,-2.5126,-2.5129,-2.4968,-2.4745,-2.4813,-2.5133,-2.5546,-2.5747,-2.5973,-2.5855,-2.6171,-2.6024,-2.491,-2.5096,-2.4677,-2.3868,-2.3392,-2.3045,-2.2746,-2.2436,-2.2282,-2.2237,-2.1764,-2.1475,-2.1411,-2.1006,-1.9714,-1.7236,-1.5624,-1.4875,-1.4496,-1.3594,-1.3134,-1.2963,-1.3528,-1.4466,-1.513,-1.5108,-1.5149,-1.5738,-1.6236,-1.6764,-1.7384,-1.8275,-1.9163,-2.002,-2.1365,-2.2633,-2.3384,-2.3271,-2.3749,-2.5433,-2.4813,-2.4275,-2.4569,-2.4941,-2.5304,-2.5263,-2.5327,-2.5486,-2.5601,-2.6169,-2.6188,-2.5967,-2.611,-2.6063,-2.5534,-2.5313,-2.5313,-2.5418,-2.5591,-2.5822,-2.587,-2.6928,-2.7533,-2.6868,-2.6178,-2.5979,-2.6052,-2.6954,-2.7899,-2.8639,-2.9048,-2.9021,-2.8975,-2.8975,-2.8975,-2.8975,-2.8975,-2.8975,-2.8998,-2.898,-2.898,1.5732,1.6225,1.6107,1.612,1.6193,1.5652,1.566,1.5868,1.4711,1.4128,1.3761,1.2712,1.1011,0.9207,0.6396,0.2047,-0.3328,-0.9397,-1.4042,-1.7815,-2.2054,-2.376,-2.4363,-2.471,-2.4579,-2.419,-2.4484,-2.4714,-2.4634,-2.5372,-2.567,-2.5579,-2.5799,-2.5686,-2.5187,-2.4798,-2.4409,-2.4032,-2.3477,-2.32,-2.3025,-2.2544,-2.231,-2.2282,-2.2123,-2.2077,-2.2061,-2.1748,-2.0526,-1.835,-1.7716,-1.7221,-1.677,-1.6365,-1.5915,-1.555,-1.5818,-1.6464,-1.7125,-1.6764,-1.6792,-1.7577,-1.7918,-1.8295,-1.915,-1.9817,-2.0397,-2.1229,-2.2752,-2.4138,-2.4533,-2.559,-2.6716,-2.6944,-2.5706,-2.4872,-2.5687,-2.6574,-2.6898,-2.6346,-2.6235,-2.6206,-2.6351,-2.639,-2.636,-2.585,-2.5956,-2.6274,-2.5563,-2.5313,-2.5313,-2.5553,-2.5783,-2.612,-2.6659,-2.7775,-2.8153,-2.7523,-2.695,-2.6518,-2.6744,-2.7293,-2.8185,-2.9005,-2.9007,-2.8998,-2.8975,-2.8975,-2.8975,-2.8975,-2.8975,-2.8998,-2.9007,-2.8993,-2.8989,1.6857,1.7146,1.7188,1.7146,1.7105,1.6544,1.6502,1.6655,1.6145,1.5463,1.5093,1.5043,1.4205,1.2706,1.0669,0.7702,0.3243,-0.366,-0.8964,-1.3534,-1.9367,-2.2575,-2.3494,-2.4063,-2.4008,-2.364,-2.395,-2.4208,-2.4436,-2.4949,-2.5353,-2.5821,-2.5756,-2.5774,-2.5899,-2.5493,-2.5082,-2.486,-2.4175,-2.3636,-2.3455,-2.2699,-2.2338,-2.2327,-2.2327,-2.2327,-2.2254,-2.2032,-2.1115,-1.9848,-1.9331,-1.9072,-1.8724,-1.8489,-1.8134,-1.7661,-1.7873,-1.8257,-1.8711,-1.8464,-1.8637,-1.9459,-1.987,-2.0487,-2.1182,-2.1744,-2.2228,-2.363,-2.475,-2.5539,-2.6417,-2.7707,-2.8239,-2.7942,-2.7079,-2.6575,-2.6892,-2.7407,-2.7612,-2.7245,-2.6851,-2.6794,-2.7024,-2.6832,-2.6601,-2.636,-2.6063,-2.587,-2.5399,-2.5341,-2.5322,-2.5504,-2.5927,-2.6331,-2.6897,-2.7945,-2.8542,-2.7998,-2.7569,-2.715,-2.7091,-2.7525,-2.8368,-2.9005,-2.8989,-2.8975,-2.8975,-2.8975,-2.8975,-2.8975,-2.8975,-2.8998,-2.9007,-2.8993,-2.8989,1.8092,1.8092,1.8092,1.8092,1.7973,1.7666,1.7409,1.7381,1.7409,1.6844,1.623,1.6699,1.6608,1.6319,1.4574,1.2745,1.0322,0.3004,-0.3994,-1.0184,-1.6521,-2.0703,-2.241,-2.3046,-2.3127,-2.3023,-2.31,-2.3649,-2.4129,-2.4295,-2.5093,-2.5724,-2.5837,-2.6032,-2.5849,-2.595,-2.5968,-2.5247,-2.4331,-2.3769,-2.3458,-2.2754,-2.2344,-2.2327,-2.2327,-2.2327,-2.2327,-2.2225,-2.1853,-2.115,-2.0685,-2.0457,-2.0327,-1.9909,-1.9687,-1.9702,-1.9767,-2.0039,-2.0137,-2.03,-2.0575,-2.1282,-2.2049,-2.2798,-2.3164,-2.3621,-2.4515,-2.5824,-2.6369,-2.7066,-2.8218,-2.8938,-2.8793,-2.854,-2.9,-2.8885,-2.812,-2.7835,-2.7864,-2.7755,-2.7044,-2.7236,-2.739,-2.7351,-2.6986,-2.7091,-2.664,-2.588,-2.5514,-2.5322,-2.5264,-2.5252,-2.5838,-2.654,-2.722,-2.8007,-2.8395,-2.8434,-2.807,-2.7681,-2.7233,-2.7641,-2.8487,-2.9005,-2.8984,-2.8975,-2.8975,-2.8975,-2.8975,-2.8975,-2.8975,-2.8975,-2.8998,-2.9003,-2.9003,1.8092,1.8092,1.8092,1.8092,1.8131,1.8363,1.8285,1.7973,1.8363,1.8101,1.7799,1.8135,1.8427,1.8483,1.8036,1.704,1.4814,0.8727,0.0428,-1.059,-1.4347,-1.7807,-1.9997,-2.1259,-2.197,-2.2129,-2.2813,-2.3017,-2.3033,-2.3779,-2.4502,-2.4801,-2.4879,-2.4831,-2.4945,-2.4598,-2.3932,-2.3732,-2.3365,-2.3197,-2.3058,-2.2641,-2.2327,-2.2327,-2.2327,-2.2327,-2.2327,-2.2327,-2.2209,-2.2032,-2.1869,-2.1672,-2.1642,-2.1595,-2.1364,-2.1274,-2.1864,-2.2109,-2.1895,-2.2271,-2.2819,-2.272,-2.3405,-2.4144,-2.451,-2.5135,-2.5816,-2.6645,-2.7108,-2.7812,-2.8773,-2.8975,-2.9012,-2.9116,-2.9345,-2.9342,-2.8641,-2.808,-2.7514,-2.7274,-2.739,-2.7698,-2.7909,-2.7871,-2.7736,-2.7764,-2.7052,-2.611,-2.5658,-2.5321,-2.5212,-2.5118,-2.5734,-2.6479,-2.7313,-2.8055,-2.8594,-2.8789,-2.8521,-2.8017,-2.7574,-2.7461,-2.823,-2.8699,-2.898,-2.8957,-2.8925,-2.8975,-2.8975,-2.8975,-2.8975,-2.8975,-2.8975,-2.8975,-2.8975,1.9468,1.9483,1.9468,1.9468,1.9468,1.9439,1.933,1.9148,1.933,1.917,1.9023,1.9672,2.0131,2.0256,2.0809,2.0636,1.9542,1.6227,0.7681,-0.2824,-0.8293,-1.2626,-1.6545,-1.8281,-1.9314,-2.0703,-2.1938,-2.2107,-2.2215,-2.2681,-2.3369,-2.4032,-2.3804,-2.4264,-2.4718,-2.4091,-2.406,-2.4067,-2.3554,-2.324,-2.3014,-2.2541,-2.2327,-2.2327,-2.2327,-2.2327,-2.2327,-2.2327,-2.2496,-2.2649,-2.2513,-2.2327,-2.2327,-2.231,-2.2203,-2.2271,-2.2439,-2.2972,-2.2987,-2.3316,-2.3602,-2.3718,-2.441,-2.5077,-2.5568,-2.6122,-2.6826,-2.7449,-2.786,-2.8117,-2.8888,-2.8975,-2.9134,-2.9293,-2.9359,-2.9026,-2.8161,-2.7262,-2.7179,-2.7396,-2.789,-2.8409,-2.864,-2.8426,-2.8179,-2.8082,-2.7176,-2.6243,-2.5524,-2.5214,-2.5087,-2.5158,-2.5728,-2.6446,-2.7308,-2.8105,-2.8857,-2.8988,-2.8903,-2.8307,-2.7727,-2.7705,-2.7831,-2.825,-2.8613,-2.8815,-2.8796,-2.8888,-2.8975,-2.8975,-2.8975,-2.8975,-2.8975,-2.8975,-2.8975,2.1007,2.0991,2.0943,2.0943,2.0943,2.0525,2.0362,2.0391,2.0407,2.0226,2.0048,2.1162,2.1444,2.1803,2.257,2.3446,2.3139,2.1672,1.3825,0.4302,-0.0795,-0.624,-1.1027,-1.3586,-1.583,-1.907,-2.0607,-2.1051,-2.1193,-2.1535,-2.2353,-2.311,-2.3006,-2.3284,-2.4384,-2.4417,-2.3929,-2.4053,-2.3636,-2.3337,-2.3102,-2.2547,-2.2344,-2.2327,-2.2327,-2.2327,-2.2327,-2.2361,-2.2564,-2.3139,-2.2632,-2.2429,-2.2446,-2.2327,-2.2388,-2.2599,-2.2668,-2.3066,-2.3519,-2.3768,-2.4024,-2.4443,-2.5142,-2.5931,-2.6573,-2.7028,-2.7688,-2.8187,-2.8539,-2.8319,-2.8906,-2.8975,-2.9112,-2.9212,-2.9114,-2.8428,-2.7255,-2.6031,-2.6308,-2.772,-2.8045,-2.8492,-2.8919,-2.8982,-2.8683,-2.8264,-2.7338,-2.6461,-2.5746,-2.5425,-2.5446,-2.5234,-2.5702,-2.6174,-2.6985,-2.8349,-2.9061,-2.9047,-2.9067,-2.8504,-2.786,-2.7677,-2.7677,-2.786,-2.8154,-2.8466,-2.8778,-2.8925,-2.8975,-2.8975,-2.8975,-2.8975,-2.8975,-2.8975,-2.8975,2.1007,2.0959,2.0776,2.081,2.1006,2.1114,2.1249,2.1299,2.1364,2.142,2.1508,2.1871,2.2427,2.2914,2.3272,2.3441,2.3329,2.2173,1.8055,1.0569,0.6137,0.0957,-0.551,-0.828,-1.1186,-1.5054,-1.7817,-1.9391,-2.0107,-2.0991,-2.1433,-2.1636,-2.2065,-2.2558,-2.2507,-2.2462,-2.2777,-2.3028,-2.2796,-2.2626,-2.2575,-2.2446,-2.2327,-2.2327,-2.2327,-2.2361,-2.2361,-2.2344,-2.2378,-2.2479,-2.2333,-2.2665,-2.3004,-2.275,-2.2485,-2.2737,-2.3229,-2.365,-2.3997,-2.4409,-2.4982,-2.5588,-2.602,-2.6664,-2.7438,-2.8099,-2.8429,-2.8723,-2.8888,-2.8833,-2.8938,-2.8975,-2.8998,-2.903,-2.895,-2.8463,-2.7121,-2.6077,-2.5439,-2.699,-2.7733,-2.8453,-2.8974,-2.9383,-2.9276,-2.8849,-2.8096,-2.7071,-2.6146,-2.6132,-2.6352,-2.6028,-2.5666,-2.6098,-2.661,-2.8179,-2.9256,-2.9067,-2.8938,-2.8588,-2.8026,-2.76,-2.7545,-2.7805,-2.8191,-2.865,-2.8847,-2.8957,-2.8975,-2.8975,-2.8975,-2.8975,-2.8975,-2.8975,-2.8975,2.1691,2.1688,2.1664,2.1765,2.1905,2.201,2.2183,2.2329,2.2252,2.231,2.2574,2.2783,2.3146,2.3676,2.4107,2.4086,2.3752,2.2794,1.9646,1.514,1.2757,0.7484,0.0,-0.2759,-0.6422,-1.0407,-1.4111,-1.6957,-1.8355,-1.9828,-2.0387,-2.0552,-2.1165,-2.1493,-2.1385,-2.154,-2.1735,-2.1869,-2.1945,-2.2077,-2.2265,-2.2282,-2.2282,-2.2299,-2.2333,-2.2496,-2.2767,-2.2429,-2.2953,-2.3579,-2.2936,-2.3274,-2.3731,-2.3625,-2.3119,-2.3584,-2.3839,-2.4219,-2.4634,-2.5187,-2.5589,-2.5901,-2.6209,-2.679,-2.7541,-2.8099,-2.8613,-2.8906,-2.8975,-2.8975,-2.8975,-2.8975,-2.8975,-2.8998,-2.8984,-2.8463,-2.7624,-2.6903,-2.6746,-2.673,-2.7279,-2.8202,-2.9209,-2.9554,-2.9749,-2.9387,-2.8783,-2.7854,-2.6745,-2.681,-2.7121,-2.686,-2.6505,-2.6759,-2.7129,-2.8157,-2.9206,-2.9089,-2.8943,-2.8594,-2.8352,-2.8003,-2.7801,-2.7824,-2.8282,-2.8741,-2.8883,-2.8975,-2.8975,-2.8975,-2.8975,-2.8975,-2.8975,-2.8975,-2.8975,2.2415,2.2508,2.2582,2.2683,2.2805,2.295,2.3105,2.3189,2.2905,2.3034,2.3446,2.3572,2.3841,2.4289,2.4612,2.4766,2.4577,2.3047,2.0892,1.8994,1.7274,1.2522,0.6884,0.2197,-0.1112,-0.5739,-0.9754,-1.3401,-1.6664,-1.8503,-1.9221,-1.9733,-2.0385,-2.0862,-2.0894,-2.1023,-2.1213,-2.1368,-2.1491,-2.1705,-2.1928,-2.2113,-2.2175,-2.2147,-2.2158,-2.2519,-2.3156,-2.2902,-2.3511,-2.4154,-2.3968,-2.3646,-2.5017,-2.4475,-2.433,-2.4977,-2.4471,-2.4626,-2.5142,-2.5507,-2.5685,-2.6161,-2.6144,-2.6826,-2.7606,-2.8196,-2.8411,-2.8851,-2.8975,-2.8975,-2.8975,-2.8975,-2.8975,-2.8998,-2.8952,-2.8739,-2.8165,-2.7702,-2.7669,-2.7598,-2.7475,-2.7808,-2.8686,-2.9435,-2.958,-2.9512,-2.8928,-2.8866,-2.79,-2.7624,-2.7725,-2.7643,-2.7521,-2.7687,-2.7952,-2.8246,-2.896,-2.9044,-2.898,-2.8796,-2.8686,-2.8517,-2.8356,-2.8191,-2.8264,-2.8686,-2.8851,-2.8975,-2.8975,-2.8975,-2.8975,-2.8975,-2.8975,-2.8975,-2.8975,2.2822,2.3058,2.2567,2.2638,2.3171,2.3715,2.3847,2.361,2.3305,2.362,2.4246,2.4118,2.4361,2.4841,2.4977,2.4826,2.4114,2.3055,2.1764,2.0369,1.8716,1.6245,1.2802,0.8385,0.3639,-0.107,-0.5183,-1.0212,-1.4171,-1.6689,-1.8313,-1.8867,-1.9632,-2.032,-2.0299,-2.0501,-2.1007,-2.1055,-2.1086,-2.1118,-2.1243,-2.1536,-2.1674,-2.1707,-2.1795,-2.2224,-2.3182,-2.3194,-2.3799,-2.4475,-2.4489,-2.4661,-2.5423,-2.5507,-2.5761,-2.5875,-2.5402,-2.4642,-2.5272,-2.5459,-2.5762,-2.6376,-2.6627,-2.7237,-2.794,-2.85,-2.8709,-2.8925,-2.8975,-2.8975,-2.8975,-2.8975,-2.8975,-2.8998,-2.8962,-2.8617,-2.8154,-2.8209,-2.8213,-2.8158,-2.795,-2.7639,-2.7922,-2.8726,-2.9363,-2.927,-2.9192,-2.9102,-2.8949,-2.8521,-2.8246,-2.8143,-2.8176,-2.8301,-2.8356,-2.8723,-2.8828,-2.8975,-2.8957,-2.8943,-2.887,-2.8792,-2.8847,-2.8741,-2.8723,-2.8686,-2.8888,-2.8975,-2.8975,-2.8975,-2.8975,-2.8975,-2.8975,-2.8975,-2.8975,2.3236,2.3194,2.3119,2.3239,2.3526,2.393,2.4132,2.4099,2.3931,2.4152,2.4601,2.4666,2.4898,2.5203,2.52,2.4908,2.4379,2.3388,2.2005,2.0817,1.9231,1.7343,1.4484,1.1649,0.7856,0.3176,-0.0932,-0.5132,-0.9873,-1.3961,-1.6316,-1.7518,-1.8474,-1.9192,-1.9426,-1.9707,-2.0128,-2.0467,-2.0829,-2.1007,-2.1055,-2.1165,-2.1259,-2.1275,-2.1486,-2.2142,-2.2842,-2.3334,-2.4019,-2.4729,-2.478,-2.4847,-2.5406,-2.5609,-2.5778,-2.593,-2.5947,-2.5862,-2.6047,-2.5956,-2.625,-2.6649,-2.7099,-2.7727,-2.8288,-2.854,-2.87,-2.8658,-2.8863,-2.8975,-2.8975,-2.8975,-2.8975,-2.8975,-2.8975,-2.8851,-2.8539,-2.848,-2.8498,-2.8462,-2.8393,-2.8061,-2.7775,-2.8262,-2.8878,-2.8938,-2.8942,-2.8992,-2.8981,-2.8872,-2.8672,-2.8594,-2.8668,-2.8796,-2.8778,-2.8888,-2.8883,-2.8975,-2.8994,-2.8957,-2.8975,-2.8957,-2.8842,-2.8897,-2.8883,-2.8883,-2.8975,-2.8975,-2.8975,-2.8975,-2.8975,-2.8975,-2.8975,-2.8975,-2.92,2.3762,2.3556,2.3801,2.3941,2.3984,2.4137,2.4352,2.454,2.4454,2.4587,2.4843,2.5015,2.5207,2.5279,2.5101,2.4743,2.4317,2.3654,2.2166,2.0673,1.9501,1.8002,1.583,1.3678,1.0854,0.6722,0.2722,-0.1407,-0.5641,-0.9651,-1.3101,-1.554,-1.6565,-1.7585,-1.8299,-1.8569,-1.8881,-1.9606,-2.04,-2.0583,-2.0516,-2.0827,-2.0909,-2.0975,-2.1278,-2.195,-2.2878,-2.3045,-2.3885,-2.5152,-2.5118,-2.5152,-2.5541,-2.5625,-2.5795,-2.5964,-2.6116,-2.6268,-2.6454,-2.6572,-2.6704,-2.6926,-2.7278,-2.7763,-2.8174,-2.8316,-2.8515,-2.8633,-2.8839,-2.8994,-2.8975,-2.8975,-2.8975,-2.8975,-2.8975,-2.8975,-2.8957,-2.8787,-2.8677,-2.8645,-2.8576,-2.8411,-2.8217,-2.8176,-2.836,-2.8539,-2.8663,-2.8833,-2.8925,-2.8975,-2.892,-2.8792,-2.8847,-2.8938,-2.8915,-2.8915,-2.8952,-2.8905,-2.8905,-2.8863,-2.8797,-2.8573,-2.8312,-2.8487,-2.8827,-2.891,-2.891,-2.8952,-2.8975,-2.8975,-2.8975,-2.8975,-2.8975,-2.8994,-2.9475,2.4425,2.4408,2.4481,2.4596,2.4678,2.4798,2.4813,2.479,2.4759,2.4889,2.5092,2.5154,2.5161,2.5046,2.4878,2.4429,2.3587,2.3146,2.2141,2.1157,2.032,1.9163,1.729,1.5246,1.3011,1.0303,0.6355,0.201,-0.2017,-0.5435,-0.9489,-1.3088,-1.444,-1.5795,-1.6866,-1.7545,-1.7932,-1.8707,-1.9641,-1.9849,-1.9788,-2.0153,-2.0718,-2.0503,-2.0879,-2.1839,-2.3539,-2.3107,-2.3431,-2.5157,-2.5205,-2.5084,-2.5186,-2.5507,-2.5778,-2.593,-2.6082,-2.6285,-2.6573,-2.6691,-2.6708,-2.6824,-2.7098,-2.75,-2.788,-2.8219,-2.8515,-2.8749,-2.8858,-2.8929,-2.8952,-2.8975,-2.8975,-2.8845,-2.8803,-2.8785,-2.8803,-2.8863,-2.8795,-2.8787,-2.8677,-2.8438,-2.8033,-2.7858,-2.8155,-2.8379,-2.8553,-2.8723,-2.8925,-2.8975,-2.8952,-2.8892,-2.8892,-2.8929,-2.891,-2.8839,-2.8651,-2.8583,-2.8583,-2.8533,-2.8489,-2.8193,-2.7994,-2.825,-2.859,-2.8707,-2.8797,-2.87,-2.87,-2.8929,-2.8952,-2.8767,-2.8828,-2.8919,-2.9716,2.462,2.4804,2.4842,2.4826,2.4816,2.493,2.5015,2.5061,2.512,2.5246,2.5343,2.5305,2.5215,2.5042,2.4834,2.4337,2.3539,2.3221,2.2339,2.1576,2.083,2.0047,1.8521,1.6874,1.4859,1.2422,0.9148,0.5839,0.1978,-0.1646,-0.4871,-0.8343,-1.1959,-1.4519,-1.5825,-1.678,-1.745,-1.8064,-1.8887,-1.9177,-1.9236,-1.9606,-2.0097,-2.0004,-2.0335,-2.0681,-2.1337,-2.2329,-2.3043,-2.3796,-2.4536,-2.4613,-2.4644,-2.5135,-2.5456,-2.5625,-2.5778,-2.6319,-2.6573,-2.6725,-2.6808,-2.6987,-2.7051,-2.7115,-2.753,-2.788,-2.812,-2.8378,-2.8743,-2.8876,-2.8658,-2.8821,-2.891,-2.867,-2.856,-2.8542,-2.8578,-2.8633,-2.8583,-2.8442,-2.8406,-2.8308,-2.7821,-2.7351,-2.784,-2.826,-2.8439,-2.8608,-2.8837,-2.8858,-2.8785,-2.8694,-2.8694,-2.8533,-2.8507,-2.8386,-2.8281,-2.8237,-2.8237,-2.8166,-2.8094,-2.8084,-2.7977,-2.8192,-2.8264,-2.8264,-2.8308,-2.8308,-2.8404,-2.8583,-2.85,-2.8335,-2.8505,-2.8755,-2.9474,2.4795,2.4991,2.5083,2.5058,2.5001,2.5077,2.5186,2.5286,2.5385,2.5444,2.5444,2.5305,2.5149,2.4969,2.4695,2.4191,2.3545,2.3159,2.2434,2.1681,2.1007,2.0434,1.936,1.7848,1.5844,1.3822,1.1592,0.8555,0.5464,0.168,-0.1824,-0.5553,-0.9512,-1.2454,-1.4733,-1.6188,-1.7122,-1.741,-1.821,-1.8496,-1.8535,-1.9251,-1.9558,-1.9651,-2.0135,-2.0626,-2.0884,-2.1616,-2.2278,-2.2926,-2.3429,-2.3712,-2.4005,-2.4357,-2.4831,-2.5084,-2.5507,-2.6336,-2.6639,-2.6741,-2.6841,-2.6922,-2.6873,-2.6971,-2.7272,-2.7577,-2.7783,-2.8,-2.844,-2.8612,-2.8246,-2.8214,-2.8319,-2.8076,-2.8147,-2.8147,-2.8201,-2.8255,-2.8174,-2.8029,-2.7942,-2.7763,-2.7951,-2.7486,-2.7371,-2.7904,-2.8252,-2.8481,-2.8822,-2.8753,-2.8466,-2.8388,-2.8317,-2.8165,-2.7982,-2.7992,-2.7992,-2.7816,-2.7816,-2.7798,-2.7741,-2.7718,-2.7823,-2.7992,-2.7992,-2.7823,-2.7823,-2.7908,-2.8047,-2.821,-2.8093,-2.7989,-2.802,-2.8245,-2.8599,2.4979,2.5046,2.5271,2.5379,2.5367,2.5372,2.5415,2.5472,2.5478,2.5466,2.5344,2.5042,2.4854,2.4733,2.4424,2.3905,2.3379,2.3147,2.246,2.1428,2.1055,2.0465,1.9441,1.806,1.6661,1.5028,1.2869,1.0623,0.8449,0.4351,0.0756,-0.2904,-0.693,-1.0655,-1.2878,-1.5194,-1.6046,-1.6003,-1.7341,-1.7653,-1.7907,-1.8774,-1.9103,-1.9708,-2.0032,-2.046,-2.1258,-2.1047,-2.1617,-2.2326,-2.2599,-2.2912,-2.3257,-2.409,-2.4543,-2.4642,-2.5038,-2.5761,-2.6567,-2.669,-2.6741,-2.6774,-2.6725,-2.6873,-2.7178,-2.7365,-2.7487,-2.7754,-2.8099,-2.8144,-2.7756,-2.7444,-2.7642,-2.7667,-2.771,-2.7745,-2.7826,-2.788,-2.7765,-2.7619,-2.7225,-2.702,-2.755,-2.7727,-2.7282,-2.7431,-2.7932,-2.8317,-2.8631,-2.8586,-2.8237,-2.8035,-2.7933,-2.7754,-2.7619,-2.7736,-2.7718,-2.7495,-2.7357,-2.7357,-2.7243,-2.7165,-2.7352,-2.7689,-2.7619,-2.7378,-2.747,-2.756,-2.7601,-2.766,-2.7765,-2.7707,-2.7706,-2.7718,-2.8022,2.5105,2.5271,2.5364,2.5459,2.5526,2.5473,2.5516,2.5598,2.5533,2.539,2.5202,2.4985,2.4774,2.4535,2.4229,2.3764,2.3259,2.2898,2.2197,2.146,2.1118,2.0649,1.9748,1.8555,1.7356,1.6143,1.4202,1.2272,1.0581,0.6759,0.3711,0.0213,-0.4904,-0.9134,-1.1633,-1.3511,-1.4103,-1.506,-1.62,-1.7066,-1.734,-1.8145,-1.9061,-1.9963,-1.9839,-2.0345,-2.1372,-2.0876,-2.1052,-2.1617,-2.1808,-2.2087,-2.2595,-2.3469,-2.4441,-2.458,-2.494,-2.5647,-2.6387,-2.6708,-2.6691,-2.6708,-2.6725,-2.6791,-2.6906,-2.7178,-2.7365,-2.75,-2.7748,-2.7748,-2.7472,-2.7642,-2.7723,-2.7407,-2.7365,-2.733,-2.7365,-2.7435,-2.7409,-2.7224,-2.6899,-2.6843,-2.7151,-2.7426,-2.716,-2.7073,-2.7531,-2.7802,-2.812,-2.8138,-2.7933,-2.7719,-2.7539,-2.7352,-2.7224,-2.7317,-2.7334,-2.7129,-2.697,-2.6905,-2.6821,-2.6785,-2.6852,-2.721,-2.7051,-2.6922,-2.7083,-2.7147,-2.7051,-2.7051,-2.7241,-2.7303,-2.7189,-2.7198,-2.7362,2.5243,2.5415,2.5471,2.5526,2.5576,2.5554,2.5592,2.5593,2.5464,2.5282,2.506,2.4898,2.4704,2.4458,2.4192,2.3746,2.3212,2.2996,2.218,2.1505,2.1118,2.0599,1.9814,1.8962,1.8076,1.7057,1.5676,1.39,1.2243,0.912,0.5579,0.1452,-0.303,-0.6245,-0.8896,-1.0606,-1.2753,-1.3818,-1.4947,-1.5823,-1.6464,-1.7352,-1.8167,-1.9018,-1.9435,-1.9723,-2.0451,-2.0667,-2.0583,-2.0862,-2.1134,-2.1368,-2.1964,-2.3005,-2.4005,-2.4141,-2.4908,-2.5681,-2.6438,-2.6691,-2.6708,-2.6723,-2.6708,-2.6708,-2.6725,-2.6939,-2.7019,-2.7178,-2.7396,-2.7334,-2.7241,-2.7504,-2.7635,-2.7287,-2.7304,-2.7287,-2.6997,-2.7098,-2.7115,-2.6906,-2.6841,-2.6808,-2.6741,-2.6906,-2.6933,-2.7014,-2.7129,-2.7334,-2.7535,-2.7565,-2.7565,-2.7369,-2.7215,-2.7053,-2.6906,-2.6873,-2.6858,-2.6725,-2.6691,-2.6691,-2.6725,-2.6723,-2.6708,-2.6708,-2.6758,-2.6825,-2.6758,-2.6725,-2.6791,-2.6791,-2.6825,-2.6825,-2.6708,-2.681,-2.6979,2.5421,2.5498,2.5567,2.5601,2.5603,2.5588,2.5546,2.5474,2.5299,2.5157,2.4979,2.4693,2.4543,2.4461,2.4266,2.3756,2.323,2.3111,2.219,2.1381,2.1023,2.0447,1.9859,1.9118,1.8507,1.7825,1.6629,1.507,1.3626,1.0746,0.6889,0.268,-0.1042,-0.3607,-0.5788,-0.7939,-1.0524,-1.2031,-1.3523,-1.4506,-1.5395,-1.6071,-1.694,-1.7785,-1.8467,-1.8979,-1.9642,-2.0025,-2.0376,-2.0628,-2.0793,-2.0974,-2.1633,-2.2851,-2.3014,-2.357,-2.4728,-2.5765,-2.6302,-2.6419,-2.6552,-2.6457,-2.65,-2.6606,-2.6725,-2.6775,-2.6808,-2.6808,-2.6939,-2.6858,-2.6825,-2.7198,-2.7555,-2.7505,-2.7539,-2.7267,-2.6876,-2.6791,-2.6791,-2.6725,-2.6725,-2.6691,-2.6573,-2.6641,-2.6556,-2.6386,-2.6454,-2.6741,-2.691,-2.7021,-2.7021,-2.6971,-2.6842,-2.6808,-2.6708,-2.6708,-2.6708,-2.6708,-2.6708,-2.6691,-2.6708,-2.6708,-2.6708,-2.6708,-2.6708,-2.6708,-2.6708,-2.6708,-2.6691,-2.6708,-2.6708,-2.6708,-2.6708,-2.6708,-2.6894,2.5517,2.5567,2.5598,2.5633,2.5662,2.5604,2.5579,2.5489,2.5389,2.5234,2.4986,2.4795,2.4607,2.4442,2.3821,2.3459,2.3111,2.266,2.1931,2.1337,2.0975,2.0413,1.9788,1.9207,1.8841,1.8168,1.722,1.6127,1.4654,1.212,0.8113,0.3695,0.1267,-0.0877,-0.2893,-0.4778,-0.75,-1.0015,-1.1777,-1.3145,-1.4079,-1.4778,-1.5727,-1.6858,-1.7256,-1.7935,-1.9061,-1.9413,-1.9824,-2.0394,-2.091,-2.1202,-2.1346,-2.2537,-2.3232,-2.3916,-2.4999,-2.5886,-2.575,-2.598,-2.6148,-2.6003,-2.5856,-2.6158,-2.6426,-2.657,-2.6539,-2.659,-2.6521,-2.6436,-2.6589,-2.6944,-2.7078,-2.7028,-2.7147,-2.7182,-2.681,-2.6708,-2.6691,-2.659,-2.659,-2.6401,-2.6297,-2.6175,-2.6087,-2.5799,-2.5807,-2.6151,-2.6346,-2.6482,-2.6691,-2.6674,-2.647,-2.6436,-2.6624,-2.6674,-2.6708,-2.6708,-2.6708,-2.6657,-2.6624,-2.6624,-2.6657,-2.6657,-2.6624,-2.6657,-2.6708,-2.6708,-2.6708,-2.6708,-2.6708,-2.6708,-2.6708,-2.681,-2.708,2.557,2.5634,2.5655,2.5643,2.5658,2.5561,2.5484,2.5434,2.5313,2.5158,2.493,2.4741,2.4578,2.4339,2.3878,2.35,2.3165,2.289,2.2141,2.1181,2.1007,2.0413,1.9788,1.9354,1.9118,1.8507,1.7786,1.6831,1.5342,1.2405,0.8474,0.6138,0.3896,0.1699,-0.0327,-0.2235,-0.4405,-0.71,-0.9409,-1.1335,-1.2464,-1.3202,-1.4474,-1.5611,-1.5732,-1.7012,-1.8262,-1.8444,-1.944,-2.0045,-2.0639,-2.1046,-2.1135,-2.1957,-2.308,-2.3763,-2.4834,-2.5171,-2.5056,-2.5394,-2.5508,-2.5461,-2.5249,-2.5275,-2.5465,-2.5587,-2.5983,-2.6245,-2.6175,-2.6156,-2.643,-2.6619,-2.6502,-2.635,-2.6656,-2.7012,-2.6877,-2.6725,-2.659,-2.6436,-2.6245,-2.6068,-2.5908,-2.5779,-2.5738,-2.5637,-2.5697,-2.5935,-2.6064,-2.6061,-2.6388,-2.6634,-2.6327,-2.6087,-2.6332,-2.6555,-2.6486,-2.6521,-2.6624,-2.6624,-2.6556,-2.6539,-2.6624,-2.659,-2.6521,-2.6521,-2.6556,-2.6657,-2.6708,-2.6708,-2.6708,-2.6708,-2.686,-2.7148,-2.7537,2.562,2.5683,2.5703,2.5636,2.5567,2.5465,2.5406,2.5356,2.5215,2.5004,2.4809,2.4588,2.4445,2.4284,2.3958,2.3588,2.3253,2.2915,2.2214,2.1055,2.0991,2.0532,2.0035,1.966,1.9281,1.8855,1.8157,1.7109,1.5588,1.2993,1.034,0.8691,0.6095,0.3926,0.2409,0.0164,-0.191,-0.3704,-0.6433,-0.8721,-1.0237,-1.1213,-1.2125,-1.3439,-1.445,-1.5588,-1.6527,-1.7741,-1.9179,-1.9404,-1.9914,-2.0429,-2.0612,-2.1093,-2.2139,-2.3026,-2.3927,-2.439,-2.4382,-2.4673,-2.4744,-2.4845,-2.4949,-2.4265,-2.4076,-2.4955,-2.5603,-2.5799,-2.5726,-2.5726,-2.5917,-2.6155,-2.6138,-2.6178,-2.6402,-2.6457,-2.6258,-2.6175,-2.6087,-2.5944,-2.5872,-2.5652,-2.5281,-2.5144,-2.5005,-2.521,-2.525,-2.5417,-2.544,-2.5422,-2.5664,-2.6102,-2.5983,-2.5762,-2.6099,-2.6239,-2.6148,-2.6203,-2.6365,-2.6245,-2.598,-2.6193,-2.6539,-2.628,-2.6016,-2.6245,-2.6367,-2.6521,-2.6657,-2.6708,-2.6708,-2.6708,-2.6911,-2.7315,-2.8096,2.5597,2.5629,2.5584,2.5517,2.5434,2.5408,2.5371,2.5312,2.5284,2.5133,2.4911,2.4632,2.4461,2.4357,2.378,2.3392,2.3189,2.2815,2.2108,2.1491,2.115,2.0682,2.0158,1.9803,1.9391,1.8893,1.8143,1.6988,1.5213,1.3242,1.1451,0.954,0.7524,0.6061,0.4508,0.2244,0.0767,-0.0879,-0.3335,-0.5984,-0.7915,-0.9431,-1.0664,-1.1648,-1.2627,-1.3668,-1.4756,-1.6095,-1.691,-1.7333,-1.8822,-1.9293,-1.9319,-2.0117,-2.0563,-2.102,-2.2307,-2.305,-2.3364,-2.3523,-2.3628,-2.339,-2.3171,-2.2598,-2.279,-2.4275,-2.5073,-2.5166,-2.5259,-2.5259,-2.5346,-2.5561,-2.575,-2.5913,-2.6091,-2.5863,-2.5652,-2.5598,-2.5545,-2.5486,-2.5427,-2.5144,-2.4752,-2.4511,-2.4379,-2.423,-2.4078,-2.4097,-2.4239,-2.4245,-2.4405,-2.4791,-2.5346,-2.5389,-2.5733,-2.6096,-2.6091,-2.5745,-2.5717,-2.5556,-2.5395,-2.5577,-2.5779,-2.5598,-2.5486,-2.5709,-2.6052,-2.6436,-2.659,-2.6505,-2.6504,-2.6417,-2.7058,-2.758,-2.8499,2.5554,2.5551,2.5493,2.5434,2.5406,2.5371,2.5283,2.5173,2.5096,2.4975,2.4809,2.4666,2.4545,2.4356,2.3678,2.3282,2.3141,2.2704,2.2164,2.1642,2.1181,2.0748,2.033,1.9909,1.9391,1.8855,1.7706,1.6316,1.4789,1.3689,1.225,1.0568,0.9172,0.7741,0.6138,0.4772,0.3082,0.1433,-0.0769,-0.3018,-0.5474,-0.7078,-0.8795,-0.9811,-1.0797,-1.1804,-1.3188,-1.4455,-1.5325,-1.6078,-1.7352,-1.8374,-1.8711,-1.9308,-1.9475,-1.9866,-2.0741,-2.1709,-2.1728,-2.1975,-2.2292,-2.2271,-2.1917,-2.1538,-2.1634,-2.2951,-2.3443,-2.3586,-2.383,-2.3846,-2.4184,-2.4446,-2.4527,-2.4657,-2.5092,-2.5233,-2.5291,-2.5373,-2.5166,-2.4894,-2.4792,-2.4592,-2.4266,-2.4032,-2.3937,-2.3937,-2.3638,-2.3638,-2.3595,-2.3655,-2.3652,-2.3871,-2.4605,-2.5084,-2.54,-2.583,-2.6195,-2.5742,-2.529,-2.498,-2.4885,-2.495,-2.4989,-2.502,-2.5051,-2.5128,-2.5524,-2.5892,-2.598,-2.5819,-2.5957,-2.6096,-2.6869,-2.7661,-2.877,2.5473,2.5471,2.542,2.5383,2.5387,2.5312,2.5214,2.5053,2.4891,2.4727,2.4588,2.4716,2.4528,2.4192,2.3837,2.3522,2.3165,2.2815,2.2269,2.1761,2.1213,2.0846,2.0431,1.9945,1.9427,1.8574,1.7464,1.6237,1.4926,1.4089,1.3137,1.1837,1.062,0.943,0.8128,0.6313,0.4194,0.2868,0.1102,-0.0554,-0.2595,-0.4751,-0.6699,-0.8063,-0.9027,-0.9977,-1.1466,-1.2772,-1.3787,-1.4537,-1.544,-1.6593,-1.7427,-1.7948,-1.7916,-1.8266,-1.9208,-1.9503,-1.9435,-2.0155,-2.099,-2.1475,-2.1056,-2.0896,-2.0962,-2.1342,-2.1881,-2.2062,-2.2257,-2.2711,-2.3039,-2.3348,-2.3402,-2.3453,-2.3941,-2.4313,-2.4496,-2.4768,-2.4589,-2.4261,-2.4193,-2.404,-2.3852,-2.361,-2.361,-2.361,-2.3595,-2.3595,-2.3625,-2.3773,-2.3812,-2.4051,-2.4615,-2.4958,-2.4973,-2.5693,-2.6217,-2.5991,-2.5519,-2.4842,-2.4333,-2.4446,-2.4539,-2.4664,-2.4712,-2.4672,-2.4816,-2.5166,-2.5166,-2.5221,-2.5481,-2.5761,-2.6254,-2.7196,-2.8738,2.5391,2.5339,2.5331,2.5303,2.5322,2.5293,2.5274,2.5214,2.501,2.4877,2.4716,2.4543,2.4392,2.4189,2.3837,2.3544,2.3277,2.2898,2.2563,2.2118,2.1415,2.1055,2.0632,2.0015,1.9427,1.8598,1.7626,1.6536,1.5374,1.4721,1.3595,1.1953,1.1208,0.9967,0.8619,0.6913,0.5571,0.4187,0.2542,0.0775,-0.0943,-0.3042,-0.4929,-0.622,-0.7228,-0.8227,-0.9386,-1.0655,-1.1266,-1.19,-1.3017,-1.4463,-1.552,-1.6197,-1.6149,-1.6492,-1.7458,-1.7798,-1.7956,-1.8585,-1.9476,-2.0053,-1.9738,-1.9856,-2.0044,-2.0393,-2.0654,-2.0492,-2.0864,-2.1588,-2.1993,-2.2334,-2.2449,-2.2246,-2.2429,-2.2548,-2.2714,-2.3289,-2.3599,-2.3659,-2.3792,-2.3688,-2.3612,-2.351,-2.3553,-2.3538,-2.348,-2.345,-2.298,-2.3391,-2.3864,-2.4178,-2.4462,-2.4267,-2.4104,-2.561,-2.622,-2.6041,-2.5935,-2.5589,-2.4995,-2.4061,-2.4073,-2.423,-2.4158,-2.4074,-2.4266,-2.4552,-2.4752,-2.4871,-2.5144,-2.5452,-2.5783,-2.6598,-2.8021]}]]